<?xml version="1.0" encoding="UTF-8" standalone="no" ?>
<gpx xmlns="http://www.topografix.com/GPX/1/1" xmlns:xsi="http://www.w3.org/2001/XMLSchema-instance" xsi:schemaLocation="http://www.topografix.com/GPX/1/1 http://www.topografix.com/GPX/1/1/gpx.xsd" version="1.1" creator="VisuGPX - https://www.visugpx.com">
  <metadata>
    <name>8 juil. 2024 12:04</name>
    <desc><![CDATA[Recorded with GPX Recorder for Android]]></desc>
  </metadata>
  <trk>
    <name><![CDATA[8 juil. 2024 12:04_1]]></name>
    <trkseg>
      <trkpt lat="44.55459" lon="6.3073">
        <ele>1209</ele>
        <time>2024-07-08T10:03:56Z</time>
      </trkpt>
      <trkpt lat="44.55467" lon="6.30729">
        <ele>1210</ele>
        <time>2024-07-08T10:04:02Z</time>
      </trkpt>
      <trkpt lat="44.55469" lon="6.30724">
        <ele>1207</ele>
        <time>2024-07-08T10:04:05Z</time>
      </trkpt>
      <trkpt lat="44.55473" lon="6.30722">
        <ele>1207</ele>
        <time>2024-07-08T10:04:08Z</time>
      </trkpt>
      <trkpt lat="44.55473" lon="6.30718">
        <ele>1209</ele>
        <time>2024-07-08T10:04:11Z</time>
      </trkpt>
      <trkpt lat="44.55474" lon="6.30713">
        <ele>1209</ele>
        <time>2024-07-08T10:04:14Z</time>
      </trkpt>
      <trkpt lat="44.55476" lon="6.3071">
        <ele>1209</ele>
        <time>2024-07-08T10:04:16Z</time>
      </trkpt>
      <trkpt lat="44.55477" lon="6.30705">
        <ele>1209</ele>
        <time>2024-07-08T10:04:19Z</time>
      </trkpt>
      <trkpt lat="44.55479" lon="6.307">
        <ele>1210</ele>
        <time>2024-07-08T10:04:22Z</time>
      </trkpt>
      <trkpt lat="44.5548" lon="6.30696">
        <ele>1210</ele>
        <time>2024-07-08T10:04:25Z</time>
      </trkpt>
      <trkpt lat="44.55482" lon="6.30691">
        <ele>1210</ele>
        <time>2024-07-08T10:04:28Z</time>
      </trkpt>
      <trkpt lat="44.55483" lon="6.30687">
        <ele>1210</ele>
        <time>2024-07-08T10:04:31Z</time>
      </trkpt>
      <trkpt lat="44.55484" lon="6.30682">
        <ele>1211</ele>
        <time>2024-07-08T10:04:33Z</time>
      </trkpt>
      <trkpt lat="44.55486" lon="6.30678">
        <ele>1211</ele>
        <time>2024-07-08T10:04:36Z</time>
      </trkpt>
      <trkpt lat="44.55487" lon="6.30674">
        <ele>1211</ele>
        <time>2024-07-08T10:04:39Z</time>
      </trkpt>
      <trkpt lat="44.55484" lon="6.30672">
        <ele>1211</ele>
        <time>2024-07-08T10:04:42Z</time>
      </trkpt>
      <trkpt lat="44.55485" lon="6.30669">
        <ele>1211</ele>
        <time>2024-07-08T10:04:45Z</time>
      </trkpt>
      <trkpt lat="44.55487" lon="6.30665">
        <ele>1211</ele>
        <time>2024-07-08T10:04:48Z</time>
      </trkpt>
      <trkpt lat="44.5549" lon="6.30661">
        <ele>1212</ele>
        <time>2024-07-08T10:04:51Z</time>
      </trkpt>
      <trkpt lat="44.55492" lon="6.30656">
        <ele>1212</ele>
        <time>2024-07-08T10:04:54Z</time>
      </trkpt>
      <trkpt lat="44.55493" lon="6.3065">
        <ele>1212</ele>
        <time>2024-07-08T10:04:56Z</time>
      </trkpt>
      <trkpt lat="44.55492" lon="6.30642">
        <ele>1212</ele>
        <time>2024-07-08T10:05:00Z</time>
      </trkpt>
      <trkpt lat="44.5549" lon="6.30631">
        <ele>1212</ele>
        <time>2024-07-08T10:05:04Z</time>
      </trkpt>
      <trkpt lat="44.55492" lon="6.30623">
        <ele>1211</ele>
        <time>2024-07-08T10:05:10Z</time>
      </trkpt>
      <trkpt lat="44.55492" lon="6.30617">
        <ele>1213</ele>
        <time>2024-07-08T10:05:14Z</time>
      </trkpt>
      <trkpt lat="44.55493" lon="6.30615">
        <ele>1211</ele>
        <time>2024-07-08T10:05:17Z</time>
      </trkpt>
      <trkpt lat="44.55491" lon="6.30611">
        <ele>1211</ele>
        <time>2024-07-08T10:05:19Z</time>
      </trkpt>
      <trkpt lat="44.55504" lon="6.30606">
        <ele>1210</ele>
        <time>2024-07-08T10:05:26Z</time>
      </trkpt>
      <trkpt lat="44.55502" lon="6.30598">
        <ele>1210</ele>
        <time>2024-07-08T10:05:30Z</time>
      </trkpt>
      <trkpt lat="44.55504" lon="6.3059">
        <ele>1209</ele>
        <time>2024-07-08T10:05:36Z</time>
      </trkpt>
      <trkpt lat="44.55506" lon="6.30583">
        <ele>1200</ele>
        <time>2024-07-08T10:05:39Z</time>
      </trkpt>
      <trkpt lat="44.55508" lon="6.30577">
        <ele>1210</ele>
        <time>2024-07-08T10:05:42Z</time>
      </trkpt>
      <trkpt lat="44.55509" lon="6.30572">
        <ele>1209</ele>
        <time>2024-07-08T10:05:45Z</time>
      </trkpt>
      <trkpt lat="44.55509" lon="6.30566">
        <ele>1210</ele>
        <time>2024-07-08T10:05:48Z</time>
      </trkpt>
      <trkpt lat="44.55508" lon="6.30557">
        <ele>1210</ele>
        <time>2024-07-08T10:05:51Z</time>
      </trkpt>
      <trkpt lat="44.55509" lon="6.30552">
        <ele>1210</ele>
        <time>2024-07-08T10:05:54Z</time>
      </trkpt>
      <trkpt lat="44.55508" lon="6.30545">
        <ele>1208</ele>
        <time>2024-07-08T10:05:57Z</time>
      </trkpt>
      <trkpt lat="44.55508" lon="6.30539">
        <ele>1211</ele>
        <time>2024-07-08T10:06:00Z</time>
      </trkpt>
      <trkpt lat="44.55508" lon="6.30535">
        <ele>1207</ele>
        <time>2024-07-08T10:06:03Z</time>
      </trkpt>
      <trkpt lat="44.55509" lon="6.3053">
        <ele>1211</ele>
        <time>2024-07-08T10:06:06Z</time>
      </trkpt>
      <trkpt lat="44.55511" lon="6.30527">
        <ele>1206</ele>
        <time>2024-07-08T10:06:09Z</time>
      </trkpt>
      <trkpt lat="44.55512" lon="6.30523">
        <ele>1213</ele>
        <time>2024-07-08T10:06:12Z</time>
      </trkpt>
      <trkpt lat="44.55514" lon="6.30519">
        <ele>1209</ele>
        <time>2024-07-08T10:06:15Z</time>
      </trkpt>
      <trkpt lat="44.55516" lon="6.30514">
        <ele>1213</ele>
        <time>2024-07-08T10:06:18Z</time>
      </trkpt>
      <trkpt lat="44.55517" lon="6.30511">
        <ele>1213</ele>
        <time>2024-07-08T10:06:21Z</time>
      </trkpt>
      <trkpt lat="44.55518" lon="6.30508">
        <ele>1213</ele>
        <time>2024-07-08T10:06:24Z</time>
      </trkpt>
      <trkpt lat="44.5552" lon="6.30507">
        <ele>1212</ele>
        <time>2024-07-08T10:06:27Z</time>
      </trkpt>
      <trkpt lat="44.55522" lon="6.30503">
        <ele>1215</ele>
        <time>2024-07-08T10:06:31Z</time>
      </trkpt>
      <trkpt lat="44.55524" lon="6.30499">
        <ele>1214</ele>
        <time>2024-07-08T10:06:34Z</time>
      </trkpt>
      <trkpt lat="44.55526" lon="6.30496">
        <ele>1214</ele>
        <time>2024-07-08T10:06:37Z</time>
      </trkpt>
      <trkpt lat="44.55526" lon="6.30494">
        <ele>1215</ele>
        <time>2024-07-08T10:06:39Z</time>
      </trkpt>
      <trkpt lat="44.55528" lon="6.30488">
        <ele>1215</ele>
        <time>2024-07-08T10:06:42Z</time>
      </trkpt>
      <trkpt lat="44.55529" lon="6.30484">
        <ele>1216</ele>
        <time>2024-07-08T10:06:45Z</time>
      </trkpt>
      <trkpt lat="44.55535" lon="6.3048">
        <ele>1216</ele>
        <time>2024-07-08T10:06:48Z</time>
      </trkpt>
      <trkpt lat="44.55537" lon="6.30475">
        <ele>1217</ele>
        <time>2024-07-08T10:06:52Z</time>
      </trkpt>
      <trkpt lat="44.5554" lon="6.30471">
        <ele>1217</ele>
        <time>2024-07-08T10:06:55Z</time>
      </trkpt>
      <trkpt lat="44.55542" lon="6.30466">
        <ele>1217</ele>
        <time>2024-07-08T10:06:58Z</time>
      </trkpt>
      <trkpt lat="44.55545" lon="6.3046">
        <ele>1217</ele>
        <time>2024-07-08T10:07:02Z</time>
      </trkpt>
      <trkpt lat="44.5555" lon="6.30455">
        <ele>1218</ele>
        <time>2024-07-08T10:07:06Z</time>
      </trkpt>
      <trkpt lat="44.55553" lon="6.3045">
        <ele>1219</ele>
        <time>2024-07-08T10:07:10Z</time>
      </trkpt>
      <trkpt lat="44.55554" lon="6.30445">
        <ele>1219</ele>
        <time>2024-07-08T10:07:13Z</time>
      </trkpt>
      <trkpt lat="44.55557" lon="6.30443">
        <ele>1219</ele>
        <time>2024-07-08T10:07:16Z</time>
      </trkpt>
      <trkpt lat="44.5556" lon="6.30436">
        <ele>1219</ele>
        <time>2024-07-08T10:07:20Z</time>
      </trkpt>
      <trkpt lat="44.55565" lon="6.30425">
        <ele>1220</ele>
        <time>2024-07-08T10:07:24Z</time>
      </trkpt>
      <trkpt lat="44.55568" lon="6.3042">
        <ele>1221</ele>
        <time>2024-07-08T10:07:28Z</time>
      </trkpt>
      <trkpt lat="44.5557" lon="6.30415">
        <ele>1221</ele>
        <time>2024-07-08T10:07:31Z</time>
      </trkpt>
      <trkpt lat="44.55574" lon="6.30414">
        <ele>1222</ele>
        <time>2024-07-08T10:07:34Z</time>
      </trkpt>
      <trkpt lat="44.55578" lon="6.30411">
        <ele>1222</ele>
        <time>2024-07-08T10:07:38Z</time>
      </trkpt>
      <trkpt lat="44.55584" lon="6.30403">
        <ele>1222</ele>
        <time>2024-07-08T10:07:42Z</time>
      </trkpt>
      <trkpt lat="44.55589" lon="6.30399">
        <ele>1223</ele>
        <time>2024-07-08T10:07:48Z</time>
      </trkpt>
      <trkpt lat="44.55593" lon="6.30397">
        <ele>1221</ele>
        <time>2024-07-08T10:07:52Z</time>
      </trkpt>
      <trkpt lat="44.55592" lon="6.30398">
        <ele>1223</ele>
        <time>2024-07-08T10:07:56Z</time>
      </trkpt>
      <trkpt lat="44.556" lon="6.30397">
        <ele>1224</ele>
        <time>2024-07-08T10:07:59Z</time>
      </trkpt>
      <trkpt lat="44.55603" lon="6.30397">
        <ele>1224</ele>
        <time>2024-07-08T10:08:02Z</time>
      </trkpt>
      <trkpt lat="44.55605" lon="6.30398">
        <ele>1224</ele>
        <time>2024-07-08T10:08:05Z</time>
      </trkpt>
      <trkpt lat="44.55607" lon="6.304">
        <ele>1225</ele>
        <time>2024-07-08T10:08:08Z</time>
      </trkpt>
      <trkpt lat="44.5561" lon="6.30401">
        <ele>1225</ele>
        <time>2024-07-08T10:08:11Z</time>
      </trkpt>
      <trkpt lat="44.55614" lon="6.30402">
        <ele>1225</ele>
        <time>2024-07-08T10:08:14Z</time>
      </trkpt>
      <trkpt lat="44.55616" lon="6.30404">
        <ele>1225</ele>
        <time>2024-07-08T10:08:17Z</time>
      </trkpt>
      <trkpt lat="44.55619" lon="6.30406">
        <ele>1226</ele>
        <time>2024-07-08T10:08:20Z</time>
      </trkpt>
      <trkpt lat="44.55621" lon="6.30408">
        <ele>1226</ele>
        <time>2024-07-08T10:08:23Z</time>
      </trkpt>
      <trkpt lat="44.55624" lon="6.3041">
        <ele>1226</ele>
        <time>2024-07-08T10:08:26Z</time>
      </trkpt>
      <trkpt lat="44.55627" lon="6.30413">
        <ele>1222</ele>
        <time>2024-07-08T10:08:29Z</time>
      </trkpt>
      <trkpt lat="44.55629" lon="6.30413">
        <ele>1227</ele>
        <time>2024-07-08T10:08:32Z</time>
      </trkpt>
      <trkpt lat="44.55634" lon="6.3042">
        <ele>1227</ele>
        <time>2024-07-08T10:08:35Z</time>
      </trkpt>
      <trkpt lat="44.55637" lon="6.30423">
        <ele>1227</ele>
        <time>2024-07-08T10:08:38Z</time>
      </trkpt>
      <trkpt lat="44.5564" lon="6.30427">
        <ele>1227</ele>
        <time>2024-07-08T10:08:41Z</time>
      </trkpt>
      <trkpt lat="44.55643" lon="6.30431">
        <ele>1227</ele>
        <time>2024-07-08T10:08:44Z</time>
      </trkpt>
      <trkpt lat="44.55645" lon="6.30433">
        <ele>1228</ele>
        <time>2024-07-08T10:08:47Z</time>
      </trkpt>
      <trkpt lat="44.55649" lon="6.30436">
        <ele>1227</ele>
        <time>2024-07-08T10:08:50Z</time>
      </trkpt>
      <trkpt lat="44.55653" lon="6.30436">
        <ele>1228</ele>
        <time>2024-07-08T10:08:53Z</time>
      </trkpt>
      <trkpt lat="44.55657" lon="6.30437">
        <ele>1228</ele>
        <time>2024-07-08T10:08:56Z</time>
      </trkpt>
      <trkpt lat="44.55661" lon="6.30435">
        <ele>1227</ele>
        <time>2024-07-08T10:08:59Z</time>
      </trkpt>
      <trkpt lat="44.55664" lon="6.30428">
        <ele>1227</ele>
        <time>2024-07-08T10:09:04Z</time>
      </trkpt>
      <trkpt lat="44.55664" lon="6.30424">
        <ele>1226</ele>
        <time>2024-07-08T10:09:08Z</time>
      </trkpt>
      <trkpt lat="44.55666" lon="6.30419">
        <ele>1226</ele>
        <time>2024-07-08T10:09:12Z</time>
      </trkpt>
      <trkpt lat="44.55668" lon="6.30414">
        <ele>1226</ele>
        <time>2024-07-08T10:09:15Z</time>
      </trkpt>
      <trkpt lat="44.55672" lon="6.3041">
        <ele>1227</ele>
        <time>2024-07-08T10:09:18Z</time>
      </trkpt>
      <trkpt lat="44.55674" lon="6.30405">
        <ele>1227</ele>
        <time>2024-07-08T10:09:20Z</time>
      </trkpt>
      <trkpt lat="44.55676" lon="6.304">
        <ele>1226</ele>
        <time>2024-07-08T10:09:24Z</time>
      </trkpt>
      <trkpt lat="44.5568" lon="6.30393">
        <ele>1226</ele>
        <time>2024-07-08T10:09:28Z</time>
      </trkpt>
      <trkpt lat="44.55679" lon="6.30385">
        <ele>1226</ele>
        <time>2024-07-08T10:09:32Z</time>
      </trkpt>
      <trkpt lat="44.55682" lon="6.3038">
        <ele>1225</ele>
        <time>2024-07-08T10:09:38Z</time>
      </trkpt>
      <trkpt lat="44.55688" lon="6.30374">
        <ele>1226</ele>
        <time>2024-07-08T10:09:41Z</time>
      </trkpt>
      <trkpt lat="44.55691" lon="6.30372">
        <ele>1226</ele>
        <time>2024-07-08T10:09:44Z</time>
      </trkpt>
      <trkpt lat="44.55694" lon="6.30368">
        <ele>1226</ele>
        <time>2024-07-08T10:09:46Z</time>
      </trkpt>
      <trkpt lat="44.55695" lon="6.30362">
        <ele>1225</ele>
        <time>2024-07-08T10:09:49Z</time>
      </trkpt>
      <trkpt lat="44.55698" lon="6.30354">
        <ele>1224</ele>
        <time>2024-07-08T10:09:53Z</time>
      </trkpt>
      <trkpt lat="44.55702" lon="6.30348">
        <ele>1225</ele>
        <time>2024-07-08T10:09:56Z</time>
      </trkpt>
      <trkpt lat="44.55705" lon="6.30341">
        <ele>1225</ele>
        <time>2024-07-08T10:09:59Z</time>
      </trkpt>
      <trkpt lat="44.5571" lon="6.30338">
        <ele>1225</ele>
        <time>2024-07-08T10:10:02Z</time>
      </trkpt>
      <trkpt lat="44.55714" lon="6.30336">
        <ele>1225</ele>
        <time>2024-07-08T10:10:05Z</time>
      </trkpt>
      <trkpt lat="44.55717" lon="6.30335">
        <ele>1227</ele>
        <time>2024-07-08T10:10:07Z</time>
      </trkpt>
      <trkpt lat="44.55722" lon="6.3033">
        <ele>1226</ele>
        <time>2024-07-08T10:10:12Z</time>
      </trkpt>
      <trkpt lat="44.55727" lon="6.3032">
        <ele>1225</ele>
        <time>2024-07-08T10:10:16Z</time>
      </trkpt>
      <trkpt lat="44.55728" lon="6.30318">
        <ele>1226</ele>
        <time>2024-07-08T10:10:19Z</time>
      </trkpt>
      <trkpt lat="44.55728" lon="6.30314">
        <ele>1226</ele>
        <time>2024-07-08T10:10:22Z</time>
      </trkpt>
      <trkpt lat="44.55735" lon="6.30308">
        <ele>1226</ele>
        <time>2024-07-08T10:10:25Z</time>
      </trkpt>
      <trkpt lat="44.55736" lon="6.30303">
        <ele>1226</ele>
        <time>2024-07-08T10:10:28Z</time>
      </trkpt>
      <trkpt lat="44.55739" lon="6.30299">
        <ele>1227</ele>
        <time>2024-07-08T10:10:31Z</time>
      </trkpt>
      <trkpt lat="44.55743" lon="6.30296">
        <ele>1227</ele>
        <time>2024-07-08T10:10:34Z</time>
      </trkpt>
      <trkpt lat="44.55744" lon="6.30291">
        <ele>1227</ele>
        <time>2024-07-08T10:10:37Z</time>
      </trkpt>
      <trkpt lat="44.55745" lon="6.30286">
        <ele>1227</ele>
        <time>2024-07-08T10:10:40Z</time>
      </trkpt>
      <trkpt lat="44.55745" lon="6.30282">
        <ele>1227</ele>
        <time>2024-07-08T10:10:43Z</time>
      </trkpt>
      <trkpt lat="44.55745" lon="6.30278">
        <ele>1227</ele>
        <time>2024-07-08T10:10:46Z</time>
      </trkpt>
      <trkpt lat="44.55748" lon="6.30275">
        <ele>1228</ele>
        <time>2024-07-08T10:10:49Z</time>
      </trkpt>
      <trkpt lat="44.55751" lon="6.30271">
        <ele>1228</ele>
        <time>2024-07-08T10:10:52Z</time>
      </trkpt>
      <trkpt lat="44.55754" lon="6.30267">
        <ele>1228</ele>
        <time>2024-07-08T10:10:55Z</time>
      </trkpt>
      <trkpt lat="44.55755" lon="6.30263">
        <ele>1229</ele>
        <time>2024-07-08T10:10:58Z</time>
      </trkpt>
      <trkpt lat="44.55758" lon="6.30259">
        <ele>1228</ele>
        <time>2024-07-08T10:11:01Z</time>
      </trkpt>
      <trkpt lat="44.55759" lon="6.30255">
        <ele>1228</ele>
        <time>2024-07-08T10:11:04Z</time>
      </trkpt>
      <trkpt lat="44.55759" lon="6.30251">
        <ele>1228</ele>
        <time>2024-07-08T10:11:07Z</time>
      </trkpt>
      <trkpt lat="44.55761" lon="6.30246">
        <ele>1228</ele>
        <time>2024-07-08T10:11:10Z</time>
      </trkpt>
      <trkpt lat="44.5576" lon="6.30243">
        <ele>1229</ele>
        <time>2024-07-08T10:11:13Z</time>
      </trkpt>
      <trkpt lat="44.55759" lon="6.30241">
        <ele>1230</ele>
        <time>2024-07-08T10:11:17Z</time>
      </trkpt>
      <trkpt lat="44.55772" lon="6.30241">
        <ele>1231</ele>
        <time>2024-07-08T10:11:20Z</time>
      </trkpt>
      <trkpt lat="44.55774" lon="6.30236">
        <ele>1233</ele>
        <time>2024-07-08T10:11:24Z</time>
      </trkpt>
      <trkpt lat="44.55778" lon="6.30226">
        <ele>1233</ele>
        <time>2024-07-08T10:11:28Z</time>
      </trkpt>
      <trkpt lat="44.55779" lon="6.30223">
        <ele>1232</ele>
        <time>2024-07-08T10:11:31Z</time>
      </trkpt>
      <trkpt lat="44.5578" lon="6.3022">
        <ele>1233</ele>
        <time>2024-07-08T10:11:34Z</time>
      </trkpt>
      <trkpt lat="44.55782" lon="6.30215">
        <ele>1240</ele>
        <time>2024-07-08T10:11:37Z</time>
      </trkpt>
      <trkpt lat="44.55783" lon="6.30211">
        <ele>1235</ele>
        <time>2024-07-08T10:11:40Z</time>
      </trkpt>
      <trkpt lat="44.55786" lon="6.3021">
        <ele>1234</ele>
        <time>2024-07-08T10:11:43Z</time>
      </trkpt>
      <trkpt lat="44.5579" lon="6.30208">
        <ele>1234</ele>
        <time>2024-07-08T10:11:46Z</time>
      </trkpt>
      <trkpt lat="44.55794" lon="6.30207">
        <ele>1234</ele>
        <time>2024-07-08T10:11:49Z</time>
      </trkpt>
      <trkpt lat="44.55797" lon="6.30206">
        <ele>1236</ele>
        <time>2024-07-08T10:11:52Z</time>
      </trkpt>
      <trkpt lat="44.558" lon="6.30213">
        <ele>1234</ele>
        <time>2024-07-08T10:11:55Z</time>
      </trkpt>
      <trkpt lat="44.55803" lon="6.30212">
        <ele>1236</ele>
        <time>2024-07-08T10:11:58Z</time>
      </trkpt>
      <trkpt lat="44.55806" lon="6.30212">
        <ele>1234</ele>
        <time>2024-07-08T10:12:01Z</time>
      </trkpt>
      <trkpt lat="44.55807" lon="6.30211">
        <ele>1236</ele>
        <time>2024-07-08T10:12:04Z</time>
      </trkpt>
      <trkpt lat="44.55809" lon="6.30209">
        <ele>1236</ele>
        <time>2024-07-08T10:12:07Z</time>
      </trkpt>
      <trkpt lat="44.5581" lon="6.30205">
        <ele>1236</ele>
        <time>2024-07-08T10:12:10Z</time>
      </trkpt>
      <trkpt lat="44.55809" lon="6.30203">
        <ele>1236</ele>
        <time>2024-07-08T10:12:18Z</time>
      </trkpt>
      <trkpt lat="44.55809" lon="6.30195">
        <ele>1236</ele>
        <time>2024-07-08T10:12:24Z</time>
      </trkpt>
      <trkpt lat="44.55833" lon="6.30201">
        <ele>1237</ele>
        <time>2024-07-08T10:12:28Z</time>
      </trkpt>
      <trkpt lat="44.55833" lon="6.30198">
        <ele>1237</ele>
        <time>2024-07-08T10:12:33Z</time>
      </trkpt>
      <trkpt lat="44.55837" lon="6.30188">
        <ele>1237</ele>
        <time>2024-07-08T10:12:36Z</time>
      </trkpt>
      <trkpt lat="44.55841" lon="6.30185">
        <ele>1237</ele>
        <time>2024-07-08T10:12:39Z</time>
      </trkpt>
      <trkpt lat="44.55841" lon="6.30181">
        <ele>1237</ele>
        <time>2024-07-08T10:12:42Z</time>
      </trkpt>
      <trkpt lat="44.55839" lon="6.30175">
        <ele>1237</ele>
        <time>2024-07-08T10:12:45Z</time>
      </trkpt>
      <trkpt lat="44.55839" lon="6.30171">
        <ele>1240</ele>
        <time>2024-07-08T10:12:48Z</time>
      </trkpt>
      <trkpt lat="44.55842" lon="6.30167">
        <ele>1240</ele>
        <time>2024-07-08T10:12:51Z</time>
      </trkpt>
      <trkpt lat="44.55843" lon="6.30165">
        <ele>1240</ele>
        <time>2024-07-08T10:12:55Z</time>
      </trkpt>
      <trkpt lat="44.55846" lon="6.30164">
        <ele>1241</ele>
        <time>2024-07-08T10:12:58Z</time>
      </trkpt>
      <trkpt lat="44.55849" lon="6.30164">
        <ele>1232</ele>
        <time>2024-07-08T10:13:01Z</time>
      </trkpt>
      <trkpt lat="44.55853" lon="6.30164">
        <ele>1241</ele>
        <time>2024-07-08T10:13:04Z</time>
      </trkpt>
      <trkpt lat="44.55856" lon="6.30167">
        <ele>1241</ele>
        <time>2024-07-08T10:13:07Z</time>
      </trkpt>
      <trkpt lat="44.55858" lon="6.30171">
        <ele>1242</ele>
        <time>2024-07-08T10:13:10Z</time>
      </trkpt>
      <trkpt lat="44.55858" lon="6.30175">
        <ele>1244</ele>
        <time>2024-07-08T10:13:13Z</time>
      </trkpt>
      <trkpt lat="44.55859" lon="6.30179">
        <ele>1244</ele>
        <time>2024-07-08T10:13:16Z</time>
      </trkpt>
      <trkpt lat="44.55862" lon="6.30185">
        <ele>1242</ele>
        <time>2024-07-08T10:13:19Z</time>
      </trkpt>
      <trkpt lat="44.55865" lon="6.30191">
        <ele>1242</ele>
        <time>2024-07-08T10:13:24Z</time>
      </trkpt>
      <trkpt lat="44.55862" lon="6.30198">
        <ele>1244</ele>
        <time>2024-07-08T10:13:28Z</time>
      </trkpt>
      <trkpt lat="44.5586" lon="6.30199">
        <ele>1244</ele>
        <time>2024-07-08T10:13:32Z</time>
      </trkpt>
      <trkpt lat="44.5586" lon="6.30208">
        <ele>1244</ele>
        <time>2024-07-08T10:13:35Z</time>
      </trkpt>
      <trkpt lat="44.55861" lon="6.30215">
        <ele>1244</ele>
        <time>2024-07-08T10:13:38Z</time>
      </trkpt>
      <trkpt lat="44.55862" lon="6.3022">
        <ele>1244</ele>
        <time>2024-07-08T10:13:42Z</time>
      </trkpt>
      <trkpt lat="44.5586" lon="6.30231">
        <ele>1245</ele>
        <time>2024-07-08T10:13:46Z</time>
      </trkpt>
      <trkpt lat="44.55856" lon="6.30239">
        <ele>1245</ele>
        <time>2024-07-08T10:13:52Z</time>
      </trkpt>
      <trkpt lat="44.55854" lon="6.30243">
        <ele>1245</ele>
        <time>2024-07-08T10:13:55Z</time>
      </trkpt>
      <trkpt lat="44.55852" lon="6.30245">
        <ele>1245</ele>
        <time>2024-07-08T10:13:59Z</time>
      </trkpt>
      <trkpt lat="44.55848" lon="6.30253">
        <ele>1243</ele>
        <time>2024-07-08T10:14:02Z</time>
      </trkpt>
      <trkpt lat="44.55845" lon="6.30257">
        <ele>1243</ele>
        <time>2024-07-08T10:14:06Z</time>
      </trkpt>
      <trkpt lat="44.55843" lon="6.3026">
        <ele>1247</ele>
        <time>2024-07-08T10:14:09Z</time>
      </trkpt>
      <trkpt lat="44.55839" lon="6.30263">
        <ele>1244</ele>
        <time>2024-07-08T10:14:12Z</time>
      </trkpt>
      <trkpt lat="44.5584" lon="6.30259">
        <ele>1244</ele>
        <time>2024-07-08T10:14:15Z</time>
      </trkpt>
      <trkpt lat="44.55839" lon="6.30271">
        <ele>1248</ele>
        <time>2024-07-08T10:14:18Z</time>
      </trkpt>
      <trkpt lat="44.55836" lon="6.30277">
        <ele>1248</ele>
        <time>2024-07-08T10:14:21Z</time>
      </trkpt>
      <trkpt lat="44.55834" lon="6.3028">
        <ele>1248</ele>
        <time>2024-07-08T10:14:24Z</time>
      </trkpt>
      <trkpt lat="44.55831" lon="6.30284">
        <ele>1248</ele>
        <time>2024-07-08T10:14:27Z</time>
      </trkpt>
      <trkpt lat="44.55829" lon="6.30286">
        <ele>1249</ele>
        <time>2024-07-08T10:14:29Z</time>
      </trkpt>
      <trkpt lat="44.55825" lon="6.30289">
        <ele>1250</ele>
        <time>2024-07-08T10:14:33Z</time>
      </trkpt>
      <trkpt lat="44.55822" lon="6.30293">
        <ele>1250</ele>
        <time>2024-07-08T10:14:36Z</time>
      </trkpt>
      <trkpt lat="44.55822" lon="6.30297">
        <ele>1248</ele>
        <time>2024-07-08T10:14:39Z</time>
      </trkpt>
      <trkpt lat="44.55821" lon="6.30294">
        <ele>1250</ele>
        <time>2024-07-08T10:14:48Z</time>
      </trkpt>
      <trkpt lat="44.55819" lon="6.30301">
        <ele>1252</ele>
        <time>2024-07-08T10:15:02Z</time>
      </trkpt>
      <trkpt lat="44.55817" lon="6.30317">
        <ele>1253</ele>
        <time>2024-07-08T10:15:08Z</time>
      </trkpt>
      <trkpt lat="44.55816" lon="6.30325">
        <ele>1253</ele>
        <time>2024-07-08T10:15:12Z</time>
      </trkpt>
      <trkpt lat="44.55816" lon="6.30328">
        <ele>1254</ele>
        <time>2024-07-08T10:15:16Z</time>
      </trkpt>
      <trkpt lat="44.55813" lon="6.30334">
        <ele>1254</ele>
        <time>2024-07-08T10:15:19Z</time>
      </trkpt>
      <trkpt lat="44.55809" lon="6.30341">
        <ele>1255</ele>
        <time>2024-07-08T10:15:24Z</time>
      </trkpt>
      <trkpt lat="44.55805" lon="6.30347">
        <ele>1259</ele>
        <time>2024-07-08T10:15:28Z</time>
      </trkpt>
      <trkpt lat="44.55806" lon="6.30353">
        <ele>1256</ele>
        <time>2024-07-08T10:15:34Z</time>
      </trkpt>
      <trkpt lat="44.55809" lon="6.30355">
        <ele>1255</ele>
        <time>2024-07-08T10:15:38Z</time>
      </trkpt>
      <trkpt lat="44.55811" lon="6.3035">
        <ele>1257</ele>
        <time>2024-07-08T10:15:41Z</time>
      </trkpt>
      <trkpt lat="44.55812" lon="6.30367">
        <ele>1259</ele>
        <time>2024-07-08T10:15:44Z</time>
      </trkpt>
      <trkpt lat="44.55816" lon="6.30377">
        <ele>1259</ele>
        <time>2024-07-08T10:15:47Z</time>
      </trkpt>
      <trkpt lat="44.55817" lon="6.30382">
        <ele>1259</ele>
        <time>2024-07-08T10:15:50Z</time>
      </trkpt>
      <trkpt lat="44.55817" lon="6.30387">
        <ele>1259</ele>
        <time>2024-07-08T10:15:53Z</time>
      </trkpt>
      <trkpt lat="44.55817" lon="6.30391">
        <ele>1261</ele>
        <time>2024-07-08T10:15:55Z</time>
      </trkpt>
      <trkpt lat="44.55816" lon="6.30395">
        <ele>1259</ele>
        <time>2024-07-08T10:15:58Z</time>
      </trkpt>
      <trkpt lat="44.55815" lon="6.30399">
        <ele>1259</ele>
        <time>2024-07-08T10:16:01Z</time>
      </trkpt>
      <trkpt lat="44.55814" lon="6.30403">
        <ele>1261</ele>
        <time>2024-07-08T10:16:04Z</time>
      </trkpt>
      <trkpt lat="44.55814" lon="6.30407">
        <ele>1261</ele>
        <time>2024-07-08T10:16:07Z</time>
      </trkpt>
      <trkpt lat="44.55814" lon="6.30411">
        <ele>1263</ele>
        <time>2024-07-08T10:16:09Z</time>
      </trkpt>
      <trkpt lat="44.55813" lon="6.30415">
        <ele>1263</ele>
        <time>2024-07-08T10:16:12Z</time>
      </trkpt>
      <trkpt lat="44.55812" lon="6.30418">
        <ele>1264</ele>
        <time>2024-07-08T10:16:15Z</time>
      </trkpt>
      <trkpt lat="44.55813" lon="6.30422">
        <ele>1265</ele>
        <time>2024-07-08T10:16:18Z</time>
      </trkpt>
      <trkpt lat="44.55814" lon="6.30426">
        <ele>1265</ele>
        <time>2024-07-08T10:16:21Z</time>
      </trkpt>
      <trkpt lat="44.55814" lon="6.3043">
        <ele>1264</ele>
        <time>2024-07-08T10:16:23Z</time>
      </trkpt>
      <trkpt lat="44.55815" lon="6.30434">
        <ele>1266</ele>
        <time>2024-07-08T10:16:26Z</time>
      </trkpt>
      <trkpt lat="44.55816" lon="6.30438">
        <ele>1266</ele>
        <time>2024-07-08T10:16:29Z</time>
      </trkpt>
      <trkpt lat="44.55817" lon="6.30441">
        <ele>1266</ele>
        <time>2024-07-08T10:16:32Z</time>
      </trkpt>
      <trkpt lat="44.5582" lon="6.30442">
        <ele>1266</ele>
        <time>2024-07-08T10:16:35Z</time>
      </trkpt>
      <trkpt lat="44.55822" lon="6.30442">
        <ele>1267</ele>
        <time>2024-07-08T10:16:38Z</time>
      </trkpt>
      <trkpt lat="44.55825" lon="6.30441">
        <ele>1267</ele>
        <time>2024-07-08T10:16:41Z</time>
      </trkpt>
      <trkpt lat="44.55825" lon="6.30444">
        <ele>1267</ele>
        <time>2024-07-08T10:16:47Z</time>
      </trkpt>
      <trkpt lat="44.5583" lon="6.30446">
        <ele>1269</ele>
        <time>2024-07-08T10:16:50Z</time>
      </trkpt>
      <trkpt lat="44.55834" lon="6.30449">
        <ele>1269</ele>
        <time>2024-07-08T10:16:53Z</time>
      </trkpt>
      <trkpt lat="44.55837" lon="6.30451">
        <ele>1265</ele>
        <time>2024-07-08T10:16:55Z</time>
      </trkpt>
      <trkpt lat="44.5584" lon="6.30453">
        <ele>1269</ele>
        <time>2024-07-08T10:16:59Z</time>
      </trkpt>
      <trkpt lat="44.55842" lon="6.30453">
        <ele>1271</ele>
        <time>2024-07-08T10:17:02Z</time>
      </trkpt>
      <trkpt lat="44.55845" lon="6.30454">
        <ele>1270</ele>
        <time>2024-07-08T10:17:06Z</time>
      </trkpt>
      <trkpt lat="44.55848" lon="6.30455">
        <ele>1271</ele>
        <time>2024-07-08T10:17:09Z</time>
      </trkpt>
      <trkpt lat="44.55852" lon="6.30457">
        <ele>1272</ele>
        <time>2024-07-08T10:17:12Z</time>
      </trkpt>
      <trkpt lat="44.55854" lon="6.30461">
        <ele>1273</ele>
        <time>2024-07-08T10:17:15Z</time>
      </trkpt>
      <trkpt lat="44.55856" lon="6.30464">
        <ele>1272</ele>
        <time>2024-07-08T10:17:18Z</time>
      </trkpt>
      <trkpt lat="44.55855" lon="6.30469">
        <ele>1273</ele>
        <time>2024-07-08T10:17:21Z</time>
      </trkpt>
      <trkpt lat="44.55854" lon="6.30474">
        <ele>1273</ele>
        <time>2024-07-08T10:17:24Z</time>
      </trkpt>
      <trkpt lat="44.55851" lon="6.30479">
        <ele>1273</ele>
        <time>2024-07-08T10:17:27Z</time>
      </trkpt>
      <trkpt lat="44.55847" lon="6.30483">
        <ele>1274</ele>
        <time>2024-07-08T10:17:30Z</time>
      </trkpt>
      <trkpt lat="44.55846" lon="6.30487">
        <ele>1274</ele>
        <time>2024-07-08T10:17:33Z</time>
      </trkpt>
      <trkpt lat="44.55842" lon="6.3049">
        <ele>1275</ele>
        <time>2024-07-08T10:17:36Z</time>
      </trkpt>
      <trkpt lat="44.55841" lon="6.30494">
        <ele>1276</ele>
        <time>2024-07-08T10:17:39Z</time>
      </trkpt>
      <trkpt lat="44.55839" lon="6.30499">
        <ele>1276</ele>
        <time>2024-07-08T10:17:42Z</time>
      </trkpt>
      <trkpt lat="44.5584" lon="6.30506">
        <ele>1277</ele>
        <time>2024-07-08T10:17:46Z</time>
      </trkpt>
      <trkpt lat="44.5584" lon="6.30513">
        <ele>1276</ele>
        <time>2024-07-08T10:17:50Z</time>
      </trkpt>
      <trkpt lat="44.55841" lon="6.30523">
        <ele>1277</ele>
        <time>2024-07-08T10:17:54Z</time>
      </trkpt>
      <trkpt lat="44.55839" lon="6.30525">
        <ele>1278</ele>
        <time>2024-07-08T10:17:58Z</time>
      </trkpt>
      <trkpt lat="44.55839" lon="6.30533">
        <ele>1277</ele>
        <time>2024-07-08T10:18:00Z</time>
      </trkpt>
      <trkpt lat="44.55839" lon="6.30536">
        <ele>1278</ele>
        <time>2024-07-08T10:18:04Z</time>
      </trkpt>
      <trkpt lat="44.5584" lon="6.3054">
        <ele>1279</ele>
        <time>2024-07-08T10:18:10Z</time>
      </trkpt>
      <trkpt lat="44.55841" lon="6.30543">
        <ele>1279</ele>
        <time>2024-07-08T10:18:13Z</time>
      </trkpt>
      <trkpt lat="44.55843" lon="6.30549">
        <ele>1281</ele>
        <time>2024-07-08T10:18:16Z</time>
      </trkpt>
      <trkpt lat="44.55844" lon="6.30553">
        <ele>1280</ele>
        <time>2024-07-08T10:18:19Z</time>
      </trkpt>
      <trkpt lat="44.55847" lon="6.30557">
        <ele>1281</ele>
        <time>2024-07-08T10:18:22Z</time>
      </trkpt>
      <trkpt lat="44.55848" lon="6.3056">
        <ele>1281</ele>
        <time>2024-07-08T10:18:24Z</time>
      </trkpt>
      <trkpt lat="44.55848" lon="6.30563">
        <ele>1281</ele>
        <time>2024-07-08T10:18:28Z</time>
      </trkpt>
      <trkpt lat="44.55849" lon="6.30569">
        <ele>1281</ele>
        <time>2024-07-08T10:18:31Z</time>
      </trkpt>
      <trkpt lat="44.55848" lon="6.30566">
        <ele>1283</ele>
        <time>2024-07-08T10:18:34Z</time>
      </trkpt>
      <trkpt lat="44.5585" lon="6.30573">
        <ele>1283</ele>
        <time>2024-07-08T10:18:36Z</time>
      </trkpt>
      <trkpt lat="44.5585" lon="6.30579">
        <ele>1282</ele>
        <time>2024-07-08T10:18:39Z</time>
      </trkpt>
      <trkpt lat="44.5585" lon="6.30585">
        <ele>1283</ele>
        <time>2024-07-08T10:18:42Z</time>
      </trkpt>
      <trkpt lat="44.5585" lon="6.3059">
        <ele>1284</ele>
        <time>2024-07-08T10:18:45Z</time>
      </trkpt>
      <trkpt lat="44.55849" lon="6.30596">
        <ele>1285</ele>
        <time>2024-07-08T10:18:49Z</time>
      </trkpt>
      <trkpt lat="44.55846" lon="6.30604">
        <ele>1286</ele>
        <time>2024-07-08T10:18:53Z</time>
      </trkpt>
      <trkpt lat="44.55845" lon="6.30612">
        <ele>1286</ele>
        <time>2024-07-08T10:18:56Z</time>
      </trkpt>
      <trkpt lat="44.55846" lon="6.30619">
        <ele>1288</ele>
        <time>2024-07-08T10:18:59Z</time>
      </trkpt>
      <trkpt lat="44.55846" lon="6.30623">
        <ele>1288</ele>
        <time>2024-07-08T10:19:02Z</time>
      </trkpt>
      <trkpt lat="44.55847" lon="6.30625">
        <ele>1288</ele>
        <time>2024-07-08T10:19:06Z</time>
      </trkpt>
      <trkpt lat="44.5585" lon="6.30626">
        <ele>1289</ele>
        <time>2024-07-08T10:19:09Z</time>
      </trkpt>
      <trkpt lat="44.55853" lon="6.30626">
        <ele>1288</ele>
        <time>2024-07-08T10:19:12Z</time>
      </trkpt>
      <trkpt lat="44.55855" lon="6.30627">
        <ele>1289</ele>
        <time>2024-07-08T10:19:14Z</time>
      </trkpt>
      <trkpt lat="44.55858" lon="6.30629">
        <ele>1289</ele>
        <time>2024-07-08T10:19:18Z</time>
      </trkpt>
      <trkpt lat="44.55861" lon="6.30631">
        <ele>1289</ele>
        <time>2024-07-08T10:19:21Z</time>
      </trkpt>
      <trkpt lat="44.55863" lon="6.30633">
        <ele>1290</ele>
        <time>2024-07-08T10:19:23Z</time>
      </trkpt>
      <trkpt lat="44.55865" lon="6.30636">
        <ele>1291</ele>
        <time>2024-07-08T10:19:26Z</time>
      </trkpt>
      <trkpt lat="44.55867" lon="6.30637">
        <ele>1291</ele>
        <time>2024-07-08T10:19:29Z</time>
      </trkpt>
      <trkpt lat="44.5587" lon="6.3064">
        <ele>1292</ele>
        <time>2024-07-08T10:19:32Z</time>
      </trkpt>
      <trkpt lat="44.55869" lon="6.30643">
        <ele>1293</ele>
        <time>2024-07-08T10:19:34Z</time>
      </trkpt>
      <trkpt lat="44.55871" lon="6.30646">
        <ele>1293</ele>
        <time>2024-07-08T10:19:37Z</time>
      </trkpt>
      <trkpt lat="44.55873" lon="6.30648">
        <ele>1293</ele>
        <time>2024-07-08T10:19:41Z</time>
      </trkpt>
      <trkpt lat="44.55875" lon="6.30649">
        <ele>1295</ele>
        <time>2024-07-08T10:19:43Z</time>
      </trkpt>
      <trkpt lat="44.55876" lon="6.30653">
        <ele>1294</ele>
        <time>2024-07-08T10:19:47Z</time>
      </trkpt>
      <trkpt lat="44.55876" lon="6.30656">
        <ele>1296</ele>
        <time>2024-07-08T10:19:51Z</time>
      </trkpt>
      <trkpt lat="44.55876" lon="6.30659">
        <ele>1297</ele>
        <time>2024-07-08T10:19:54Z</time>
      </trkpt>
      <trkpt lat="44.55875" lon="6.30662">
        <ele>1297</ele>
        <time>2024-07-08T10:19:57Z</time>
      </trkpt>
      <trkpt lat="44.55877" lon="6.30665">
        <ele>1297</ele>
        <time>2024-07-08T10:20:00Z</time>
      </trkpt>
      <trkpt lat="44.55878" lon="6.3067">
        <ele>1298</ele>
        <time>2024-07-08T10:20:03Z</time>
      </trkpt>
      <trkpt lat="44.55879" lon="6.30675">
        <ele>1298</ele>
        <time>2024-07-08T10:20:06Z</time>
      </trkpt>
      <trkpt lat="44.55881" lon="6.30678">
        <ele>1297</ele>
        <time>2024-07-08T10:20:09Z</time>
      </trkpt>
      <trkpt lat="44.55883" lon="6.3068">
        <ele>1298</ele>
        <time>2024-07-08T10:20:12Z</time>
      </trkpt>
      <trkpt lat="44.55884" lon="6.30684">
        <ele>1298</ele>
        <time>2024-07-08T10:20:15Z</time>
      </trkpt>
      <trkpt lat="44.55885" lon="6.30688">
        <ele>1298</ele>
        <time>2024-07-08T10:20:18Z</time>
      </trkpt>
      <trkpt lat="44.55886" lon="6.30691">
        <ele>1299</ele>
        <time>2024-07-08T10:20:21Z</time>
      </trkpt>
      <trkpt lat="44.55888" lon="6.30692">
        <ele>1301</ele>
        <time>2024-07-08T10:20:27Z</time>
      </trkpt>
      <trkpt lat="44.5589" lon="6.30699">
        <ele>1301</ele>
        <time>2024-07-08T10:20:30Z</time>
      </trkpt>
      <trkpt lat="44.55891" lon="6.30703">
        <ele>1301</ele>
        <time>2024-07-08T10:20:33Z</time>
      </trkpt>
      <trkpt lat="44.55893" lon="6.30705">
        <ele>1301</ele>
        <time>2024-07-08T10:20:35Z</time>
      </trkpt>
      <trkpt lat="44.55894" lon="6.30709">
        <ele>1302</ele>
        <time>2024-07-08T10:20:38Z</time>
      </trkpt>
      <trkpt lat="44.55895" lon="6.30712">
        <ele>1302</ele>
        <time>2024-07-08T10:20:41Z</time>
      </trkpt>
      <trkpt lat="44.55897" lon="6.30715">
        <ele>1303</ele>
        <time>2024-07-08T10:20:44Z</time>
      </trkpt>
      <trkpt lat="44.559" lon="6.30719">
        <ele>1303</ele>
        <time>2024-07-08T10:20:48Z</time>
      </trkpt>
      <trkpt lat="44.55901" lon="6.30722">
        <ele>1304</ele>
        <time>2024-07-08T10:20:53Z</time>
      </trkpt>
      <trkpt lat="44.55903" lon="6.30726">
        <ele>1305</ele>
        <time>2024-07-08T10:20:57Z</time>
      </trkpt>
      <trkpt lat="44.55905" lon="6.30728">
        <ele>1305</ele>
        <time>2024-07-08T10:21:00Z</time>
      </trkpt>
      <trkpt lat="44.55905" lon="6.30734">
        <ele>1306</ele>
        <time>2024-07-08T10:21:04Z</time>
      </trkpt>
      <trkpt lat="44.55907" lon="6.30733">
        <ele>1307</ele>
        <time>2024-07-08T10:21:09Z</time>
      </trkpt>
      <trkpt lat="44.55905" lon="6.30735">
        <ele>1305</ele>
        <time>2024-07-08T10:21:12Z</time>
      </trkpt>
      <trkpt lat="44.55906" lon="6.30738">
        <ele>1308</ele>
        <time>2024-07-08T10:21:20Z</time>
      </trkpt>
      <trkpt lat="44.55908" lon="6.30741">
        <ele>1308</ele>
        <time>2024-07-08T10:21:23Z</time>
      </trkpt>
      <trkpt lat="44.5591" lon="6.30744">
        <ele>1309</ele>
        <time>2024-07-08T10:21:26Z</time>
      </trkpt>
      <trkpt lat="44.55913" lon="6.30746">
        <ele>1309</ele>
        <time>2024-07-08T10:21:29Z</time>
      </trkpt>
      <trkpt lat="44.55916" lon="6.30746">
        <ele>1310</ele>
        <time>2024-07-08T10:21:32Z</time>
      </trkpt>
      <trkpt lat="44.55917" lon="6.30746">
        <ele>1310</ele>
        <time>2024-07-08T10:21:35Z</time>
      </trkpt>
      <trkpt lat="44.55922" lon="6.30747">
        <ele>1310</ele>
        <time>2024-07-08T10:21:38Z</time>
      </trkpt>
      <trkpt lat="44.55924" lon="6.30747">
        <ele>1310</ele>
        <time>2024-07-08T10:21:41Z</time>
      </trkpt>
      <trkpt lat="44.55926" lon="6.30749">
        <ele>1311</ele>
        <time>2024-07-08T10:21:46Z</time>
      </trkpt>
      <trkpt lat="44.55928" lon="6.30749">
        <ele>1311</ele>
        <time>2024-07-08T10:21:52Z</time>
      </trkpt>
      <trkpt lat="44.5593" lon="6.3075">
        <ele>1312</ele>
        <time>2024-07-08T10:22:01Z</time>
      </trkpt>
      <trkpt lat="44.55932" lon="6.30748">
        <ele>1314</ele>
        <time>2024-07-08T10:22:10Z</time>
      </trkpt>
      <trkpt lat="44.55934" lon="6.30746">
        <ele>1316</ele>
        <time>2024-07-08T10:22:14Z</time>
      </trkpt>
      <trkpt lat="44.55935" lon="6.30746">
        <ele>1313</ele>
        <time>2024-07-08T10:22:18Z</time>
      </trkpt>
      <trkpt lat="44.55938" lon="6.30745">
        <ele>1314</ele>
        <time>2024-07-08T10:22:21Z</time>
      </trkpt>
      <trkpt lat="44.55941" lon="6.30745">
        <ele>1317</ele>
        <time>2024-07-08T10:22:26Z</time>
      </trkpt>
      <trkpt lat="44.55946" lon="6.30746">
        <ele>1316</ele>
        <time>2024-07-08T10:22:30Z</time>
      </trkpt>
      <trkpt lat="44.55948" lon="6.30748">
        <ele>1317</ele>
        <time>2024-07-08T10:22:33Z</time>
      </trkpt>
      <trkpt lat="44.5595" lon="6.30749">
        <ele>1314</ele>
        <time>2024-07-08T10:22:36Z</time>
      </trkpt>
      <trkpt lat="44.55952" lon="6.30752">
        <ele>1316</ele>
        <time>2024-07-08T10:22:39Z</time>
      </trkpt>
      <trkpt lat="44.55953" lon="6.30754">
        <ele>1313</ele>
        <time>2024-07-08T10:22:44Z</time>
      </trkpt>
      <trkpt lat="44.55955" lon="6.30758">
        <ele>1318</ele>
        <time>2024-07-08T10:22:50Z</time>
      </trkpt>
      <trkpt lat="44.55959" lon="6.30761">
        <ele>1319</ele>
        <time>2024-07-08T10:22:54Z</time>
      </trkpt>
      <trkpt lat="44.55961" lon="6.30762">
        <ele>1319</ele>
        <time>2024-07-08T10:23:00Z</time>
      </trkpt>
      <trkpt lat="44.55966" lon="6.30763">
        <ele>1319</ele>
        <time>2024-07-08T10:23:03Z</time>
      </trkpt>
      <trkpt lat="44.5597" lon="6.30765">
        <ele>1319</ele>
        <time>2024-07-08T10:23:07Z</time>
      </trkpt>
      <trkpt lat="44.55972" lon="6.30767">
        <ele>1320</ele>
        <time>2024-07-08T10:23:10Z</time>
      </trkpt>
      <trkpt lat="44.55976" lon="6.30768">
        <ele>1320</ele>
        <time>2024-07-08T10:23:13Z</time>
      </trkpt>
      <trkpt lat="44.55978" lon="6.30769">
        <ele>1320</ele>
        <time>2024-07-08T10:23:16Z</time>
      </trkpt>
      <trkpt lat="44.55981" lon="6.30769">
        <ele>1321</ele>
        <time>2024-07-08T10:23:19Z</time>
      </trkpt>
      <trkpt lat="44.55983" lon="6.30771">
        <ele>1320</ele>
        <time>2024-07-08T10:23:22Z</time>
      </trkpt>
      <trkpt lat="44.55985" lon="6.30774">
        <ele>1321</ele>
        <time>2024-07-08T10:23:25Z</time>
      </trkpt>
      <trkpt lat="44.55988" lon="6.30774">
        <ele>1319</ele>
        <time>2024-07-08T10:23:27Z</time>
      </trkpt>
      <trkpt lat="44.55989" lon="6.3078">
        <ele>1322</ele>
        <time>2024-07-08T10:23:30Z</time>
      </trkpt>
      <trkpt lat="44.5599" lon="6.30782">
        <ele>1322</ele>
        <time>2024-07-08T10:23:34Z</time>
      </trkpt>
      <trkpt lat="44.55992" lon="6.30785">
        <ele>1322</ele>
        <time>2024-07-08T10:23:37Z</time>
      </trkpt>
      <trkpt lat="44.55996" lon="6.30786">
        <ele>1323</ele>
        <time>2024-07-08T10:23:40Z</time>
      </trkpt>
      <trkpt lat="44.56" lon="6.30788">
        <ele>1323</ele>
        <time>2024-07-08T10:23:43Z</time>
      </trkpt>
      <trkpt lat="44.56003" lon="6.30789">
        <ele>1323</ele>
        <time>2024-07-08T10:23:46Z</time>
      </trkpt>
      <trkpt lat="44.56006" lon="6.30792">
        <ele>1324</ele>
        <time>2024-07-08T10:23:49Z</time>
      </trkpt>
      <trkpt lat="44.56008" lon="6.30794">
        <ele>1324</ele>
        <time>2024-07-08T10:23:52Z</time>
      </trkpt>
      <trkpt lat="44.56011" lon="6.30795">
        <ele>1324</ele>
        <time>2024-07-08T10:23:55Z</time>
      </trkpt>
      <trkpt lat="44.56014" lon="6.30796">
        <ele>1325</ele>
        <time>2024-07-08T10:23:58Z</time>
      </trkpt>
      <trkpt lat="44.56016" lon="6.30797">
        <ele>1331</ele>
        <time>2024-07-08T10:24:02Z</time>
      </trkpt>
      <trkpt lat="44.56018" lon="6.30798">
        <ele>1326</ele>
        <time>2024-07-08T10:24:05Z</time>
      </trkpt>
      <trkpt lat="44.56021" lon="6.30798">
        <ele>1326</ele>
        <time>2024-07-08T10:24:12Z</time>
      </trkpt>
      <trkpt lat="44.56026" lon="6.30799">
        <ele>1330</ele>
        <time>2024-07-08T10:24:15Z</time>
      </trkpt>
      <trkpt lat="44.56029" lon="6.308">
        <ele>1328</ele>
        <time>2024-07-08T10:24:18Z</time>
      </trkpt>
      <trkpt lat="44.56031" lon="6.30801">
        <ele>1329</ele>
        <time>2024-07-08T10:24:21Z</time>
      </trkpt>
      <trkpt lat="44.56036" lon="6.30805">
        <ele>1329</ele>
        <time>2024-07-08T10:24:26Z</time>
      </trkpt>
      <trkpt lat="44.56041" lon="6.30808">
        <ele>1329</ele>
        <time>2024-07-08T10:24:30Z</time>
      </trkpt>
      <trkpt lat="44.56043" lon="6.3081">
        <ele>1330</ele>
        <time>2024-07-08T10:24:34Z</time>
      </trkpt>
      <trkpt lat="44.56047" lon="6.3081">
        <ele>1330</ele>
        <time>2024-07-08T10:24:37Z</time>
      </trkpt>
      <trkpt lat="44.56049" lon="6.3081">
        <ele>1330</ele>
        <time>2024-07-08T10:24:40Z</time>
      </trkpt>
      <trkpt lat="44.56052" lon="6.30809">
        <ele>1330</ele>
        <time>2024-07-08T10:24:44Z</time>
      </trkpt>
      <trkpt lat="44.56059" lon="6.30805">
        <ele>1331</ele>
        <time>2024-07-08T10:24:47Z</time>
      </trkpt>
      <trkpt lat="44.56064" lon="6.30802">
        <ele>1331</ele>
        <time>2024-07-08T10:24:50Z</time>
      </trkpt>
      <trkpt lat="44.56066" lon="6.30799">
        <ele>1332</ele>
        <time>2024-07-08T10:24:55Z</time>
      </trkpt>
      <trkpt lat="44.56068" lon="6.308">
        <ele>1332</ele>
        <time>2024-07-08T10:24:58Z</time>
      </trkpt>
      <trkpt lat="44.5607" lon="6.308">
        <ele>1332</ele>
        <time>2024-07-08T10:25:01Z</time>
      </trkpt>
      <trkpt lat="44.56071" lon="6.30802">
        <ele>1334</ele>
        <time>2024-07-08T10:25:05Z</time>
      </trkpt>
      <trkpt lat="44.56074" lon="6.30808">
        <ele>1333</ele>
        <time>2024-07-08T10:25:08Z</time>
      </trkpt>
      <trkpt lat="44.56076" lon="6.30811">
        <ele>1335</ele>
        <time>2024-07-08T10:25:13Z</time>
      </trkpt>
      <trkpt lat="44.56081" lon="6.30808">
        <ele>1337</ele>
        <time>2024-07-08T10:25:17Z</time>
      </trkpt>
      <trkpt lat="44.56085" lon="6.30805">
        <ele>1337</ele>
        <time>2024-07-08T10:25:23Z</time>
      </trkpt>
      <trkpt lat="44.56089" lon="6.30805">
        <ele>1336</ele>
        <time>2024-07-08T10:25:27Z</time>
      </trkpt>
      <trkpt lat="44.56092" lon="6.30805">
        <ele>1338</ele>
        <time>2024-07-08T10:25:31Z</time>
      </trkpt>
      <trkpt lat="44.56094" lon="6.30805">
        <ele>1332</ele>
        <time>2024-07-08T10:25:34Z</time>
      </trkpt>
      <trkpt lat="44.56096" lon="6.30804">
        <ele>1338</ele>
        <time>2024-07-08T10:25:38Z</time>
      </trkpt>
      <trkpt lat="44.56097" lon="6.30803">
        <ele>1340</ele>
        <time>2024-07-08T10:25:41Z</time>
      </trkpt>
      <trkpt lat="44.561" lon="6.30801">
        <ele>1339</ele>
        <time>2024-07-08T10:25:44Z</time>
      </trkpt>
      <trkpt lat="44.56102" lon="6.308">
        <ele>1340</ele>
        <time>2024-07-08T10:25:47Z</time>
      </trkpt>
      <trkpt lat="44.56104" lon="6.308">
        <ele>1338</ele>
        <time>2024-07-08T10:25:52Z</time>
      </trkpt>
      <trkpt lat="44.56107" lon="6.30801">
        <ele>1341</ele>
        <time>2024-07-08T10:25:57Z</time>
      </trkpt>
      <trkpt lat="44.56114" lon="6.30797">
        <ele>1341</ele>
        <time>2024-07-08T10:26:01Z</time>
      </trkpt>
      <trkpt lat="44.56114" lon="6.30794">
        <ele>1342</ele>
        <time>2024-07-08T10:26:05Z</time>
      </trkpt>
      <trkpt lat="44.56118" lon="6.30795">
        <ele>1343</ele>
        <time>2024-07-08T10:26:08Z</time>
      </trkpt>
      <trkpt lat="44.56123" lon="6.30796">
        <ele>1344</ele>
        <time>2024-07-08T10:26:11Z</time>
      </trkpt>
      <trkpt lat="44.56125" lon="6.30795">
        <ele>1345</ele>
        <time>2024-07-08T10:26:16Z</time>
      </trkpt>
      <trkpt lat="44.56127" lon="6.30793">
        <ele>1345</ele>
        <time>2024-07-08T10:26:19Z</time>
      </trkpt>
      <trkpt lat="44.5613" lon="6.3079">
        <ele>1345</ele>
        <time>2024-07-08T10:26:22Z</time>
      </trkpt>
      <trkpt lat="44.56132" lon="6.30789">
        <ele>1345</ele>
        <time>2024-07-08T10:26:25Z</time>
      </trkpt>
      <trkpt lat="44.56135" lon="6.30787">
        <ele>1347</ele>
        <time>2024-07-08T10:26:28Z</time>
      </trkpt>
      <trkpt lat="44.56137" lon="6.30786">
        <ele>1338</ele>
        <time>2024-07-08T10:26:34Z</time>
      </trkpt>
      <trkpt lat="44.56141" lon="6.30786">
        <ele>1348</ele>
        <time>2024-07-08T10:26:37Z</time>
      </trkpt>
      <trkpt lat="44.56142" lon="6.30786">
        <ele>1345</ele>
        <time>2024-07-08T10:26:40Z</time>
      </trkpt>
      <trkpt lat="44.56145" lon="6.30785">
        <ele>1348</ele>
        <time>2024-07-08T10:26:43Z</time>
      </trkpt>
      <trkpt lat="44.56147" lon="6.30784">
        <ele>1349</ele>
        <time>2024-07-08T10:26:46Z</time>
      </trkpt>
      <trkpt lat="44.5615" lon="6.30784">
        <ele>1342</ele>
        <time>2024-07-08T10:26:51Z</time>
      </trkpt>
      <trkpt lat="44.56152" lon="6.30783">
        <ele>1350</ele>
        <time>2024-07-08T10:26:55Z</time>
      </trkpt>
      <trkpt lat="44.56154" lon="6.30782">
        <ele>1351</ele>
        <time>2024-07-08T10:26:58Z</time>
      </trkpt>
      <trkpt lat="44.56157" lon="6.30781">
        <ele>1352</ele>
        <time>2024-07-08T10:27:02Z</time>
      </trkpt>
      <trkpt lat="44.56159" lon="6.30781">
        <ele>1352</ele>
        <time>2024-07-08T10:27:05Z</time>
      </trkpt>
      <trkpt lat="44.56161" lon="6.30781">
        <ele>1338</ele>
        <time>2024-07-08T10:27:09Z</time>
      </trkpt>
      <trkpt lat="44.56163" lon="6.30782">
        <ele>1353</ele>
        <time>2024-07-08T10:27:13Z</time>
      </trkpt>
      <trkpt lat="44.56163" lon="6.30779">
        <ele>1349</ele>
        <time>2024-07-08T10:27:21Z</time>
      </trkpt>
      <trkpt lat="44.56165" lon="6.30778">
        <ele>1357</ele>
        <time>2024-07-08T10:27:28Z</time>
      </trkpt>
      <trkpt lat="44.56169" lon="6.30776">
        <ele>1357</ele>
        <time>2024-07-08T10:27:33Z</time>
      </trkpt>
      <trkpt lat="44.5617" lon="6.3077">
        <ele>1356</ele>
        <time>2024-07-08T10:27:37Z</time>
      </trkpt>
      <trkpt lat="44.56172" lon="6.30767">
        <ele>1359</ele>
        <time>2024-07-08T10:27:45Z</time>
      </trkpt>
      <trkpt lat="44.56175" lon="6.30764">
        <ele>1358</ele>
        <time>2024-07-08T10:27:53Z</time>
      </trkpt>
      <trkpt lat="44.56177" lon="6.30756">
        <ele>1353</ele>
        <time>2024-07-08T10:27:57Z</time>
      </trkpt>
      <trkpt lat="44.56178" lon="6.30749">
        <ele>1358</ele>
        <time>2024-07-08T10:28:01Z</time>
      </trkpt>
      <trkpt lat="44.56187" lon="6.30751">
        <ele>1361</ele>
        <time>2024-07-08T10:28:04Z</time>
      </trkpt>
      <trkpt lat="44.5619" lon="6.30749">
        <ele>1361</ele>
        <time>2024-07-08T10:28:07Z</time>
      </trkpt>
      <trkpt lat="44.56189" lon="6.30756">
        <ele>1361</ele>
        <time>2024-07-08T10:28:11Z</time>
      </trkpt>
      <trkpt lat="44.56192" lon="6.30759">
        <ele>1360</ele>
        <time>2024-07-08T10:28:17Z</time>
      </trkpt>
      <trkpt lat="44.56197" lon="6.30761">
        <ele>1361</ele>
        <time>2024-07-08T10:28:21Z</time>
      </trkpt>
      <trkpt lat="44.56196" lon="6.30759">
        <ele>1363</ele>
        <time>2024-07-08T10:28:26Z</time>
      </trkpt>
      <trkpt lat="44.562" lon="6.30765">
        <ele>1363</ele>
        <time>2024-07-08T10:28:29Z</time>
      </trkpt>
      <trkpt lat="44.56204" lon="6.30763">
        <ele>1363</ele>
        <time>2024-07-08T10:28:31Z</time>
      </trkpt>
      <trkpt lat="44.56207" lon="6.30766">
        <ele>1363</ele>
        <time>2024-07-08T10:28:35Z</time>
      </trkpt>
      <trkpt lat="44.56209" lon="6.30768">
        <ele>1365</ele>
        <time>2024-07-08T10:28:38Z</time>
      </trkpt>
      <trkpt lat="44.56211" lon="6.30769">
        <ele>1366</ele>
        <time>2024-07-08T10:28:41Z</time>
      </trkpt>
      <trkpt lat="44.56214" lon="6.30769">
        <ele>1366</ele>
        <time>2024-07-08T10:28:44Z</time>
      </trkpt>
      <trkpt lat="44.56215" lon="6.30768">
        <ele>1366</ele>
        <time>2024-07-08T10:28:48Z</time>
      </trkpt>
      <trkpt lat="44.56218" lon="6.30768">
        <ele>1373</ele>
        <time>2024-07-08T10:28:53Z</time>
      </trkpt>
      <trkpt lat="44.5622" lon="6.30769">
        <ele>1367</ele>
        <time>2024-07-08T10:28:57Z</time>
      </trkpt>
      <trkpt lat="44.56223" lon="6.3077">
        <ele>1374</ele>
        <time>2024-07-08T10:29:05Z</time>
      </trkpt>
      <trkpt lat="44.56225" lon="6.30771">
        <ele>1374</ele>
        <time>2024-07-08T10:29:11Z</time>
      </trkpt>
      <trkpt lat="44.56231" lon="6.3077">
        <ele>1370</ele>
        <time>2024-07-08T10:29:14Z</time>
      </trkpt>
      <trkpt lat="44.56233" lon="6.3077">
        <ele>1373</ele>
        <time>2024-07-08T10:29:17Z</time>
      </trkpt>
      <trkpt lat="44.56236" lon="6.30769">
        <ele>1373</ele>
        <time>2024-07-08T10:29:21Z</time>
      </trkpt>
      <trkpt lat="44.56238" lon="6.30768">
        <ele>1372</ele>
        <time>2024-07-08T10:29:25Z</time>
      </trkpt>
      <trkpt lat="44.5624" lon="6.30765">
        <ele>1371</ele>
        <time>2024-07-08T10:29:29Z</time>
      </trkpt>
      <trkpt lat="44.56245" lon="6.30759">
        <ele>1372</ele>
        <time>2024-07-08T10:29:35Z</time>
      </trkpt>
      <trkpt lat="44.56249" lon="6.30749">
        <ele>1374</ele>
        <time>2024-07-08T10:29:39Z</time>
      </trkpt>
      <trkpt lat="44.56252" lon="6.30746">
        <ele>1375</ele>
        <time>2024-07-08T10:29:45Z</time>
      </trkpt>
      <trkpt lat="44.5625" lon="6.3076">
        <ele>1375</ele>
        <time>2024-07-08T10:29:48Z</time>
      </trkpt>
      <trkpt lat="44.56247" lon="6.30745">
        <ele>1377</ele>
        <time>2024-07-08T10:29:51Z</time>
      </trkpt>
      <trkpt lat="44.56247" lon="6.30742">
        <ele>1377</ele>
        <time>2024-07-08T10:29:53Z</time>
      </trkpt>
      <trkpt lat="44.56249" lon="6.30741">
        <ele>1377</ele>
        <time>2024-07-08T10:30:01Z</time>
      </trkpt>
      <trkpt lat="44.56252" lon="6.30744">
        <ele>1380</ele>
        <time>2024-07-08T10:30:11Z</time>
      </trkpt>
      <trkpt lat="44.56258" lon="6.30749">
        <ele>1381</ele>
        <time>2024-07-08T10:30:15Z</time>
      </trkpt>
      <trkpt lat="44.5626" lon="6.30751">
        <ele>1380</ele>
        <time>2024-07-08T10:30:18Z</time>
      </trkpt>
      <trkpt lat="44.56262" lon="6.30752">
        <ele>1381</ele>
        <time>2024-07-08T10:30:21Z</time>
      </trkpt>
      <trkpt lat="44.56263" lon="6.30754">
        <ele>1383</ele>
        <time>2024-07-08T10:30:24Z</time>
      </trkpt>
      <trkpt lat="44.56265" lon="6.30757">
        <ele>1384</ele>
        <time>2024-07-08T10:30:35Z</time>
      </trkpt>
      <trkpt lat="44.56268" lon="6.30758">
        <ele>1383</ele>
        <time>2024-07-08T10:30:38Z</time>
      </trkpt>
      <trkpt lat="44.56273" lon="6.30759">
        <ele>1384</ele>
        <time>2024-07-08T10:30:41Z</time>
      </trkpt>
      <trkpt lat="44.56275" lon="6.30759">
        <ele>1385</ele>
        <time>2024-07-08T10:30:44Z</time>
      </trkpt>
      <trkpt lat="44.56276" lon="6.30758">
        <ele>1387</ele>
        <time>2024-07-08T10:30:59Z</time>
      </trkpt>
      <trkpt lat="44.56278" lon="6.30759">
        <ele>1387</ele>
        <time>2024-07-08T10:31:03Z</time>
      </trkpt>
      <trkpt lat="44.5628" lon="6.30761">
        <ele>1391</ele>
        <time>2024-07-08T10:31:08Z</time>
      </trkpt>
      <trkpt lat="44.56282" lon="6.30763">
        <ele>1387</ele>
        <time>2024-07-08T10:31:11Z</time>
      </trkpt>
      <trkpt lat="44.56283" lon="6.30761">
        <ele>1389</ele>
        <time>2024-07-08T10:31:14Z</time>
      </trkpt>
      <trkpt lat="44.56285" lon="6.30758">
        <ele>1388</ele>
        <time>2024-07-08T10:31:17Z</time>
      </trkpt>
      <trkpt lat="44.56288" lon="6.30756">
        <ele>1395</ele>
        <time>2024-07-08T10:31:20Z</time>
      </trkpt>
      <trkpt lat="44.56292" lon="6.30754">
        <ele>1391</ele>
        <time>2024-07-08T10:31:23Z</time>
      </trkpt>
      <trkpt lat="44.56294" lon="6.30753">
        <ele>1391</ele>
        <time>2024-07-08T10:31:26Z</time>
      </trkpt>
      <trkpt lat="44.56296" lon="6.30752">
        <ele>1390</ele>
        <time>2024-07-08T10:31:29Z</time>
      </trkpt>
      <trkpt lat="44.56299" lon="6.30752">
        <ele>1391</ele>
        <time>2024-07-08T10:31:32Z</time>
      </trkpt>
      <trkpt lat="44.563" lon="6.30751">
        <ele>1391</ele>
        <time>2024-07-08T10:31:36Z</time>
      </trkpt>
      <trkpt lat="44.56302" lon="6.3075">
        <ele>1392</ele>
        <time>2024-07-08T10:31:43Z</time>
      </trkpt>
      <trkpt lat="44.56304" lon="6.30749">
        <ele>1400</ele>
        <time>2024-07-08T10:31:49Z</time>
      </trkpt>
      <trkpt lat="44.56306" lon="6.30749">
        <ele>1397</ele>
        <time>2024-07-08T10:31:57Z</time>
      </trkpt>
      <trkpt lat="44.56308" lon="6.3075">
        <ele>1397</ele>
        <time>2024-07-08T10:32:05Z</time>
      </trkpt>
      <trkpt lat="44.5631" lon="6.30749">
        <ele>1399</ele>
        <time>2024-07-08T10:32:08Z</time>
      </trkpt>
      <trkpt lat="44.56312" lon="6.30747">
        <ele>1399</ele>
        <time>2024-07-08T10:32:11Z</time>
      </trkpt>
      <trkpt lat="44.56315" lon="6.30746">
        <ele>1400</ele>
        <time>2024-07-08T10:32:14Z</time>
      </trkpt>
      <trkpt lat="44.56318" lon="6.30746">
        <ele>1400</ele>
        <time>2024-07-08T10:32:17Z</time>
      </trkpt>
      <trkpt lat="44.5632" lon="6.30749">
        <ele>1401</ele>
        <time>2024-07-08T10:32:20Z</time>
      </trkpt>
      <trkpt lat="44.5632" lon="6.30752">
        <ele>1401</ele>
        <time>2024-07-08T10:32:23Z</time>
      </trkpt>
      <trkpt lat="44.5632" lon="6.30756">
        <ele>1401</ele>
        <time>2024-07-08T10:32:26Z</time>
      </trkpt>
      <trkpt lat="44.5632" lon="6.30759">
        <ele>1401</ele>
        <time>2024-07-08T10:32:29Z</time>
      </trkpt>
      <trkpt lat="44.56321" lon="6.30761">
        <ele>1402</ele>
        <time>2024-07-08T10:32:32Z</time>
      </trkpt>
      <trkpt lat="44.56322" lon="6.30764">
        <ele>1403</ele>
        <time>2024-07-08T10:32:36Z</time>
      </trkpt>
      <trkpt lat="44.56323" lon="6.30768">
        <ele>1404</ele>
        <time>2024-07-08T10:32:39Z</time>
      </trkpt>
      <trkpt lat="44.56323" lon="6.30771">
        <ele>1403</ele>
        <time>2024-07-08T10:32:42Z</time>
      </trkpt>
      <trkpt lat="44.56324" lon="6.30773">
        <ele>1405</ele>
        <time>2024-07-08T10:32:45Z</time>
      </trkpt>
      <trkpt lat="44.56325" lon="6.30776">
        <ele>1410</ele>
        <time>2024-07-08T10:32:49Z</time>
      </trkpt>
      <trkpt lat="44.56327" lon="6.30775">
        <ele>1405</ele>
        <time>2024-07-08T10:32:52Z</time>
      </trkpt>
      <trkpt lat="44.56328" lon="6.30777">
        <ele>1407</ele>
        <time>2024-07-08T10:33:03Z</time>
      </trkpt>
      <trkpt lat="44.56329" lon="6.30779">
        <ele>1408</ele>
        <time>2024-07-08T10:33:10Z</time>
      </trkpt>
      <trkpt lat="44.56328" lon="6.30781">
        <ele>1408</ele>
        <time>2024-07-08T10:33:15Z</time>
      </trkpt>
      <trkpt lat="44.5633" lon="6.30789">
        <ele>1409</ele>
        <time>2024-07-08T10:33:18Z</time>
      </trkpt>
      <trkpt lat="44.56332" lon="6.30796">
        <ele>1409</ele>
        <time>2024-07-08T10:33:21Z</time>
      </trkpt>
      <trkpt lat="44.56333" lon="6.30802">
        <ele>1409</ele>
        <time>2024-07-08T10:33:24Z</time>
      </trkpt>
      <trkpt lat="44.56334" lon="6.30807">
        <ele>1410</ele>
        <time>2024-07-08T10:33:27Z</time>
      </trkpt>
      <trkpt lat="44.56336" lon="6.30809">
        <ele>1408</ele>
        <time>2024-07-08T10:33:30Z</time>
      </trkpt>
      <trkpt lat="44.56337" lon="6.30813">
        <ele>1412</ele>
        <time>2024-07-08T10:33:33Z</time>
      </trkpt>
      <trkpt lat="44.56337" lon="6.30816">
        <ele>1412</ele>
        <time>2024-07-08T10:33:36Z</time>
      </trkpt>
      <trkpt lat="44.56338" lon="6.30821">
        <ele>1411</ele>
        <time>2024-07-08T10:33:44Z</time>
      </trkpt>
      <trkpt lat="44.56336" lon="6.30823">
        <ele>1413</ele>
        <time>2024-07-08T10:33:50Z</time>
      </trkpt>
      <trkpt lat="44.56338" lon="6.30828">
        <ele>1413</ele>
        <time>2024-07-08T10:33:56Z</time>
      </trkpt>
      <trkpt lat="44.56345" lon="6.30837">
        <ele>1416</ele>
        <time>2024-07-08T10:34:02Z</time>
      </trkpt>
      <trkpt lat="44.56348" lon="6.30841">
        <ele>1416</ele>
        <time>2024-07-08T10:34:08Z</time>
      </trkpt>
      <trkpt lat="44.56351" lon="6.30839">
        <ele>1417</ele>
        <time>2024-07-08T10:34:14Z</time>
      </trkpt>
      <trkpt lat="44.56358" lon="6.30837">
        <ele>1412</ele>
        <time>2024-07-08T10:34:20Z</time>
      </trkpt>
      <trkpt lat="44.56358" lon="6.30839">
        <ele>1419</ele>
        <time>2024-07-08T10:34:23Z</time>
      </trkpt>
      <trkpt lat="44.56359" lon="6.30842">
        <ele>1420</ele>
        <time>2024-07-08T10:34:26Z</time>
      </trkpt>
      <trkpt lat="44.5636" lon="6.30846">
        <ele>1420</ele>
        <time>2024-07-08T10:34:32Z</time>
      </trkpt>
      <trkpt lat="44.56356" lon="6.30843">
        <ele>1421</ele>
        <time>2024-07-08T10:34:35Z</time>
      </trkpt>
      <trkpt lat="44.56355" lon="6.30842">
        <ele>1423</ele>
        <time>2024-07-08T10:34:38Z</time>
      </trkpt>
      <trkpt lat="44.56358" lon="6.30843">
        <ele>1423</ele>
        <time>2024-07-08T10:34:41Z</time>
      </trkpt>
      <trkpt lat="44.56363" lon="6.30845">
        <ele>1422</ele>
        <time>2024-07-08T10:34:46Z</time>
      </trkpt>
      <trkpt lat="44.56368" lon="6.30849">
        <ele>1424</ele>
        <time>2024-07-08T10:34:49Z</time>
      </trkpt>
      <trkpt lat="44.5637" lon="6.30852">
        <ele>1424</ele>
        <time>2024-07-08T10:34:53Z</time>
      </trkpt>
      <trkpt lat="44.5637" lon="6.30849">
        <ele>1424</ele>
        <time>2024-07-08T10:35:04Z</time>
      </trkpt>
      <trkpt lat="44.56368" lon="6.30844">
        <ele>1424</ele>
        <time>2024-07-08T10:35:07Z</time>
      </trkpt>
      <trkpt lat="44.56367" lon="6.30839">
        <ele>1424</ele>
        <time>2024-07-08T10:35:11Z</time>
      </trkpt>
      <trkpt lat="44.56365" lon="6.30837">
        <ele>1424</ele>
        <time>2024-07-08T10:35:13Z</time>
      </trkpt>
      <trkpt lat="44.56363" lon="6.30833">
        <ele>1422</ele>
        <time>2024-07-08T10:35:17Z</time>
      </trkpt>
      <trkpt lat="44.56365" lon="6.30827">
        <ele>1423</ele>
        <time>2024-07-08T10:35:19Z</time>
      </trkpt>
      <trkpt lat="44.56363" lon="6.30821">
        <ele>1423</ele>
        <time>2024-07-08T10:35:23Z</time>
      </trkpt>
      <trkpt lat="44.56366" lon="6.30815">
        <ele>1424</ele>
        <time>2024-07-08T10:35:25Z</time>
      </trkpt>
      <trkpt lat="44.56366" lon="6.30809">
        <ele>1422</ele>
        <time>2024-07-08T10:35:28Z</time>
      </trkpt>
      <trkpt lat="44.56364" lon="6.30805">
        <ele>1421</ele>
        <time>2024-07-08T10:35:31Z</time>
      </trkpt>
      <trkpt lat="44.56362" lon="6.30799">
        <ele>1421</ele>
        <time>2024-07-08T10:35:34Z</time>
      </trkpt>
      <trkpt lat="44.56361" lon="6.30795">
        <ele>1421</ele>
        <time>2024-07-08T10:35:36Z</time>
      </trkpt>
      <trkpt lat="44.56381" lon="6.30799">
        <ele>1420</ele>
        <time>2024-07-08T10:35:39Z</time>
      </trkpt>
      <trkpt lat="44.56382" lon="6.30789">
        <ele>1419</ele>
        <time>2024-07-08T10:35:43Z</time>
      </trkpt>
      <trkpt lat="44.56381" lon="6.30784">
        <ele>1420</ele>
        <time>2024-07-08T10:35:45Z</time>
      </trkpt>
      <trkpt lat="44.56381" lon="6.3078">
        <ele>1420</ele>
        <time>2024-07-08T10:35:48Z</time>
      </trkpt>
      <trkpt lat="44.56385" lon="6.30774">
        <ele>1420</ele>
        <time>2024-07-08T10:35:51Z</time>
      </trkpt>
      <trkpt lat="44.56386" lon="6.30767">
        <ele>1420</ele>
        <time>2024-07-08T10:35:55Z</time>
      </trkpt>
      <trkpt lat="44.56389" lon="6.30763">
        <ele>1418</ele>
        <time>2024-07-08T10:35:57Z</time>
      </trkpt>
      <trkpt lat="44.56391" lon="6.30759">
        <ele>1418</ele>
        <time>2024-07-08T10:36:01Z</time>
      </trkpt>
      <trkpt lat="44.56392" lon="6.30756">
        <ele>1417</ele>
        <time>2024-07-08T10:36:03Z</time>
      </trkpt>
      <trkpt lat="44.56394" lon="6.30751">
        <ele>1417</ele>
        <time>2024-07-08T10:36:07Z</time>
      </trkpt>
      <trkpt lat="44.56393" lon="6.30747">
        <ele>1417</ele>
        <time>2024-07-08T10:36:09Z</time>
      </trkpt>
      <trkpt lat="44.56394" lon="6.30742">
        <ele>1417</ele>
        <time>2024-07-08T10:36:12Z</time>
      </trkpt>
      <trkpt lat="44.56394" lon="6.30739">
        <ele>1417</ele>
        <time>2024-07-08T10:36:15Z</time>
      </trkpt>
      <trkpt lat="44.56394" lon="6.30734">
        <ele>1417</ele>
        <time>2024-07-08T10:36:18Z</time>
      </trkpt>
      <trkpt lat="44.56394" lon="6.3073">
        <ele>1415</ele>
        <time>2024-07-08T10:36:21Z</time>
      </trkpt>
      <trkpt lat="44.56393" lon="6.30725">
        <ele>1415</ele>
        <time>2024-07-08T10:36:24Z</time>
      </trkpt>
      <trkpt lat="44.56394" lon="6.30721">
        <ele>1411</ele>
        <time>2024-07-08T10:36:27Z</time>
      </trkpt>
      <trkpt lat="44.56396" lon="6.30714">
        <ele>1414</ele>
        <time>2024-07-08T10:36:31Z</time>
      </trkpt>
      <trkpt lat="44.56397" lon="6.30709">
        <ele>1413</ele>
        <time>2024-07-08T10:36:35Z</time>
      </trkpt>
      <trkpt lat="44.56397" lon="6.30703">
        <ele>1412</ele>
        <time>2024-07-08T10:36:39Z</time>
      </trkpt>
      <trkpt lat="44.56397" lon="6.30697">
        <ele>1412</ele>
        <time>2024-07-08T10:36:42Z</time>
      </trkpt>
      <trkpt lat="44.56396" lon="6.3069">
        <ele>1411</ele>
        <time>2024-07-08T10:36:45Z</time>
      </trkpt>
      <trkpt lat="44.56394" lon="6.30682">
        <ele>1411</ele>
        <time>2024-07-08T10:36:49Z</time>
      </trkpt>
      <trkpt lat="44.56395" lon="6.30673">
        <ele>1410</ele>
        <time>2024-07-08T10:36:53Z</time>
      </trkpt>
      <trkpt lat="44.56397" lon="6.30665">
        <ele>1412</ele>
        <time>2024-07-08T10:36:59Z</time>
      </trkpt>
      <trkpt lat="44.56397" lon="6.30662">
        <ele>1411</ele>
        <time>2024-07-08T10:37:03Z</time>
      </trkpt>
      <trkpt lat="44.56399" lon="6.30664">
        <ele>1408</ele>
        <time>2024-07-08T10:37:07Z</time>
      </trkpt>
      <trkpt lat="44.56407" lon="6.30652">
        <ele>1413</ele>
        <time>2024-07-08T10:37:10Z</time>
      </trkpt>
      <trkpt lat="44.56412" lon="6.3065">
        <ele>1407</ele>
        <time>2024-07-08T10:37:13Z</time>
      </trkpt>
      <trkpt lat="44.56415" lon="6.30647">
        <ele>1406</ele>
        <time>2024-07-08T10:37:17Z</time>
      </trkpt>
      <trkpt lat="44.56417" lon="6.30642">
        <ele>1407</ele>
        <time>2024-07-08T10:37:19Z</time>
      </trkpt>
      <trkpt lat="44.56419" lon="6.3064">
        <ele>1406</ele>
        <time>2024-07-08T10:37:22Z</time>
      </trkpt>
      <trkpt lat="44.56423" lon="6.30636">
        <ele>1406</ele>
        <time>2024-07-08T10:37:25Z</time>
      </trkpt>
      <trkpt lat="44.56426" lon="6.30632">
        <ele>1405</ele>
        <time>2024-07-08T10:37:27Z</time>
      </trkpt>
      <trkpt lat="44.56429" lon="6.3063">
        <ele>1407</ele>
        <time>2024-07-08T10:37:30Z</time>
      </trkpt>
      <trkpt lat="44.56431" lon="6.30624">
        <ele>1409</ele>
        <time>2024-07-08T10:37:33Z</time>
      </trkpt>
      <trkpt lat="44.56433" lon="6.3062">
        <ele>1406</ele>
        <time>2024-07-08T10:37:36Z</time>
      </trkpt>
      <trkpt lat="44.56436" lon="6.30615">
        <ele>1407</ele>
        <time>2024-07-08T10:37:39Z</time>
      </trkpt>
      <trkpt lat="44.56437" lon="6.3061">
        <ele>1406</ele>
        <time>2024-07-08T10:37:42Z</time>
      </trkpt>
      <trkpt lat="44.56438" lon="6.30606">
        <ele>1408</ele>
        <time>2024-07-08T10:37:45Z</time>
      </trkpt>
      <trkpt lat="44.5644" lon="6.30601">
        <ele>1406</ele>
        <time>2024-07-08T10:37:49Z</time>
      </trkpt>
      <trkpt lat="44.56441" lon="6.30597">
        <ele>1406</ele>
        <time>2024-07-08T10:37:52Z</time>
      </trkpt>
      <trkpt lat="44.56441" lon="6.30593">
        <ele>1407</ele>
        <time>2024-07-08T10:37:55Z</time>
      </trkpt>
      <trkpt lat="44.56443" lon="6.30591">
        <ele>1405</ele>
        <time>2024-07-08T10:37:58Z</time>
      </trkpt>
      <trkpt lat="44.56444" lon="6.30588">
        <ele>1407</ele>
        <time>2024-07-08T10:38:02Z</time>
      </trkpt>
      <trkpt lat="44.56445" lon="6.30585">
        <ele>1409</ele>
        <time>2024-07-08T10:38:04Z</time>
      </trkpt>
      <trkpt lat="44.56448" lon="6.30582">
        <ele>1410</ele>
        <time>2024-07-08T10:38:07Z</time>
      </trkpt>
      <trkpt lat="44.56449" lon="6.30578">
        <ele>1409</ele>
        <time>2024-07-08T10:38:10Z</time>
      </trkpt>
      <trkpt lat="44.56451" lon="6.30574">
        <ele>1409</ele>
        <time>2024-07-08T10:38:13Z</time>
      </trkpt>
      <trkpt lat="44.56452" lon="6.30571">
        <ele>1409</ele>
        <time>2024-07-08T10:38:16Z</time>
      </trkpt>
      <trkpt lat="44.56455" lon="6.30566">
        <ele>1410</ele>
        <time>2024-07-08T10:38:21Z</time>
      </trkpt>
      <trkpt lat="44.56461" lon="6.30564">
        <ele>1411</ele>
        <time>2024-07-08T10:38:25Z</time>
      </trkpt>
      <trkpt lat="44.5646" lon="6.30566">
        <ele>1411</ele>
        <time>2024-07-08T10:38:31Z</time>
      </trkpt>
      <trkpt lat="44.5647" lon="6.30554">
        <ele>1412</ele>
        <time>2024-07-08T10:38:34Z</time>
      </trkpt>
      <trkpt lat="44.56471" lon="6.30549">
        <ele>1412</ele>
        <time>2024-07-08T10:38:37Z</time>
      </trkpt>
      <trkpt lat="44.56474" lon="6.30547">
        <ele>1412</ele>
        <time>2024-07-08T10:38:40Z</time>
      </trkpt>
      <trkpt lat="44.56477" lon="6.30546">
        <ele>1413</ele>
        <time>2024-07-08T10:38:44Z</time>
      </trkpt>
      <trkpt lat="44.56479" lon="6.30542">
        <ele>1413</ele>
        <time>2024-07-08T10:38:47Z</time>
      </trkpt>
      <trkpt lat="44.56481" lon="6.30539">
        <ele>1413</ele>
        <time>2024-07-08T10:38:50Z</time>
      </trkpt>
      <trkpt lat="44.5648" lon="6.30542">
        <ele>1413</ele>
        <time>2024-07-08T10:38:56Z</time>
      </trkpt>
      <trkpt lat="44.56483" lon="6.30542">
        <ele>1417</ele>
        <time>2024-07-08T10:39:03Z</time>
      </trkpt>
      <trkpt lat="44.56488" lon="6.30546">
        <ele>1416</ele>
        <time>2024-07-08T10:39:08Z</time>
      </trkpt>
      <trkpt lat="44.56489" lon="6.30549">
        <ele>1417</ele>
        <time>2024-07-08T10:39:12Z</time>
      </trkpt>
      <trkpt lat="44.56495" lon="6.30546">
        <ele>1412</ele>
        <time>2024-07-08T10:39:15Z</time>
      </trkpt>
      <trkpt lat="44.565" lon="6.30542">
        <ele>1417</ele>
        <time>2024-07-08T10:39:18Z</time>
      </trkpt>
      <trkpt lat="44.56505" lon="6.30535">
        <ele>1421</ele>
        <time>2024-07-08T10:39:21Z</time>
      </trkpt>
      <trkpt lat="44.56511" lon="6.30529">
        <ele>1417</ele>
        <time>2024-07-08T10:39:24Z</time>
      </trkpt>
      <trkpt lat="44.56514" lon="6.30527">
        <ele>1415</ele>
        <time>2024-07-08T10:39:27Z</time>
      </trkpt>
      <trkpt lat="44.56516" lon="6.30526">
        <ele>1418</ele>
        <time>2024-07-08T10:39:31Z</time>
      </trkpt>
      <trkpt lat="44.56519" lon="6.30521">
        <ele>1417</ele>
        <time>2024-07-08T10:39:34Z</time>
      </trkpt>
      <trkpt lat="44.5652" lon="6.30518">
        <ele>1419</ele>
        <time>2024-07-08T10:39:37Z</time>
      </trkpt>
      <trkpt lat="44.56529" lon="6.30517">
        <ele>1419</ele>
        <time>2024-07-08T10:39:40Z</time>
      </trkpt>
      <trkpt lat="44.56531" lon="6.30515">
        <ele>1419</ele>
        <time>2024-07-08T10:39:43Z</time>
      </trkpt>
      <trkpt lat="44.56533" lon="6.30514">
        <ele>1425</ele>
        <time>2024-07-08T10:39:46Z</time>
      </trkpt>
      <trkpt lat="44.56538" lon="6.3051">
        <ele>1421</ele>
        <time>2024-07-08T10:39:51Z</time>
      </trkpt>
      <trkpt lat="44.56541" lon="6.30513">
        <ele>1421</ele>
        <time>2024-07-08T10:39:55Z</time>
      </trkpt>
      <trkpt lat="44.56545" lon="6.30512">
        <ele>1422</ele>
        <time>2024-07-08T10:40:01Z</time>
      </trkpt>
      <trkpt lat="44.56547" lon="6.30509">
        <ele>1421</ele>
        <time>2024-07-08T10:40:05Z</time>
      </trkpt>
      <trkpt lat="44.5655" lon="6.30503">
        <ele>1422</ele>
        <time>2024-07-08T10:40:08Z</time>
      </trkpt>
      <trkpt lat="44.56553" lon="6.30498">
        <ele>1424</ele>
        <time>2024-07-08T10:40:12Z</time>
      </trkpt>
      <trkpt lat="44.56556" lon="6.30492">
        <ele>1424</ele>
        <time>2024-07-08T10:40:17Z</time>
      </trkpt>
      <trkpt lat="44.56557" lon="6.30488">
        <ele>1423</ele>
        <time>2024-07-08T10:40:21Z</time>
      </trkpt>
      <trkpt lat="44.56556" lon="6.30486">
        <ele>1423</ele>
        <time>2024-07-08T10:40:25Z</time>
      </trkpt>
      <trkpt lat="44.56559" lon="6.3048">
        <ele>1424</ele>
        <time>2024-07-08T10:40:28Z</time>
      </trkpt>
      <trkpt lat="44.56561" lon="6.30477">
        <ele>1425</ele>
        <time>2024-07-08T10:40:31Z</time>
      </trkpt>
      <trkpt lat="44.56563" lon="6.30475">
        <ele>1426</ele>
        <time>2024-07-08T10:40:34Z</time>
      </trkpt>
      <trkpt lat="44.56565" lon="6.3047">
        <ele>1427</ele>
        <time>2024-07-08T10:40:37Z</time>
      </trkpt>
      <trkpt lat="44.56566" lon="6.30465">
        <ele>1426</ele>
        <time>2024-07-08T10:40:40Z</time>
      </trkpt>
      <trkpt lat="44.56567" lon="6.30462">
        <ele>1428</ele>
        <time>2024-07-08T10:40:43Z</time>
      </trkpt>
      <trkpt lat="44.56569" lon="6.30457">
        <ele>1427</ele>
        <time>2024-07-08T10:40:46Z</time>
      </trkpt>
      <trkpt lat="44.56571" lon="6.30451">
        <ele>1428</ele>
        <time>2024-07-08T10:40:49Z</time>
      </trkpt>
      <trkpt lat="44.56572" lon="6.30448">
        <ele>1428</ele>
        <time>2024-07-08T10:40:52Z</time>
      </trkpt>
      <trkpt lat="44.56572" lon="6.30443">
        <ele>1428</ele>
        <time>2024-07-08T10:40:55Z</time>
      </trkpt>
      <trkpt lat="44.56573" lon="6.30439">
        <ele>1428</ele>
        <time>2024-07-08T10:40:58Z</time>
      </trkpt>
      <trkpt lat="44.56573" lon="6.30435">
        <ele>1428</ele>
        <time>2024-07-08T10:41:01Z</time>
      </trkpt>
      <trkpt lat="44.56575" lon="6.30432">
        <ele>1429</ele>
        <time>2024-07-08T10:41:04Z</time>
      </trkpt>
      <trkpt lat="44.56576" lon="6.3043">
        <ele>1429</ele>
        <time>2024-07-08T10:41:07Z</time>
      </trkpt>
      <trkpt lat="44.56578" lon="6.30427">
        <ele>1429</ele>
        <time>2024-07-08T10:41:10Z</time>
      </trkpt>
      <trkpt lat="44.56579" lon="6.30426">
        <ele>1429</ele>
        <time>2024-07-08T10:41:13Z</time>
      </trkpt>
      <trkpt lat="44.56582" lon="6.30424">
        <ele>1430</ele>
        <time>2024-07-08T10:41:17Z</time>
      </trkpt>
      <trkpt lat="44.56586" lon="6.30428">
        <ele>1432</ele>
        <time>2024-07-08T10:41:21Z</time>
      </trkpt>
      <trkpt lat="44.56588" lon="6.30427">
        <ele>1433</ele>
        <time>2024-07-08T10:41:25Z</time>
      </trkpt>
      <trkpt lat="44.5659" lon="6.30426">
        <ele>1433</ele>
        <time>2024-07-08T10:41:28Z</time>
      </trkpt>
      <trkpt lat="44.56593" lon="6.30424">
        <ele>1433</ele>
        <time>2024-07-08T10:41:31Z</time>
      </trkpt>
      <trkpt lat="44.56595" lon="6.30423">
        <ele>1434</ele>
        <time>2024-07-08T10:41:34Z</time>
      </trkpt>
      <trkpt lat="44.56598" lon="6.30421">
        <ele>1436</ele>
        <time>2024-07-08T10:41:37Z</time>
      </trkpt>
      <trkpt lat="44.566" lon="6.30419">
        <ele>1434</ele>
        <time>2024-07-08T10:41:40Z</time>
      </trkpt>
      <trkpt lat="44.56602" lon="6.30417">
        <ele>1435</ele>
        <time>2024-07-08T10:41:43Z</time>
      </trkpt>
      <trkpt lat="44.56604" lon="6.30417">
        <ele>1435</ele>
        <time>2024-07-08T10:41:46Z</time>
      </trkpt>
      <trkpt lat="44.56607" lon="6.30417">
        <ele>1435</ele>
        <time>2024-07-08T10:41:49Z</time>
      </trkpt>
      <trkpt lat="44.56609" lon="6.30414">
        <ele>1437</ele>
        <time>2024-07-08T10:41:53Z</time>
      </trkpt>
      <trkpt lat="44.5661" lon="6.30412">
        <ele>1438</ele>
        <time>2024-07-08T10:41:57Z</time>
      </trkpt>
      <trkpt lat="44.56612" lon="6.30411">
        <ele>1435</ele>
        <time>2024-07-08T10:42:00Z</time>
      </trkpt>
      <trkpt lat="44.56615" lon="6.30409">
        <ele>1438</ele>
        <time>2024-07-08T10:42:04Z</time>
      </trkpt>
      <trkpt lat="44.56615" lon="6.30406">
        <ele>1440</ele>
        <time>2024-07-08T10:42:09Z</time>
      </trkpt>
      <trkpt lat="44.56618" lon="6.30402">
        <ele>1436</ele>
        <time>2024-07-08T10:42:12Z</time>
      </trkpt>
      <trkpt lat="44.56622" lon="6.30395">
        <ele>1441</ele>
        <time>2024-07-08T10:42:17Z</time>
      </trkpt>
      <trkpt lat="44.56629" lon="6.30394">
        <ele>1441</ele>
        <time>2024-07-08T10:42:21Z</time>
      </trkpt>
      <trkpt lat="44.56631" lon="6.30388">
        <ele>1441</ele>
        <time>2024-07-08T10:42:27Z</time>
      </trkpt>
      <trkpt lat="44.56631" lon="6.30383">
        <ele>1442</ele>
        <time>2024-07-08T10:42:31Z</time>
      </trkpt>
      <trkpt lat="44.56634" lon="6.30377">
        <ele>1442</ele>
        <time>2024-07-08T10:42:35Z</time>
      </trkpt>
      <trkpt lat="44.56635" lon="6.30374">
        <ele>1442</ele>
        <time>2024-07-08T10:42:38Z</time>
      </trkpt>
      <trkpt lat="44.56637" lon="6.30368">
        <ele>1442</ele>
        <time>2024-07-08T10:42:43Z</time>
      </trkpt>
      <trkpt lat="44.56637" lon="6.30362">
        <ele>1443</ele>
        <time>2024-07-08T10:42:47Z</time>
      </trkpt>
      <trkpt lat="44.56637" lon="6.30359">
        <ele>1445</ele>
        <time>2024-07-08T10:42:51Z</time>
      </trkpt>
      <trkpt lat="44.56641" lon="6.30354">
        <ele>1445</ele>
        <time>2024-07-08T10:42:54Z</time>
      </trkpt>
      <trkpt lat="44.56642" lon="6.30349">
        <ele>1445</ele>
        <time>2024-07-08T10:42:57Z</time>
      </trkpt>
      <trkpt lat="44.56643" lon="6.30346">
        <ele>1446</ele>
        <time>2024-07-08T10:43:00Z</time>
      </trkpt>
      <trkpt lat="44.56644" lon="6.30341">
        <ele>1446</ele>
        <time>2024-07-08T10:43:03Z</time>
      </trkpt>
      <trkpt lat="44.56644" lon="6.30338">
        <ele>1447</ele>
        <time>2024-07-08T10:43:06Z</time>
      </trkpt>
      <trkpt lat="44.56646" lon="6.30333">
        <ele>1448</ele>
        <time>2024-07-08T10:43:09Z</time>
      </trkpt>
      <trkpt lat="44.56647" lon="6.30331">
        <ele>1448</ele>
        <time>2024-07-08T10:43:12Z</time>
      </trkpt>
      <trkpt lat="44.56648" lon="6.30326">
        <ele>1449</ele>
        <time>2024-07-08T10:43:15Z</time>
      </trkpt>
      <trkpt lat="44.56649" lon="6.30322">
        <ele>1448</ele>
        <time>2024-07-08T10:43:18Z</time>
      </trkpt>
      <trkpt lat="44.56651" lon="6.30318">
        <ele>1449</ele>
        <time>2024-07-08T10:43:21Z</time>
      </trkpt>
      <trkpt lat="44.56652" lon="6.30316">
        <ele>1449</ele>
        <time>2024-07-08T10:43:24Z</time>
      </trkpt>
      <trkpt lat="44.56654" lon="6.30315">
        <ele>1451</ele>
        <time>2024-07-08T10:43:27Z</time>
      </trkpt>
      <trkpt lat="44.56657" lon="6.30315">
        <ele>1451</ele>
        <time>2024-07-08T10:43:29Z</time>
      </trkpt>
      <trkpt lat="44.5666" lon="6.30318">
        <ele>1452</ele>
        <time>2024-07-08T10:43:32Z</time>
      </trkpt>
      <trkpt lat="44.56663" lon="6.30321">
        <ele>1452</ele>
        <time>2024-07-08T10:43:36Z</time>
      </trkpt>
      <trkpt lat="44.56663" lon="6.30326">
        <ele>1451</ele>
        <time>2024-07-08T10:43:39Z</time>
      </trkpt>
      <trkpt lat="44.56661" lon="6.30335">
        <ele>1451</ele>
        <time>2024-07-08T10:43:43Z</time>
      </trkpt>
      <trkpt lat="44.56657" lon="6.30342">
        <ele>1453</ele>
        <time>2024-07-08T10:43:47Z</time>
      </trkpt>
      <trkpt lat="44.56657" lon="6.30348">
        <ele>1454</ele>
        <time>2024-07-08T10:43:53Z</time>
      </trkpt>
      <trkpt lat="44.56655" lon="6.30354">
        <ele>1453</ele>
        <time>2024-07-08T10:43:56Z</time>
      </trkpt>
      <trkpt lat="44.56656" lon="6.30358">
        <ele>1455</ele>
        <time>2024-07-08T10:43:59Z</time>
      </trkpt>
      <trkpt lat="44.56656" lon="6.30361">
        <ele>1455</ele>
        <time>2024-07-08T10:44:02Z</time>
      </trkpt>
      <trkpt lat="44.56659" lon="6.30367">
        <ele>1454</ele>
        <time>2024-07-08T10:44:07Z</time>
      </trkpt>
      <trkpt lat="44.56661" lon="6.30377">
        <ele>1456</ele>
        <time>2024-07-08T10:44:11Z</time>
      </trkpt>
      <trkpt lat="44.5666" lon="6.3038">
        <ele>1458</ele>
        <time>2024-07-08T10:44:17Z</time>
      </trkpt>
      <trkpt lat="44.56662" lon="6.30387">
        <ele>1457</ele>
        <time>2024-07-08T10:44:20Z</time>
      </trkpt>
      <trkpt lat="44.56662" lon="6.30391">
        <ele>1457</ele>
        <time>2024-07-08T10:44:23Z</time>
      </trkpt>
      <trkpt lat="44.56663" lon="6.30394">
        <ele>1456</ele>
        <time>2024-07-08T10:44:26Z</time>
      </trkpt>
      <trkpt lat="44.56664" lon="6.304">
        <ele>1458</ele>
        <time>2024-07-08T10:44:31Z</time>
      </trkpt>
      <trkpt lat="44.5666" lon="6.30402">
        <ele>1460</ele>
        <time>2024-07-08T10:44:35Z</time>
      </trkpt>
      <trkpt lat="44.56659" lon="6.30403">
        <ele>1457</ele>
        <time>2024-07-08T10:44:38Z</time>
      </trkpt>
      <trkpt lat="44.56655" lon="6.30404">
        <ele>1462</ele>
        <time>2024-07-08T10:44:41Z</time>
      </trkpt>
      <trkpt lat="44.56656" lon="6.30412">
        <ele>1461</ele>
        <time>2024-07-08T10:44:44Z</time>
      </trkpt>
      <trkpt lat="44.56654" lon="6.30413">
        <ele>1461</ele>
        <time>2024-07-08T10:44:47Z</time>
      </trkpt>
      <trkpt lat="44.56654" lon="6.30415">
        <ele>1461</ele>
        <time>2024-07-08T10:44:50Z</time>
      </trkpt>
      <trkpt lat="44.56652" lon="6.30418">
        <ele>1462</ele>
        <time>2024-07-08T10:44:54Z</time>
      </trkpt>
      <trkpt lat="44.56653" lon="6.3042">
        <ele>1462</ele>
        <time>2024-07-08T10:44:57Z</time>
      </trkpt>
      <trkpt lat="44.56652" lon="6.30427">
        <ele>1462</ele>
        <time>2024-07-08T10:45:03Z</time>
      </trkpt>
      <trkpt lat="44.56657" lon="6.30433">
        <ele>1463</ele>
        <time>2024-07-08T10:45:07Z</time>
      </trkpt>
      <trkpt lat="44.56658" lon="6.30436">
        <ele>1464</ele>
        <time>2024-07-08T10:45:12Z</time>
      </trkpt>
      <trkpt lat="44.56661" lon="6.30444">
        <ele>1449</ele>
        <time>2024-07-08T10:45:15Z</time>
      </trkpt>
      <trkpt lat="44.56661" lon="6.30449">
        <ele>1463</ele>
        <time>2024-07-08T10:45:18Z</time>
      </trkpt>
      <trkpt lat="44.56661" lon="6.30452">
        <ele>1452</ele>
        <time>2024-07-08T10:45:21Z</time>
      </trkpt>
      <trkpt lat="44.56659" lon="6.30458">
        <ele>1465</ele>
        <time>2024-07-08T10:45:27Z</time>
      </trkpt>
      <trkpt lat="44.56657" lon="6.30459">
        <ele>1466</ele>
        <time>2024-07-08T10:45:31Z</time>
      </trkpt>
      <trkpt lat="44.56655" lon="6.30462">
        <ele>1467</ele>
        <time>2024-07-08T10:45:37Z</time>
      </trkpt>
      <trkpt lat="44.56654" lon="6.30468">
        <ele>1467</ele>
        <time>2024-07-08T10:45:40Z</time>
      </trkpt>
      <trkpt lat="44.56654" lon="6.30472">
        <ele>1467</ele>
        <time>2024-07-08T10:45:43Z</time>
      </trkpt>
      <trkpt lat="44.56652" lon="6.30474">
        <ele>1468</ele>
        <time>2024-07-08T10:45:46Z</time>
      </trkpt>
      <trkpt lat="44.5665" lon="6.30476">
        <ele>1468</ele>
        <time>2024-07-08T10:45:50Z</time>
      </trkpt>
      <trkpt lat="44.56647" lon="6.30476">
        <ele>1470</ele>
        <time>2024-07-08T10:45:53Z</time>
      </trkpt>
      <trkpt lat="44.56646" lon="6.3048">
        <ele>1469</ele>
        <time>2024-07-08T10:45:56Z</time>
      </trkpt>
      <trkpt lat="44.56644" lon="6.30478">
        <ele>1469</ele>
        <time>2024-07-08T10:45:59Z</time>
      </trkpt>
      <trkpt lat="44.56645" lon="6.30482">
        <ele>1469</ele>
        <time>2024-07-08T10:46:02Z</time>
      </trkpt>
      <trkpt lat="44.56648" lon="6.30491">
        <ele>1471</ele>
        <time>2024-07-08T10:46:05Z</time>
      </trkpt>
      <trkpt lat="44.56648" lon="6.30494">
        <ele>1451</ele>
        <time>2024-07-08T10:46:09Z</time>
      </trkpt>
      <trkpt lat="44.5665" lon="6.30503">
        <ele>1472</ele>
        <time>2024-07-08T10:46:15Z</time>
      </trkpt>
      <trkpt lat="44.56645" lon="6.30508">
        <ele>1472</ele>
        <time>2024-07-08T10:46:19Z</time>
      </trkpt>
      <trkpt lat="44.56644" lon="6.3051">
        <ele>1472</ele>
        <time>2024-07-08T10:46:22Z</time>
      </trkpt>
      <trkpt lat="44.56641" lon="6.30514">
        <ele>1473</ele>
        <time>2024-07-08T10:46:25Z</time>
      </trkpt>
      <trkpt lat="44.5664" lon="6.30517">
        <ele>1474</ele>
        <time>2024-07-08T10:46:28Z</time>
      </trkpt>
      <trkpt lat="44.56639" lon="6.30519">
        <ele>1474</ele>
        <time>2024-07-08T10:46:31Z</time>
      </trkpt>
      <trkpt lat="44.56639" lon="6.30522">
        <ele>1475</ele>
        <time>2024-07-08T10:46:34Z</time>
      </trkpt>
      <trkpt lat="44.5664" lon="6.30531">
        <ele>1475</ele>
        <time>2024-07-08T10:46:39Z</time>
      </trkpt>
      <trkpt lat="44.56639" lon="6.30533">
        <ele>1474</ele>
        <time>2024-07-08T10:46:45Z</time>
      </trkpt>
      <trkpt lat="44.56638" lon="6.30535">
        <ele>1476</ele>
        <time>2024-07-08T10:46:48Z</time>
      </trkpt>
      <trkpt lat="44.56638" lon="6.30544">
        <ele>1461</ele>
        <time>2024-07-08T10:46:51Z</time>
      </trkpt>
      <trkpt lat="44.5664" lon="6.30548">
        <ele>1477</ele>
        <time>2024-07-08T10:46:56Z</time>
      </trkpt>
      <trkpt lat="44.5664" lon="6.30554">
        <ele>1478</ele>
        <time>2024-07-08T10:46:59Z</time>
      </trkpt>
      <trkpt lat="44.56643" lon="6.30555">
        <ele>1478</ele>
        <time>2024-07-08T10:47:03Z</time>
      </trkpt>
      <trkpt lat="44.56642" lon="6.30553">
        <ele>1479</ele>
        <time>2024-07-08T10:47:10Z</time>
      </trkpt>
      <trkpt lat="44.56642" lon="6.30549">
        <ele>1479</ele>
        <time>2024-07-08T10:47:14Z</time>
      </trkpt>
      <trkpt lat="44.56647" lon="6.30542">
        <ele>1481</ele>
        <time>2024-07-08T10:47:16Z</time>
      </trkpt>
      <trkpt lat="44.56649" lon="6.30539">
        <ele>1481</ele>
        <time>2024-07-08T10:47:20Z</time>
      </trkpt>
      <trkpt lat="44.56652" lon="6.30536">
        <ele>1478</ele>
        <time>2024-07-08T10:47:23Z</time>
      </trkpt>
      <trkpt lat="44.56655" lon="6.30532">
        <ele>1479</ele>
        <time>2024-07-08T10:47:25Z</time>
      </trkpt>
      <trkpt lat="44.56659" lon="6.3053">
        <ele>1480</ele>
        <time>2024-07-08T10:47:28Z</time>
      </trkpt>
      <trkpt lat="44.56662" lon="6.30528">
        <ele>1481</ele>
        <time>2024-07-08T10:47:31Z</time>
      </trkpt>
      <trkpt lat="44.56665" lon="6.30527">
        <ele>1484</ele>
        <time>2024-07-08T10:47:34Z</time>
      </trkpt>
      <trkpt lat="44.56668" lon="6.30524">
        <ele>1483</ele>
        <time>2024-07-08T10:47:37Z</time>
      </trkpt>
      <trkpt lat="44.56671" lon="6.30523">
        <ele>1483</ele>
        <time>2024-07-08T10:47:40Z</time>
      </trkpt>
      <trkpt lat="44.56674" lon="6.30519">
        <ele>1484</ele>
        <time>2024-07-08T10:47:44Z</time>
      </trkpt>
      <trkpt lat="44.56676" lon="6.30517">
        <ele>1483</ele>
        <time>2024-07-08T10:47:46Z</time>
      </trkpt>
      <trkpt lat="44.56679" lon="6.30513">
        <ele>1483</ele>
        <time>2024-07-08T10:47:50Z</time>
      </trkpt>
      <trkpt lat="44.56681" lon="6.30508">
        <ele>1484</ele>
        <time>2024-07-08T10:47:53Z</time>
      </trkpt>
      <trkpt lat="44.56683" lon="6.30505">
        <ele>1484</ele>
        <time>2024-07-08T10:47:55Z</time>
      </trkpt>
      <trkpt lat="44.56687" lon="6.30503">
        <ele>1484</ele>
        <time>2024-07-08T10:47:58Z</time>
      </trkpt>
      <trkpt lat="44.5669" lon="6.305">
        <ele>1485</ele>
        <time>2024-07-08T10:48:01Z</time>
      </trkpt>
      <trkpt lat="44.56693" lon="6.30497">
        <ele>1486</ele>
        <time>2024-07-08T10:48:03Z</time>
      </trkpt>
      <trkpt lat="44.56696" lon="6.30494">
        <ele>1484</ele>
        <time>2024-07-08T10:48:06Z</time>
      </trkpt>
      <trkpt lat="44.56698" lon="6.30492">
        <ele>1485</ele>
        <time>2024-07-08T10:48:09Z</time>
      </trkpt>
      <trkpt lat="44.567" lon="6.30488">
        <ele>1485</ele>
        <time>2024-07-08T10:48:12Z</time>
      </trkpt>
      <trkpt lat="44.56702" lon="6.30485">
        <ele>1485</ele>
        <time>2024-07-08T10:48:15Z</time>
      </trkpt>
      <trkpt lat="44.56704" lon="6.30482">
        <ele>1487</ele>
        <time>2024-07-08T10:48:23Z</time>
      </trkpt>
      <trkpt lat="44.56706" lon="6.30479">
        <ele>1487</ele>
        <time>2024-07-08T10:48:27Z</time>
      </trkpt>
      <trkpt lat="44.56708" lon="6.30476">
        <ele>1487</ele>
        <time>2024-07-08T10:48:30Z</time>
      </trkpt>
      <trkpt lat="44.56711" lon="6.30471">
        <ele>1488</ele>
        <time>2024-07-08T10:48:33Z</time>
      </trkpt>
      <trkpt lat="44.56713" lon="6.30468">
        <ele>1489</ele>
        <time>2024-07-08T10:48:36Z</time>
      </trkpt>
      <trkpt lat="44.56713" lon="6.30464">
        <ele>1489</ele>
        <time>2024-07-08T10:48:39Z</time>
      </trkpt>
      <trkpt lat="44.56713" lon="6.30462">
        <ele>1490</ele>
        <time>2024-07-08T10:48:42Z</time>
      </trkpt>
      <trkpt lat="44.56714" lon="6.30458">
        <ele>1489</ele>
        <time>2024-07-08T10:48:47Z</time>
      </trkpt>
      <trkpt lat="44.56719" lon="6.30456">
        <ele>1490</ele>
        <time>2024-07-08T10:48:51Z</time>
      </trkpt>
      <trkpt lat="44.56724" lon="6.30455">
        <ele>1492</ele>
        <time>2024-07-08T10:48:58Z</time>
      </trkpt>
      <trkpt lat="44.56727" lon="6.30457">
        <ele>1492</ele>
        <time>2024-07-08T10:49:00Z</time>
      </trkpt>
      <trkpt lat="44.56729" lon="6.30459">
        <ele>1493</ele>
        <time>2024-07-08T10:49:03Z</time>
      </trkpt>
      <trkpt lat="44.56731" lon="6.30462">
        <ele>1493</ele>
        <time>2024-07-08T10:49:06Z</time>
      </trkpt>
      <trkpt lat="44.56733" lon="6.30466">
        <ele>1494</ele>
        <time>2024-07-08T10:49:11Z</time>
      </trkpt>
      <trkpt lat="44.56735" lon="6.3046">
        <ele>1493</ele>
        <time>2024-07-08T10:49:15Z</time>
      </trkpt>
      <trkpt lat="44.56739" lon="6.30461">
        <ele>1495</ele>
        <time>2024-07-08T10:49:21Z</time>
      </trkpt>
      <trkpt lat="44.56743" lon="6.30456">
        <ele>1495</ele>
        <time>2024-07-08T10:49:24Z</time>
      </trkpt>
      <trkpt lat="44.56745" lon="6.30454">
        <ele>1495</ele>
        <time>2024-07-08T10:49:28Z</time>
      </trkpt>
      <trkpt lat="44.56748" lon="6.30453">
        <ele>1497</ele>
        <time>2024-07-08T10:49:31Z</time>
      </trkpt>
      <trkpt lat="44.5675" lon="6.30451">
        <ele>1497</ele>
        <time>2024-07-08T10:49:35Z</time>
      </trkpt>
      <trkpt lat="44.5675" lon="6.30445">
        <ele>1497</ele>
        <time>2024-07-08T10:49:39Z</time>
      </trkpt>
      <trkpt lat="44.56753" lon="6.30443">
        <ele>1499</ele>
        <time>2024-07-08T10:49:45Z</time>
      </trkpt>
      <trkpt lat="44.56754" lon="6.30435">
        <ele>1499</ele>
        <time>2024-07-08T10:49:48Z</time>
      </trkpt>
      <trkpt lat="44.56755" lon="6.30432">
        <ele>1499</ele>
        <time>2024-07-08T10:49:51Z</time>
      </trkpt>
      <trkpt lat="44.56756" lon="6.30429">
        <ele>1500</ele>
        <time>2024-07-08T10:49:54Z</time>
      </trkpt>
      <trkpt lat="44.56757" lon="6.30423">
        <ele>1500</ele>
        <time>2024-07-08T10:49:59Z</time>
      </trkpt>
      <trkpt lat="44.56756" lon="6.30415">
        <ele>1501</ele>
        <time>2024-07-08T10:50:03Z</time>
      </trkpt>
      <trkpt lat="44.56754" lon="6.30416">
        <ele>1502</ele>
        <time>2024-07-08T10:50:07Z</time>
      </trkpt>
      <trkpt lat="44.56758" lon="6.30406">
        <ele>1502</ele>
        <time>2024-07-08T10:50:10Z</time>
      </trkpt>
      <trkpt lat="44.56759" lon="6.30401">
        <ele>1503</ele>
        <time>2024-07-08T10:50:13Z</time>
      </trkpt>
      <trkpt lat="44.56759" lon="6.30398">
        <ele>1496</ele>
        <time>2024-07-08T10:50:17Z</time>
      </trkpt>
      <trkpt lat="44.56761" lon="6.30394">
        <ele>1504</ele>
        <time>2024-07-08T10:50:28Z</time>
      </trkpt>
      <trkpt lat="44.56763" lon="6.30391">
        <ele>1506</ele>
        <time>2024-07-08T10:50:31Z</time>
      </trkpt>
      <trkpt lat="44.56764" lon="6.30389">
        <ele>1502</ele>
        <time>2024-07-08T10:50:35Z</time>
      </trkpt>
      <trkpt lat="44.56768" lon="6.30381">
        <ele>1506</ele>
        <time>2024-07-08T10:50:39Z</time>
      </trkpt>
      <trkpt lat="44.5677" lon="6.30378">
        <ele>1505</ele>
        <time>2024-07-08T10:50:42Z</time>
      </trkpt>
      <trkpt lat="44.56772" lon="6.30377">
        <ele>1507</ele>
        <time>2024-07-08T10:50:45Z</time>
      </trkpt>
      <trkpt lat="44.56775" lon="6.30374">
        <ele>1505</ele>
        <time>2024-07-08T10:50:48Z</time>
      </trkpt>
      <trkpt lat="44.56776" lon="6.30372">
        <ele>1509</ele>
        <time>2024-07-08T10:50:54Z</time>
      </trkpt>
      <trkpt lat="44.56777" lon="6.30369">
        <ele>1508</ele>
        <time>2024-07-08T10:50:59Z</time>
      </trkpt>
      <trkpt lat="44.56782" lon="6.30363">
        <ele>1510</ele>
        <time>2024-07-08T10:51:03Z</time>
      </trkpt>
      <trkpt lat="44.56785" lon="6.30359">
        <ele>1511</ele>
        <time>2024-07-08T10:51:09Z</time>
      </trkpt>
      <trkpt lat="44.56788" lon="6.30353">
        <ele>1511</ele>
        <time>2024-07-08T10:51:13Z</time>
      </trkpt>
      <trkpt lat="44.56785" lon="6.3035">
        <ele>1512</ele>
        <time>2024-07-08T10:51:17Z</time>
      </trkpt>
      <trkpt lat="44.56792" lon="6.30345">
        <ele>1512</ele>
        <time>2024-07-08T10:51:20Z</time>
      </trkpt>
      <trkpt lat="44.56794" lon="6.30343">
        <ele>1512</ele>
        <time>2024-07-08T10:51:23Z</time>
      </trkpt>
      <trkpt lat="44.56796" lon="6.30341">
        <ele>1511</ele>
        <time>2024-07-08T10:51:26Z</time>
      </trkpt>
      <trkpt lat="44.56798" lon="6.30339">
        <ele>1512</ele>
        <time>2024-07-08T10:51:29Z</time>
      </trkpt>
      <trkpt lat="44.56799" lon="6.30332">
        <ele>1515</ele>
        <time>2024-07-08T10:51:31Z</time>
      </trkpt>
      <trkpt lat="44.56802" lon="6.30326">
        <ele>1515</ele>
        <time>2024-07-08T10:51:34Z</time>
      </trkpt>
      <trkpt lat="44.56803" lon="6.30322">
        <ele>1514</ele>
        <time>2024-07-08T10:51:37Z</time>
      </trkpt>
      <trkpt lat="44.56805" lon="6.30319">
        <ele>1515</ele>
        <time>2024-07-08T10:51:41Z</time>
      </trkpt>
      <trkpt lat="44.56806" lon="6.30314">
        <ele>1515</ele>
        <time>2024-07-08T10:51:44Z</time>
      </trkpt>
      <trkpt lat="44.56805" lon="6.30309">
        <ele>1515</ele>
        <time>2024-07-08T10:51:47Z</time>
      </trkpt>
      <trkpt lat="44.56804" lon="6.30307">
        <ele>1515</ele>
        <time>2024-07-08T10:51:50Z</time>
      </trkpt>
      <trkpt lat="44.56807" lon="6.30298">
        <ele>1515</ele>
        <time>2024-07-08T10:51:53Z</time>
      </trkpt>
      <trkpt lat="44.56807" lon="6.30295">
        <ele>1515</ele>
        <time>2024-07-08T10:51:56Z</time>
      </trkpt>
      <trkpt lat="44.56807" lon="6.3029">
        <ele>1517</ele>
        <time>2024-07-08T10:52:00Z</time>
      </trkpt>
      <trkpt lat="44.56807" lon="6.30294">
        <ele>1520</ele>
        <time>2024-07-08T10:52:02Z</time>
      </trkpt>
      <trkpt lat="44.56807" lon="6.30291">
        <ele>1517</ele>
        <time>2024-07-08T10:52:08Z</time>
      </trkpt>
      <trkpt lat="44.56808" lon="6.30286">
        <ele>1517</ele>
        <time>2024-07-08T10:52:11Z</time>
      </trkpt>
      <trkpt lat="44.5681" lon="6.30283">
        <ele>1519</ele>
        <time>2024-07-08T10:52:17Z</time>
      </trkpt>
      <trkpt lat="44.56813" lon="6.30279">
        <ele>1520</ele>
        <time>2024-07-08T10:52:22Z</time>
      </trkpt>
      <trkpt lat="44.56828" lon="6.30287">
        <ele>1519</ele>
        <time>2024-07-08T10:52:27Z</time>
      </trkpt>
      <trkpt lat="44.56829" lon="6.30288">
        <ele>1521</ele>
        <time>2024-07-08T10:52:30Z</time>
      </trkpt>
      <trkpt lat="44.56825" lon="6.30293">
        <ele>1522</ele>
        <time>2024-07-08T10:52:33Z</time>
      </trkpt>
      <trkpt lat="44.56828" lon="6.30295">
        <ele>1522</ele>
        <time>2024-07-08T10:52:37Z</time>
      </trkpt>
      <trkpt lat="44.5683" lon="6.303">
        <ele>1523</ele>
        <time>2024-07-08T10:52:43Z</time>
      </trkpt>
      <trkpt lat="44.56832" lon="6.30303">
        <ele>1524</ele>
        <time>2024-07-08T10:52:47Z</time>
      </trkpt>
      <trkpt lat="44.56834" lon="6.30304">
        <ele>1524</ele>
        <time>2024-07-08T10:52:52Z</time>
      </trkpt>
      <trkpt lat="44.56837" lon="6.30307">
        <ele>1523</ele>
        <time>2024-07-08T10:52:55Z</time>
      </trkpt>
      <trkpt lat="44.5684" lon="6.3031">
        <ele>1523</ele>
        <time>2024-07-08T10:52:58Z</time>
      </trkpt>
      <trkpt lat="44.56842" lon="6.30312">
        <ele>1526</ele>
        <time>2024-07-08T10:53:01Z</time>
      </trkpt>
      <trkpt lat="44.56844" lon="6.30312">
        <ele>1526</ele>
        <time>2024-07-08T10:53:04Z</time>
      </trkpt>
      <trkpt lat="44.56846" lon="6.30315">
        <ele>1526</ele>
        <time>2024-07-08T10:53:07Z</time>
      </trkpt>
      <trkpt lat="44.56849" lon="6.30316">
        <ele>1526</ele>
        <time>2024-07-08T10:53:10Z</time>
      </trkpt>
      <trkpt lat="44.56853" lon="6.30316">
        <ele>1526</ele>
        <time>2024-07-08T10:53:13Z</time>
      </trkpt>
      <trkpt lat="44.56856" lon="6.30317">
        <ele>1526</ele>
        <time>2024-07-08T10:53:16Z</time>
      </trkpt>
      <trkpt lat="44.56858" lon="6.30318">
        <ele>1526</ele>
        <time>2024-07-08T10:53:20Z</time>
      </trkpt>
      <trkpt lat="44.56861" lon="6.30317">
        <ele>1526</ele>
        <time>2024-07-08T10:53:23Z</time>
      </trkpt>
      <trkpt lat="44.56866" lon="6.30318">
        <ele>1527</ele>
        <time>2024-07-08T10:53:26Z</time>
      </trkpt>
      <trkpt lat="44.5687" lon="6.30317">
        <ele>1527</ele>
        <time>2024-07-08T10:53:29Z</time>
      </trkpt>
      <trkpt lat="44.56874" lon="6.30315">
        <ele>1526</ele>
        <time>2024-07-08T10:53:31Z</time>
      </trkpt>
      <trkpt lat="44.56878" lon="6.30313">
        <ele>1526</ele>
        <time>2024-07-08T10:53:35Z</time>
      </trkpt>
      <trkpt lat="44.56884" lon="6.30311">
        <ele>1526</ele>
        <time>2024-07-08T10:53:39Z</time>
      </trkpt>
      <trkpt lat="44.56884" lon="6.30307">
        <ele>1528</ele>
        <time>2024-07-08T10:53:43Z</time>
      </trkpt>
      <trkpt lat="44.56891" lon="6.30304">
        <ele>1526</ele>
        <time>2024-07-08T10:53:46Z</time>
      </trkpt>
      <trkpt lat="44.56895" lon="6.30303">
        <ele>1526</ele>
        <time>2024-07-08T10:53:49Z</time>
      </trkpt>
      <trkpt lat="44.56897" lon="6.30302">
        <ele>1527</ele>
        <time>2024-07-08T10:53:52Z</time>
      </trkpt>
      <trkpt lat="44.569" lon="6.303">
        <ele>1528</ele>
        <time>2024-07-08T10:53:55Z</time>
      </trkpt>
      <trkpt lat="44.56903" lon="6.30299">
        <ele>1528</ele>
        <time>2024-07-08T10:53:58Z</time>
      </trkpt>
      <trkpt lat="44.56906" lon="6.30297">
        <ele>1528</ele>
        <time>2024-07-08T10:54:02Z</time>
      </trkpt>
      <trkpt lat="44.56909" lon="6.30295">
        <ele>1527</ele>
        <time>2024-07-08T10:54:05Z</time>
      </trkpt>
      <trkpt lat="44.56913" lon="6.30292">
        <ele>1528</ele>
        <time>2024-07-08T10:54:09Z</time>
      </trkpt>
      <trkpt lat="44.56916" lon="6.30289">
        <ele>1530</ele>
        <time>2024-07-08T10:54:12Z</time>
      </trkpt>
      <trkpt lat="44.56919" lon="6.30285">
        <ele>1530</ele>
        <time>2024-07-08T10:54:15Z</time>
      </trkpt>
      <trkpt lat="44.56922" lon="6.30281">
        <ele>1533</ele>
        <time>2024-07-08T10:54:18Z</time>
      </trkpt>
      <trkpt lat="44.56924" lon="6.30277">
        <ele>1530</ele>
        <time>2024-07-08T10:54:21Z</time>
      </trkpt>
      <trkpt lat="44.56927" lon="6.30269">
        <ele>1531</ele>
        <time>2024-07-08T10:54:24Z</time>
      </trkpt>
      <trkpt lat="44.56929" lon="6.30264">
        <ele>1531</ele>
        <time>2024-07-08T10:54:27Z</time>
      </trkpt>
      <trkpt lat="44.56931" lon="6.30255">
        <ele>1529</ele>
        <time>2024-07-08T10:54:30Z</time>
      </trkpt>
      <trkpt lat="44.56935" lon="6.30248">
        <ele>1531</ele>
        <time>2024-07-08T10:54:33Z</time>
      </trkpt>
      <trkpt lat="44.56936" lon="6.30246">
        <ele>1531</ele>
        <time>2024-07-08T10:54:36Z</time>
      </trkpt>
      <trkpt lat="44.5694" lon="6.30241">
        <ele>1539</ele>
        <time>2024-07-08T10:54:39Z</time>
      </trkpt>
      <trkpt lat="44.56941" lon="6.30242">
        <ele>1537</ele>
        <time>2024-07-08T10:54:42Z</time>
      </trkpt>
      <trkpt lat="44.56944" lon="6.3024">
        <ele>1539</ele>
        <time>2024-07-08T10:54:45Z</time>
      </trkpt>
      <trkpt lat="44.56947" lon="6.30239">
        <ele>1541</ele>
        <time>2024-07-08T10:54:48Z</time>
      </trkpt>
      <trkpt lat="44.5695" lon="6.30238">
        <ele>1530</ele>
        <time>2024-07-08T10:54:51Z</time>
      </trkpt>
      <trkpt lat="44.56953" lon="6.30238">
        <ele>1530</ele>
        <time>2024-07-08T10:54:54Z</time>
      </trkpt>
      <trkpt lat="44.56955" lon="6.30236">
        <ele>1531</ele>
        <time>2024-07-08T10:54:57Z</time>
      </trkpt>
      <trkpt lat="44.5696" lon="6.30234">
        <ele>1531</ele>
        <time>2024-07-08T10:55:00Z</time>
      </trkpt>
      <trkpt lat="44.56966" lon="6.30234">
        <ele>1530</ele>
        <time>2024-07-08T10:55:05Z</time>
      </trkpt>
      <trkpt lat="44.56965" lon="6.3023">
        <ele>1532</ele>
        <time>2024-07-08T10:55:09Z</time>
      </trkpt>
      <trkpt lat="44.56971" lon="6.30228">
        <ele>1533</ele>
        <time>2024-07-08T10:55:11Z</time>
      </trkpt>
      <trkpt lat="44.56973" lon="6.30226">
        <ele>1533</ele>
        <time>2024-07-08T10:55:14Z</time>
      </trkpt>
      <trkpt lat="44.56974" lon="6.30221">
        <ele>1533</ele>
        <time>2024-07-08T10:55:19Z</time>
      </trkpt>
      <trkpt lat="44.56979" lon="6.30222">
        <ele>1535</ele>
        <time>2024-07-08T10:55:23Z</time>
      </trkpt>
      <trkpt lat="44.56982" lon="6.30218">
        <ele>1535</ele>
        <time>2024-07-08T10:55:27Z</time>
      </trkpt>
      <trkpt lat="44.56986" lon="6.30213">
        <ele>1535</ele>
        <time>2024-07-08T10:55:30Z</time>
      </trkpt>
      <trkpt lat="44.56991" lon="6.30205">
        <ele>1536</ele>
        <time>2024-07-08T10:55:33Z</time>
      </trkpt>
      <trkpt lat="44.56996" lon="6.30201">
        <ele>1536</ele>
        <time>2024-07-08T10:55:37Z</time>
      </trkpt>
      <trkpt lat="44.56998" lon="6.30193">
        <ele>1535</ele>
        <time>2024-07-08T10:55:41Z</time>
      </trkpt>
      <trkpt lat="44.57002" lon="6.30204">
        <ele>1537</ele>
        <time>2024-07-08T10:55:43Z</time>
      </trkpt>
      <trkpt lat="44.57004" lon="6.30205">
        <ele>1535</ele>
        <time>2024-07-08T10:55:46Z</time>
      </trkpt>
      <trkpt lat="44.57009" lon="6.30202">
        <ele>1536</ele>
        <time>2024-07-08T10:55:50Z</time>
      </trkpt>
      <trkpt lat="44.57011" lon="6.30203">
        <ele>1535</ele>
        <time>2024-07-08T10:55:53Z</time>
      </trkpt>
      <trkpt lat="44.57011" lon="6.30198">
        <ele>1536</ele>
        <time>2024-07-08T10:55:56Z</time>
      </trkpt>
      <trkpt lat="44.57015" lon="6.30196">
        <ele>1536</ele>
        <time>2024-07-08T10:55:59Z</time>
      </trkpt>
      <trkpt lat="44.57021" lon="6.30191">
        <ele>1535</ele>
        <time>2024-07-08T10:56:04Z</time>
      </trkpt>
      <trkpt lat="44.57029" lon="6.30193">
        <ele>1536</ele>
        <time>2024-07-08T10:56:07Z</time>
      </trkpt>
      <trkpt lat="44.57031" lon="6.30194">
        <ele>1536</ele>
        <time>2024-07-08T10:56:11Z</time>
      </trkpt>
      <trkpt lat="44.57036" lon="6.30203">
        <ele>1534</ele>
        <time>2024-07-08T10:56:15Z</time>
      </trkpt>
      <trkpt lat="44.57035" lon="6.30205">
        <ele>1533</ele>
        <time>2024-07-08T10:56:19Z</time>
      </trkpt>
      <trkpt lat="44.5704" lon="6.3021">
        <ele>1534</ele>
        <time>2024-07-08T10:56:22Z</time>
      </trkpt>
      <trkpt lat="44.57045" lon="6.3021">
        <ele>1534</ele>
        <time>2024-07-08T10:56:24Z</time>
      </trkpt>
      <trkpt lat="44.57048" lon="6.30211">
        <ele>1535</ele>
        <time>2024-07-08T10:56:31Z</time>
      </trkpt>
      <trkpt lat="44.57056" lon="6.30208">
        <ele>1534</ele>
        <time>2024-07-08T10:56:33Z</time>
      </trkpt>
      <trkpt lat="44.5706" lon="6.30204">
        <ele>1534</ele>
        <time>2024-07-08T10:56:36Z</time>
      </trkpt>
      <trkpt lat="44.57062" lon="6.30199">
        <ele>1534</ele>
        <time>2024-07-08T10:56:39Z</time>
      </trkpt>
      <trkpt lat="44.57063" lon="6.30197">
        <ele>1532</ele>
        <time>2024-07-08T10:56:42Z</time>
      </trkpt>
      <trkpt lat="44.57067" lon="6.30191">
        <ele>1533</ele>
        <time>2024-07-08T10:56:47Z</time>
      </trkpt>
      <trkpt lat="44.57068" lon="6.30179">
        <ele>1531</ele>
        <time>2024-07-08T10:56:51Z</time>
      </trkpt>
      <trkpt lat="44.57067" lon="6.30181">
        <ele>1531</ele>
        <time>2024-07-08T10:56:55Z</time>
      </trkpt>
      <trkpt lat="44.57065" lon="6.30166">
        <ele>1531</ele>
        <time>2024-07-08T10:56:58Z</time>
      </trkpt>
      <trkpt lat="44.57065" lon="6.30153">
        <ele>1530</ele>
        <time>2024-07-08T10:57:01Z</time>
      </trkpt>
      <trkpt lat="44.57066" lon="6.3015">
        <ele>1530</ele>
        <time>2024-07-08T10:57:04Z</time>
      </trkpt>
      <trkpt lat="44.57066" lon="6.30145">
        <ele>1530</ele>
        <time>2024-07-08T10:57:07Z</time>
      </trkpt>
      <trkpt lat="44.57065" lon="6.30143">
        <ele>1530</ele>
        <time>2024-07-08T10:57:11Z</time>
      </trkpt>
      <trkpt lat="44.57067" lon="6.30134">
        <ele>1530</ele>
        <time>2024-07-08T10:57:14Z</time>
      </trkpt>
      <trkpt lat="44.57068" lon="6.30128">
        <ele>1529</ele>
        <time>2024-07-08T10:57:17Z</time>
      </trkpt>
      <trkpt lat="44.57069" lon="6.30123">
        <ele>1530</ele>
        <time>2024-07-08T10:57:20Z</time>
      </trkpt>
      <trkpt lat="44.5707" lon="6.30119">
        <ele>1530</ele>
        <time>2024-07-08T10:57:23Z</time>
      </trkpt>
      <trkpt lat="44.57072" lon="6.30114">
        <ele>1532</ele>
        <time>2024-07-08T10:57:25Z</time>
      </trkpt>
      <trkpt lat="44.57074" lon="6.3011">
        <ele>1532</ele>
        <time>2024-07-08T10:57:28Z</time>
      </trkpt>
      <trkpt lat="44.57076" lon="6.30106">
        <ele>1529</ele>
        <time>2024-07-08T10:57:31Z</time>
      </trkpt>
      <trkpt lat="44.57077" lon="6.30102">
        <ele>1529</ele>
        <time>2024-07-08T10:57:34Z</time>
      </trkpt>
      <trkpt lat="44.57078" lon="6.30097">
        <ele>1531</ele>
        <time>2024-07-08T10:57:36Z</time>
      </trkpt>
      <trkpt lat="44.5708" lon="6.30093">
        <ele>1529</ele>
        <time>2024-07-08T10:57:39Z</time>
      </trkpt>
      <trkpt lat="44.57082" lon="6.30088">
        <ele>1530</ele>
        <time>2024-07-08T10:57:42Z</time>
      </trkpt>
      <trkpt lat="44.57084" lon="6.30085">
        <ele>1530</ele>
        <time>2024-07-08T10:57:45Z</time>
      </trkpt>
      <trkpt lat="44.57086" lon="6.30081">
        <ele>1530</ele>
        <time>2024-07-08T10:57:48Z</time>
      </trkpt>
      <trkpt lat="44.57088" lon="6.30077">
        <ele>1530</ele>
        <time>2024-07-08T10:57:51Z</time>
      </trkpt>
      <trkpt lat="44.57089" lon="6.30072">
        <ele>1531</ele>
        <time>2024-07-08T10:57:55Z</time>
      </trkpt>
      <trkpt lat="44.57091" lon="6.30068">
        <ele>1532</ele>
        <time>2024-07-08T10:57:58Z</time>
      </trkpt>
      <trkpt lat="44.57092" lon="6.30064">
        <ele>1533</ele>
        <time>2024-07-08T10:58:01Z</time>
      </trkpt>
      <trkpt lat="44.57095" lon="6.3006">
        <ele>1533</ele>
        <time>2024-07-08T10:58:04Z</time>
      </trkpt>
      <trkpt lat="44.57097" lon="6.30056">
        <ele>1531</ele>
        <time>2024-07-08T10:58:06Z</time>
      </trkpt>
      <trkpt lat="44.57098" lon="6.30052">
        <ele>1530</ele>
        <time>2024-07-08T10:58:10Z</time>
      </trkpt>
      <trkpt lat="44.57101" lon="6.30048">
        <ele>1531</ele>
        <time>2024-07-08T10:58:12Z</time>
      </trkpt>
      <trkpt lat="44.57103" lon="6.30043">
        <ele>1531</ele>
        <time>2024-07-08T10:58:15Z</time>
      </trkpt>
      <trkpt lat="44.57105" lon="6.30039">
        <ele>1527</ele>
        <time>2024-07-08T10:58:19Z</time>
      </trkpt>
      <trkpt lat="44.57107" lon="6.30035">
        <ele>1530</ele>
        <time>2024-07-08T10:58:21Z</time>
      </trkpt>
      <trkpt lat="44.57109" lon="6.30031">
        <ele>1529</ele>
        <time>2024-07-08T10:58:24Z</time>
      </trkpt>
      <trkpt lat="44.57111" lon="6.30024">
        <ele>1532</ele>
        <time>2024-07-08T10:58:29Z</time>
      </trkpt>
      <trkpt lat="44.57111" lon="6.30017">
        <ele>1532</ele>
        <time>2024-07-08T10:58:33Z</time>
      </trkpt>
      <trkpt lat="44.57113" lon="6.3001">
        <ele>1532</ele>
        <time>2024-07-08T10:58:39Z</time>
      </trkpt>
      <trkpt lat="44.57115" lon="6.30004">
        <ele>1532</ele>
        <time>2024-07-08T10:58:43Z</time>
      </trkpt>
      <trkpt lat="44.57117" lon="6.29999">
        <ele>1533</ele>
        <time>2024-07-08T10:58:47Z</time>
      </trkpt>
      <trkpt lat="44.57118" lon="6.29997">
        <ele>1531</ele>
        <time>2024-07-08T10:58:50Z</time>
      </trkpt>
      <trkpt lat="44.57119" lon="6.29991">
        <ele>1532</ele>
        <time>2024-07-08T10:58:55Z</time>
      </trkpt>
      <trkpt lat="44.57117" lon="6.29989">
        <ele>1534</ele>
        <time>2024-07-08T10:59:03Z</time>
      </trkpt>
      <trkpt lat="44.5712" lon="6.29982">
        <ele>1534</ele>
        <time>2024-07-08T10:59:05Z</time>
      </trkpt>
      <trkpt lat="44.57122" lon="6.29977">
        <ele>1533</ele>
        <time>2024-07-08T10:59:09Z</time>
      </trkpt>
      <trkpt lat="44.57124" lon="6.29972">
        <ele>1534</ele>
        <time>2024-07-08T10:59:13Z</time>
      </trkpt>
      <trkpt lat="44.57129" lon="6.29967">
        <ele>1535</ele>
        <time>2024-07-08T10:59:17Z</time>
      </trkpt>
      <trkpt lat="44.5713" lon="6.29963">
        <ele>1535</ele>
        <time>2024-07-08T10:59:21Z</time>
      </trkpt>
      <trkpt lat="44.57133" lon="6.29958">
        <ele>1536</ele>
        <time>2024-07-08T10:59:24Z</time>
      </trkpt>
      <trkpt lat="44.57135" lon="6.29956">
        <ele>1537</ele>
        <time>2024-07-08T10:59:27Z</time>
      </trkpt>
      <trkpt lat="44.57137" lon="6.29953">
        <ele>1537</ele>
        <time>2024-07-08T10:59:31Z</time>
      </trkpt>
      <trkpt lat="44.57138" lon="6.29949">
        <ele>1538</ele>
        <time>2024-07-08T10:59:33Z</time>
      </trkpt>
      <trkpt lat="44.5714" lon="6.29945">
        <ele>1538</ele>
        <time>2024-07-08T10:59:37Z</time>
      </trkpt>
      <trkpt lat="44.57143" lon="6.29932">
        <ele>1539</ele>
        <time>2024-07-08T10:59:41Z</time>
      </trkpt>
      <trkpt lat="44.57143" lon="6.29929">
        <ele>1540</ele>
        <time>2024-07-08T10:59:44Z</time>
      </trkpt>
      <trkpt lat="44.57144" lon="6.2992">
        <ele>1540</ele>
        <time>2024-07-08T10:59:48Z</time>
      </trkpt>
      <trkpt lat="44.57144" lon="6.29914">
        <ele>1539</ele>
        <time>2024-07-08T10:59:51Z</time>
      </trkpt>
      <trkpt lat="44.57144" lon="6.29911">
        <ele>1539</ele>
        <time>2024-07-08T10:59:53Z</time>
      </trkpt>
      <trkpt lat="44.57147" lon="6.29911">
        <ele>1540</ele>
        <time>2024-07-08T10:59:57Z</time>
      </trkpt>
      <trkpt lat="44.57148" lon="6.29913">
        <ele>1543</ele>
        <time>2024-07-08T11:00:13Z</time>
      </trkpt>
      <trkpt lat="44.57152" lon="6.29913">
        <ele>1542</ele>
        <time>2024-07-08T11:00:16Z</time>
      </trkpt>
      <trkpt lat="44.57155" lon="6.29916">
        <ele>1542</ele>
        <time>2024-07-08T11:00:19Z</time>
      </trkpt>
      <trkpt lat="44.57156" lon="6.29917">
        <ele>1542</ele>
        <time>2024-07-08T11:00:22Z</time>
      </trkpt>
      <trkpt lat="44.57156" lon="6.29914">
        <ele>1543</ele>
        <time>2024-07-08T11:00:37Z</time>
      </trkpt>
      <trkpt lat="44.57154" lon="6.29912">
        <ele>1543</ele>
        <time>2024-07-08T11:00:55Z</time>
      </trkpt>
      <trkpt lat="44.57154" lon="6.29909">
        <ele>1544</ele>
        <time>2024-07-08T11:01:01Z</time>
      </trkpt>
      <trkpt lat="44.57158" lon="6.29912">
        <ele>1545</ele>
        <time>2024-07-08T11:01:07Z</time>
      </trkpt>
      <trkpt lat="44.57164" lon="6.29921">
        <ele>1552</ele>
        <time>2024-07-08T11:01:11Z</time>
      </trkpt>
      <trkpt lat="44.57165" lon="6.29916">
        <ele>1549</ele>
        <time>2024-07-08T11:01:16Z</time>
      </trkpt>
      <trkpt lat="44.57169" lon="6.29913">
        <ele>1546</ele>
        <time>2024-07-08T11:01:20Z</time>
      </trkpt>
      <trkpt lat="44.57172" lon="6.29909">
        <ele>1547</ele>
        <time>2024-07-08T11:01:26Z</time>
      </trkpt>
      <trkpt lat="44.57171" lon="6.29904">
        <ele>1546</ele>
        <time>2024-07-08T11:01:29Z</time>
      </trkpt>
      <trkpt lat="44.5717" lon="6.29901">
        <ele>1546</ele>
        <time>2024-07-08T11:01:32Z</time>
      </trkpt>
      <trkpt lat="44.57176" lon="6.29897">
        <ele>1550</ele>
        <time>2024-07-08T11:01:35Z</time>
      </trkpt>
      <trkpt lat="44.57174" lon="6.29893">
        <ele>1548</ele>
        <time>2024-07-08T11:01:39Z</time>
      </trkpt>
      <trkpt lat="44.57174" lon="6.2989">
        <ele>1548</ele>
        <time>2024-07-08T11:01:42Z</time>
      </trkpt>
      <trkpt lat="44.57175" lon="6.29887">
        <ele>1545</ele>
        <time>2024-07-08T11:01:45Z</time>
      </trkpt>
      <trkpt lat="44.57175" lon="6.29882">
        <ele>1545</ele>
        <time>2024-07-08T11:01:48Z</time>
      </trkpt>
      <trkpt lat="44.57175" lon="6.29878">
        <ele>1543</ele>
        <time>2024-07-08T11:01:51Z</time>
      </trkpt>
      <trkpt lat="44.57179" lon="6.29877">
        <ele>1548</ele>
        <time>2024-07-08T11:01:54Z</time>
      </trkpt>
      <trkpt lat="44.57182" lon="6.29872">
        <ele>1545</ele>
        <time>2024-07-08T11:01:58Z</time>
      </trkpt>
      <trkpt lat="44.57183" lon="6.29864">
        <ele>1545</ele>
        <time>2024-07-08T11:02:00Z</time>
      </trkpt>
      <trkpt lat="44.57181" lon="6.29856">
        <ele>1544</ele>
        <time>2024-07-08T11:02:04Z</time>
      </trkpt>
      <trkpt lat="44.57177" lon="6.29852">
        <ele>1544</ele>
        <time>2024-07-08T11:02:07Z</time>
      </trkpt>
      <trkpt lat="44.57179" lon="6.29854">
        <ele>1548</ele>
        <time>2024-07-08T11:02:10Z</time>
      </trkpt>
      <trkpt lat="44.57177" lon="6.29851">
        <ele>1545</ele>
        <time>2024-07-08T11:02:25Z</time>
      </trkpt>
      <trkpt lat="44.57179" lon="6.2985">
        <ele>1544</ele>
        <time>2024-07-08T11:02:41Z</time>
      </trkpt>
      <trkpt lat="44.57181" lon="6.2985">
        <ele>1545</ele>
        <time>2024-07-08T11:02:44Z</time>
      </trkpt>
      <trkpt lat="44.57184" lon="6.29851">
        <ele>1546</ele>
        <time>2024-07-08T11:02:46Z</time>
      </trkpt>
      <trkpt lat="44.57185" lon="6.29847">
        <ele>1545</ele>
        <time>2024-07-08T11:02:49Z</time>
      </trkpt>
      <trkpt lat="44.57183" lon="6.29847">
        <ele>1546</ele>
        <time>2024-07-08T11:02:54Z</time>
      </trkpt>
      <trkpt lat="44.57184" lon="6.29844">
        <ele>1546</ele>
        <time>2024-07-08T11:03:02Z</time>
      </trkpt>
      <trkpt lat="44.57184" lon="6.29842">
        <ele>1545</ele>
        <time>2024-07-08T11:03:20Z</time>
      </trkpt>
      <trkpt lat="44.57184" lon="6.29844">
        <ele>1548</ele>
        <time>2024-07-08T11:03:23Z</time>
      </trkpt>
      <trkpt lat="44.57183" lon="6.2985">
        <ele>1546</ele>
        <time>2024-07-08T11:03:26Z</time>
      </trkpt>
      <trkpt lat="44.57184" lon="6.29853">
        <ele>1546</ele>
        <time>2024-07-08T11:03:32Z</time>
      </trkpt>
      <trkpt lat="44.5718" lon="6.29848">
        <ele>1547</ele>
        <time>2024-07-08T11:03:42Z</time>
      </trkpt>
      <trkpt lat="44.57182" lon="6.29877">
        <ele>1546</ele>
        <time>2024-07-08T11:03:48Z</time>
      </trkpt>
      <trkpt lat="44.57179" lon="6.29877">
        <ele>1547</ele>
        <time>2024-07-08T11:03:54Z</time>
      </trkpt>
      <trkpt lat="44.57178" lon="6.29868">
        <ele>1549</ele>
        <time>2024-07-08T11:04:00Z</time>
      </trkpt>
      <trkpt lat="44.57182" lon="6.29865">
        <ele>1548</ele>
        <time>2024-07-08T11:04:06Z</time>
      </trkpt>
      <trkpt lat="44.57188" lon="6.29891">
        <ele>1550</ele>
        <time>2024-07-08T11:04:20Z</time>
      </trkpt>
      <trkpt lat="44.57189" lon="6.29894">
        <ele>1550</ele>
        <time>2024-07-08T11:04:24Z</time>
      </trkpt>
      <trkpt lat="44.57187" lon="6.29906">
        <ele>1550</ele>
        <time>2024-07-08T11:04:29Z</time>
      </trkpt>
      <trkpt lat="44.57185" lon="6.29916">
        <ele>1552</ele>
        <time>2024-07-08T11:04:32Z</time>
      </trkpt>
      <trkpt lat="44.57183" lon="6.29921">
        <ele>1552</ele>
        <time>2024-07-08T11:04:36Z</time>
      </trkpt>
      <trkpt lat="44.57187" lon="6.29928">
        <ele>1552</ele>
        <time>2024-07-08T11:04:42Z</time>
      </trkpt>
      <trkpt lat="44.57191" lon="6.29936">
        <ele>1553</ele>
        <time>2024-07-08T11:04:48Z</time>
      </trkpt>
      <trkpt lat="44.57193" lon="6.29944">
        <ele>1553</ele>
        <time>2024-07-08T11:04:54Z</time>
      </trkpt>
      <trkpt lat="44.57194" lon="6.29953">
        <ele>1554</ele>
        <time>2024-07-08T11:05:00Z</time>
      </trkpt>
      <trkpt lat="44.57196" lon="6.29956">
        <ele>1556</ele>
        <time>2024-07-08T11:05:06Z</time>
      </trkpt>
      <trkpt lat="44.57196" lon="6.29962">
        <ele>1559</ele>
        <time>2024-07-08T11:05:12Z</time>
      </trkpt>
      <trkpt lat="44.57198" lon="6.29969">
        <ele>1559</ele>
        <time>2024-07-08T11:05:18Z</time>
      </trkpt>
      <trkpt lat="44.57197" lon="6.29976">
        <ele>1559</ele>
        <time>2024-07-08T11:05:24Z</time>
      </trkpt>
      <trkpt lat="44.57199" lon="6.29971">
        <ele>1560</ele>
        <time>2024-07-08T11:05:32Z</time>
      </trkpt>
      <trkpt lat="44.572" lon="6.29974">
        <ele>1560</ele>
        <time>2024-07-08T11:05:44Z</time>
      </trkpt>
      <trkpt lat="44.57199" lon="6.29982">
        <ele>1561</ele>
        <time>2024-07-08T11:05:50Z</time>
      </trkpt>
      <trkpt lat="44.57199" lon="6.29986">
        <ele>1561</ele>
        <time>2024-07-08T11:05:54Z</time>
      </trkpt>
      <trkpt lat="44.57199" lon="6.29994">
        <ele>1561</ele>
        <time>2024-07-08T11:05:57Z</time>
      </trkpt>
      <trkpt lat="44.57199" lon="6.29997">
        <ele>1561</ele>
        <time>2024-07-08T11:06:00Z</time>
      </trkpt>
      <trkpt lat="44.57202" lon="6.30003">
        <ele>1561</ele>
        <time>2024-07-08T11:06:06Z</time>
      </trkpt>
      <trkpt lat="44.57203" lon="6.3001">
        <ele>1562</ele>
        <time>2024-07-08T11:06:12Z</time>
      </trkpt>
      <trkpt lat="44.57203" lon="6.30014">
        <ele>1564</ele>
        <time>2024-07-08T11:06:15Z</time>
      </trkpt>
      <trkpt lat="44.57204" lon="6.30015">
        <ele>1564</ele>
        <time>2024-07-08T11:06:20Z</time>
      </trkpt>
      <trkpt lat="44.57206" lon="6.30017">
        <ele>1564</ele>
        <time>2024-07-08T11:06:24Z</time>
      </trkpt>
      <trkpt lat="44.57212" lon="6.30018">
        <ele>1564</ele>
        <time>2024-07-08T11:06:30Z</time>
      </trkpt>
      <trkpt lat="44.57216" lon="6.3002">
        <ele>1564</ele>
        <time>2024-07-08T11:06:38Z</time>
      </trkpt>
      <trkpt lat="44.57218" lon="6.30019">
        <ele>1565</ele>
        <time>2024-07-08T11:06:50Z</time>
      </trkpt>
      <trkpt lat="44.5722" lon="6.3002">
        <ele>1565</ele>
        <time>2024-07-08T11:06:56Z</time>
      </trkpt>
      <trkpt lat="44.57223" lon="6.30021">
        <ele>1565</ele>
        <time>2024-07-08T11:06:59Z</time>
      </trkpt>
      <trkpt lat="44.57222" lon="6.30024">
        <ele>1565</ele>
        <time>2024-07-08T11:07:03Z</time>
      </trkpt>
      <trkpt lat="44.5722" lon="6.30026">
        <ele>1566</ele>
        <time>2024-07-08T11:07:10Z</time>
      </trkpt>
      <trkpt lat="44.57223" lon="6.30025">
        <ele>1568</ele>
        <time>2024-07-08T11:07:23Z</time>
      </trkpt>
      <trkpt lat="44.57225" lon="6.30025">
        <ele>1569</ele>
        <time>2024-07-08T11:07:41Z</time>
      </trkpt>
      <trkpt lat="44.57228" lon="6.30026">
        <ele>1569</ele>
        <time>2024-07-08T11:07:50Z</time>
      </trkpt>
      <trkpt lat="44.57236" lon="6.30028">
        <ele>1568</ele>
        <time>2024-07-08T11:07:56Z</time>
      </trkpt>
      <trkpt lat="44.57238" lon="6.30029">
        <ele>1568</ele>
        <time>2024-07-08T11:08:07Z</time>
      </trkpt>
      <trkpt lat="44.57236" lon="6.30027">
        <ele>1568</ele>
        <time>2024-07-08T11:08:17Z</time>
      </trkpt>
      <trkpt lat="44.57234" lon="6.30025">
        <ele>1566</ele>
        <time>2024-07-08T11:08:20Z</time>
      </trkpt>
      <trkpt lat="44.57232" lon="6.30024">
        <ele>1567</ele>
        <time>2024-07-08T11:08:26Z</time>
      </trkpt>
      <trkpt lat="44.5723" lon="6.30024">
        <ele>1568</ele>
        <time>2024-07-08T11:08:35Z</time>
      </trkpt>
      <trkpt lat="44.57231" lon="6.30022">
        <ele>1567</ele>
        <time>2024-07-08T11:08:42Z</time>
      </trkpt>
      <trkpt lat="44.57234" lon="6.3003">
        <ele>1566</ele>
        <time>2024-07-08T11:08:56Z</time>
      </trkpt>
      <trkpt lat="44.57229" lon="6.30017">
        <ele>1575</ele>
        <time>2024-07-08T11:10:06Z</time>
      </trkpt>
      <trkpt lat="44.57229" lon="6.30026">
        <ele>1567</ele>
        <time>2024-07-08T11:10:09Z</time>
      </trkpt>
      <trkpt lat="44.57238" lon="6.30032">
        <ele>1569</ele>
        <time>2024-07-08T11:12:49Z</time>
      </trkpt>
      <trkpt lat="44.57235" lon="6.30023">
        <ele>1568</ele>
        <time>2024-07-08T11:12:57Z</time>
      </trkpt>
      <trkpt lat="44.57228" lon="6.30011">
        <ele>1568</ele>
        <time>2024-07-08T11:13:02Z</time>
      </trkpt>
      <trkpt lat="44.57229" lon="6.30014">
        <ele>1569</ele>
        <time>2024-07-08T11:14:05Z</time>
      </trkpt>
      <trkpt lat="44.5723" lon="6.30015">
        <ele>1570</ele>
        <time>2024-07-08T11:14:31Z</time>
      </trkpt>
      <trkpt lat="44.57232" lon="6.30017">
        <ele>1569</ele>
        <time>2024-07-08T11:15:25Z</time>
      </trkpt>
      <trkpt lat="44.57232" lon="6.3002">
        <ele>1573</ele>
        <time>2024-07-08T11:17:31Z</time>
      </trkpt>
      <trkpt lat="44.57231" lon="6.30022">
        <ele>1574</ele>
        <time>2024-07-08T11:18:55Z</time>
      </trkpt>
      <trkpt lat="44.57232" lon="6.30025">
        <ele>1576</ele>
        <time>2024-07-08T11:21:00Z</time>
      </trkpt>
      <trkpt lat="44.57226" lon="6.3002">
        <ele>1574</ele>
        <time>2024-07-08T11:23:58Z</time>
      </trkpt>
      <trkpt lat="44.5723" lon="6.30023">
        <ele>1574</ele>
        <time>2024-07-08T11:24:03Z</time>
      </trkpt>
      <trkpt lat="44.57232" lon="6.3003">
        <ele>1574</ele>
        <time>2024-07-08T11:24:15Z</time>
      </trkpt>
      <trkpt lat="44.57232" lon="6.30031">
        <ele>1574</ele>
        <time>2024-07-08T11:24:57Z</time>
      </trkpt>
      <trkpt lat="44.5723" lon="6.30028">
        <ele>1574</ele>
        <time>2024-07-08T11:25:06Z</time>
      </trkpt>
      <trkpt lat="44.57229" lon="6.30026">
        <ele>1574</ele>
        <time>2024-07-08T11:25:19Z</time>
      </trkpt>
      <trkpt lat="44.57225" lon="6.30023">
        <ele>1571</ele>
        <time>2024-07-08T11:27:47Z</time>
      </trkpt>
      <trkpt lat="44.5722" lon="6.30022">
        <ele>1568</ele>
        <time>2024-07-08T11:27:53Z</time>
      </trkpt>
      <trkpt lat="44.57213" lon="6.30022">
        <ele>1568</ele>
        <time>2024-07-08T11:28:00Z</time>
      </trkpt>
      <trkpt lat="44.5721" lon="6.30023">
        <ele>1568</ele>
        <time>2024-07-08T11:28:03Z</time>
      </trkpt>
      <trkpt lat="44.57198" lon="6.30021">
        <ele>1567</ele>
        <time>2024-07-08T11:28:09Z</time>
      </trkpt>
      <trkpt lat="44.5719" lon="6.30018">
        <ele>1566</ele>
        <time>2024-07-08T11:28:15Z</time>
      </trkpt>
      <trkpt lat="44.57184" lon="6.30013">
        <ele>1564</ele>
        <time>2024-07-08T11:28:21Z</time>
      </trkpt>
      <trkpt lat="44.5718" lon="6.30007">
        <ele>1563</ele>
        <time>2024-07-08T11:28:27Z</time>
      </trkpt>
      <trkpt lat="44.57178" lon="6.30007">
        <ele>1562</ele>
        <time>2024-07-08T11:28:33Z</time>
      </trkpt>
      <trkpt lat="44.57173" lon="6.30008">
        <ele>1561</ele>
        <time>2024-07-08T11:28:39Z</time>
      </trkpt>
      <trkpt lat="44.57167" lon="6.30008">
        <ele>1560</ele>
        <time>2024-07-08T11:28:45Z</time>
      </trkpt>
      <trkpt lat="44.57162" lon="6.30009">
        <ele>1558</ele>
        <time>2024-07-08T11:28:53Z</time>
      </trkpt>
      <trkpt lat="44.57164" lon="6.3001">
        <ele>1559</ele>
        <time>2024-07-08T11:29:05Z</time>
      </trkpt>
      <trkpt lat="44.57162" lon="6.30007">
        <ele>1559</ele>
        <time>2024-07-08T11:29:11Z</time>
      </trkpt>
      <trkpt lat="44.5716" lon="6.30005">
        <ele>1559</ele>
        <time>2024-07-08T11:29:17Z</time>
      </trkpt>
      <trkpt lat="44.5716" lon="6.30003">
        <ele>1558</ele>
        <time>2024-07-08T11:29:29Z</time>
      </trkpt>
      <trkpt lat="44.5716" lon="6.29999">
        <ele>1557</ele>
        <time>2024-07-08T11:29:35Z</time>
      </trkpt>
      <trkpt lat="44.57159" lon="6.29994">
        <ele>1556</ele>
        <time>2024-07-08T11:29:41Z</time>
      </trkpt>
      <trkpt lat="44.57158" lon="6.29989">
        <ele>1556</ele>
        <time>2024-07-08T11:29:47Z</time>
      </trkpt>
      <trkpt lat="44.57155" lon="6.29983">
        <ele>1556</ele>
        <time>2024-07-08T11:29:51Z</time>
      </trkpt>
      <trkpt lat="44.57155" lon="6.29976">
        <ele>1555</ele>
        <time>2024-07-08T11:29:57Z</time>
      </trkpt>
      <trkpt lat="44.57154" lon="6.29968">
        <ele>1552</ele>
        <time>2024-07-08T11:30:03Z</time>
      </trkpt>
      <trkpt lat="44.57151" lon="6.29959">
        <ele>1552</ele>
        <time>2024-07-08T11:30:09Z</time>
      </trkpt>
      <trkpt lat="44.5715" lon="6.29948">
        <ele>1551</ele>
        <time>2024-07-08T11:30:15Z</time>
      </trkpt>
      <trkpt lat="44.5715" lon="6.29938">
        <ele>1549</ele>
        <time>2024-07-08T11:30:21Z</time>
      </trkpt>
      <trkpt lat="44.5715" lon="6.2993">
        <ele>1549</ele>
        <time>2024-07-08T11:30:27Z</time>
      </trkpt>
      <trkpt lat="44.57149" lon="6.29922">
        <ele>1548</ele>
        <time>2024-07-08T11:30:30Z</time>
      </trkpt>
      <trkpt lat="44.57148" lon="6.29919">
        <ele>1548</ele>
        <time>2024-07-08T11:30:33Z</time>
      </trkpt>
      <trkpt lat="44.57146" lon="6.29914">
        <ele>1548</ele>
        <time>2024-07-08T11:30:39Z</time>
      </trkpt>
      <trkpt lat="44.57142" lon="6.29908">
        <ele>1548</ele>
        <time>2024-07-08T11:30:42Z</time>
      </trkpt>
      <trkpt lat="44.5714" lon="6.29909">
        <ele>1548</ele>
        <time>2024-07-08T11:30:46Z</time>
      </trkpt>
      <trkpt lat="44.57142" lon="6.29909">
        <ele>1547</ele>
        <time>2024-07-08T11:31:17Z</time>
      </trkpt>
      <trkpt lat="44.57138" lon="6.29915">
        <ele>1547</ele>
        <time>2024-07-08T11:31:36Z</time>
      </trkpt>
      <trkpt lat="44.57136" lon="6.2992">
        <ele>1547</ele>
        <time>2024-07-08T11:31:41Z</time>
      </trkpt>
      <trkpt lat="44.57134" lon="6.29935">
        <ele>1547</ele>
        <time>2024-07-08T11:31:47Z</time>
      </trkpt>
      <trkpt lat="44.57136" lon="6.2994">
        <ele>1544</ele>
        <time>2024-07-08T11:31:53Z</time>
      </trkpt>
      <trkpt lat="44.57135" lon="6.29947">
        <ele>1544</ele>
        <time>2024-07-08T11:31:59Z</time>
      </trkpt>
      <trkpt lat="44.57132" lon="6.29956">
        <ele>1543</ele>
        <time>2024-07-08T11:32:05Z</time>
      </trkpt>
      <trkpt lat="44.57127" lon="6.29968">
        <ele>1542</ele>
        <time>2024-07-08T11:32:11Z</time>
      </trkpt>
      <trkpt lat="44.57122" lon="6.29975">
        <ele>1541</ele>
        <time>2024-07-08T11:32:17Z</time>
      </trkpt>
      <trkpt lat="44.5712" lon="6.29992">
        <ele>1541</ele>
        <time>2024-07-08T11:32:23Z</time>
      </trkpt>
      <trkpt lat="44.57116" lon="6.30004">
        <ele>1539</ele>
        <time>2024-07-08T11:32:29Z</time>
      </trkpt>
      <trkpt lat="44.57119" lon="6.30002">
        <ele>1539</ele>
        <time>2024-07-08T11:32:35Z</time>
      </trkpt>
      <trkpt lat="44.57118" lon="6.30009">
        <ele>1539</ele>
        <time>2024-07-08T11:32:41Z</time>
      </trkpt>
      <trkpt lat="44.57116" lon="6.30017">
        <ele>1539</ele>
        <time>2024-07-08T11:32:47Z</time>
      </trkpt>
      <trkpt lat="44.5711" lon="6.30024">
        <ele>1538</ele>
        <time>2024-07-08T11:32:53Z</time>
      </trkpt>
      <trkpt lat="44.57108" lon="6.30031">
        <ele>1538</ele>
        <time>2024-07-08T11:32:59Z</time>
      </trkpt>
      <trkpt lat="44.57106" lon="6.30039">
        <ele>1538</ele>
        <time>2024-07-08T11:33:05Z</time>
      </trkpt>
      <trkpt lat="44.57105" lon="6.30048">
        <ele>1538</ele>
        <time>2024-07-08T11:33:11Z</time>
      </trkpt>
      <trkpt lat="44.57104" lon="6.30054">
        <ele>1539</ele>
        <time>2024-07-08T11:33:17Z</time>
      </trkpt>
      <trkpt lat="44.57099" lon="6.30066">
        <ele>1538</ele>
        <time>2024-07-08T11:33:23Z</time>
      </trkpt>
      <trkpt lat="44.57098" lon="6.30069">
        <ele>1539</ele>
        <time>2024-07-08T11:33:29Z</time>
      </trkpt>
      <trkpt lat="44.57089" lon="6.30083">
        <ele>1538</ele>
        <time>2024-07-08T11:33:32Z</time>
      </trkpt>
      <trkpt lat="44.57088" lon="6.30088">
        <ele>1537</ele>
        <time>2024-07-08T11:33:35Z</time>
      </trkpt>
      <trkpt lat="44.57087" lon="6.30093">
        <ele>1537</ele>
        <time>2024-07-08T11:33:37Z</time>
      </trkpt>
      <trkpt lat="44.57085" lon="6.30098">
        <ele>1537</ele>
        <time>2024-07-08T11:33:41Z</time>
      </trkpt>
      <trkpt lat="44.57083" lon="6.30101">
        <ele>1535</ele>
        <time>2024-07-08T11:33:44Z</time>
      </trkpt>
      <trkpt lat="44.57081" lon="6.30106">
        <ele>1535</ele>
        <time>2024-07-08T11:33:46Z</time>
      </trkpt>
      <trkpt lat="44.57079" lon="6.3011">
        <ele>1535</ele>
        <time>2024-07-08T11:33:49Z</time>
      </trkpt>
      <trkpt lat="44.57078" lon="6.30116">
        <ele>1534</ele>
        <time>2024-07-08T11:33:53Z</time>
      </trkpt>
      <trkpt lat="44.57077" lon="6.30121">
        <ele>1534</ele>
        <time>2024-07-08T11:33:55Z</time>
      </trkpt>
      <trkpt lat="44.57075" lon="6.30125">
        <ele>1534</ele>
        <time>2024-07-08T11:33:58Z</time>
      </trkpt>
      <trkpt lat="44.57074" lon="6.30129">
        <ele>1535</ele>
        <time>2024-07-08T11:34:01Z</time>
      </trkpt>
      <trkpt lat="44.57072" lon="6.30133">
        <ele>1534</ele>
        <time>2024-07-08T11:34:04Z</time>
      </trkpt>
      <trkpt lat="44.57071" lon="6.30138">
        <ele>1535</ele>
        <time>2024-07-08T11:34:07Z</time>
      </trkpt>
      <trkpt lat="44.5707" lon="6.30143">
        <ele>1534</ele>
        <time>2024-07-08T11:34:10Z</time>
      </trkpt>
      <trkpt lat="44.57069" lon="6.30147">
        <ele>1534</ele>
        <time>2024-07-08T11:34:12Z</time>
      </trkpt>
      <trkpt lat="44.57068" lon="6.30153">
        <ele>1534</ele>
        <time>2024-07-08T11:34:16Z</time>
      </trkpt>
      <trkpt lat="44.57069" lon="6.30156">
        <ele>1534</ele>
        <time>2024-07-08T11:34:18Z</time>
      </trkpt>
      <trkpt lat="44.5707" lon="6.30159">
        <ele>1534</ele>
        <time>2024-07-08T11:34:21Z</time>
      </trkpt>
      <trkpt lat="44.57064" lon="6.30172">
        <ele>1534</ele>
        <time>2024-07-08T11:34:29Z</time>
      </trkpt>
      <trkpt lat="44.57062" lon="6.30179">
        <ele>1535</ele>
        <time>2024-07-08T11:34:35Z</time>
      </trkpt>
      <trkpt lat="44.57063" lon="6.30185">
        <ele>1537</ele>
        <time>2024-07-08T11:34:43Z</time>
      </trkpt>
      <trkpt lat="44.57064" lon="6.30198">
        <ele>1538</ele>
        <time>2024-07-08T11:34:48Z</time>
      </trkpt>
      <trkpt lat="44.57061" lon="6.30204">
        <ele>1538</ele>
        <time>2024-07-08T11:34:54Z</time>
      </trkpt>
      <trkpt lat="44.57059" lon="6.30208">
        <ele>1537</ele>
        <time>2024-07-08T11:34:59Z</time>
      </trkpt>
      <trkpt lat="44.57056" lon="6.30213">
        <ele>1538</ele>
        <time>2024-07-08T11:35:05Z</time>
      </trkpt>
      <trkpt lat="44.57055" lon="6.30221">
        <ele>1539</ele>
        <time>2024-07-08T11:35:11Z</time>
      </trkpt>
      <trkpt lat="44.57054" lon="6.30231">
        <ele>1541</ele>
        <time>2024-07-08T11:35:17Z</time>
      </trkpt>
      <trkpt lat="44.57048" lon="6.30245">
        <ele>1542</ele>
        <time>2024-07-08T11:35:23Z</time>
      </trkpt>
      <trkpt lat="44.57047" lon="6.30253">
        <ele>1544</ele>
        <time>2024-07-08T11:35:29Z</time>
      </trkpt>
      <trkpt lat="44.57051" lon="6.30244">
        <ele>1546</ele>
        <time>2024-07-08T11:35:33Z</time>
      </trkpt>
      <trkpt lat="44.57052" lon="6.3024">
        <ele>1546</ele>
        <time>2024-07-08T11:35:36Z</time>
      </trkpt>
      <trkpt lat="44.5705" lon="6.3024">
        <ele>1546</ele>
        <time>2024-07-08T11:35:39Z</time>
      </trkpt>
      <trkpt lat="44.57048" lon="6.3024">
        <ele>1547</ele>
        <time>2024-07-08T11:35:46Z</time>
      </trkpt>
      <trkpt lat="44.57044" lon="6.30241">
        <ele>1546</ele>
        <time>2024-07-08T11:35:49Z</time>
      </trkpt>
      <trkpt lat="44.57042" lon="6.30245">
        <ele>1546</ele>
        <time>2024-07-08T11:35:52Z</time>
      </trkpt>
      <trkpt lat="44.57043" lon="6.30245">
        <ele>1546</ele>
        <time>2024-07-08T11:36:02Z</time>
      </trkpt>
      <trkpt lat="44.57046" lon="6.30244">
        <ele>1546</ele>
        <time>2024-07-08T11:36:06Z</time>
      </trkpt>
      <trkpt lat="44.57049" lon="6.30244">
        <ele>1546</ele>
        <time>2024-07-08T11:36:09Z</time>
      </trkpt>
      <trkpt lat="44.5705" lon="6.30246">
        <ele>1546</ele>
        <time>2024-07-08T11:36:12Z</time>
      </trkpt>
      <trkpt lat="44.57053" lon="6.30246">
        <ele>1546</ele>
        <time>2024-07-08T11:36:15Z</time>
      </trkpt>
      <trkpt lat="44.57055" lon="6.30247">
        <ele>1548</ele>
        <time>2024-07-08T11:36:18Z</time>
      </trkpt>
      <trkpt lat="44.57057" lon="6.30248">
        <ele>1547</ele>
        <time>2024-07-08T11:36:21Z</time>
      </trkpt>
      <trkpt lat="44.57058" lon="6.3025">
        <ele>1547</ele>
        <time>2024-07-08T11:36:23Z</time>
      </trkpt>
      <trkpt lat="44.5706" lon="6.30251">
        <ele>1549</ele>
        <time>2024-07-08T11:36:27Z</time>
      </trkpt>
      <trkpt lat="44.57062" lon="6.3025">
        <ele>1549</ele>
        <time>2024-07-08T11:36:29Z</time>
      </trkpt>
      <trkpt lat="44.57065" lon="6.30251">
        <ele>1548</ele>
        <time>2024-07-08T11:36:35Z</time>
      </trkpt>
      <trkpt lat="44.5706" lon="6.30256">
        <ele>1550</ele>
        <time>2024-07-08T11:36:42Z</time>
      </trkpt>
      <trkpt lat="44.57065" lon="6.30259">
        <ele>1556</ele>
        <time>2024-07-08T11:37:08Z</time>
      </trkpt>
      <trkpt lat="44.57066" lon="6.3026">
        <ele>1556</ele>
        <time>2024-07-08T11:37:12Z</time>
      </trkpt>
      <trkpt lat="44.57071" lon="6.3028">
        <ele>1558</ele>
        <time>2024-07-08T11:37:18Z</time>
      </trkpt>
      <trkpt lat="44.57069" lon="6.30288">
        <ele>1557</ele>
        <time>2024-07-08T11:37:24Z</time>
      </trkpt>
      <trkpt lat="44.57072" lon="6.30294">
        <ele>1558</ele>
        <time>2024-07-08T11:37:30Z</time>
      </trkpt>
      <trkpt lat="44.57074" lon="6.30295">
        <ele>1559</ele>
        <time>2024-07-08T11:37:33Z</time>
      </trkpt>
      <trkpt lat="44.57077" lon="6.30294">
        <ele>1560</ele>
        <time>2024-07-08T11:37:38Z</time>
      </trkpt>
      <trkpt lat="44.57081" lon="6.30291">
        <ele>1560</ele>
        <time>2024-07-08T11:37:42Z</time>
      </trkpt>
      <trkpt lat="44.57083" lon="6.30279">
        <ele>1560</ele>
        <time>2024-07-08T11:37:48Z</time>
      </trkpt>
      <trkpt lat="44.5709" lon="6.30299">
        <ele>1561</ele>
        <time>2024-07-08T11:37:55Z</time>
      </trkpt>
      <trkpt lat="44.57091" lon="6.30306">
        <ele>1562</ele>
        <time>2024-07-08T11:38:00Z</time>
      </trkpt>
      <trkpt lat="44.57094" lon="6.30311">
        <ele>1564</ele>
        <time>2024-07-08T11:38:06Z</time>
      </trkpt>
      <trkpt lat="44.57098" lon="6.30318">
        <ele>1565</ele>
        <time>2024-07-08T11:38:12Z</time>
      </trkpt>
      <trkpt lat="44.57098" lon="6.30321">
        <ele>1566</ele>
        <time>2024-07-08T11:38:19Z</time>
      </trkpt>
      <trkpt lat="44.57098" lon="6.30326">
        <ele>1567</ele>
        <time>2024-07-08T11:38:26Z</time>
      </trkpt>
      <trkpt lat="44.57098" lon="6.30329">
        <ele>1567</ele>
        <time>2024-07-08T11:38:30Z</time>
      </trkpt>
      <trkpt lat="44.57096" lon="6.30338">
        <ele>1570</ele>
        <time>2024-07-08T11:38:36Z</time>
      </trkpt>
      <trkpt lat="44.57095" lon="6.30342">
        <ele>1569</ele>
        <time>2024-07-08T11:38:42Z</time>
      </trkpt>
      <trkpt lat="44.57096" lon="6.30347">
        <ele>1572</ele>
        <time>2024-07-08T11:38:48Z</time>
      </trkpt>
      <trkpt lat="44.57097" lon="6.30351">
        <ele>1573</ele>
        <time>2024-07-08T11:38:54Z</time>
      </trkpt>
      <trkpt lat="44.57099" lon="6.30357">
        <ele>1573</ele>
        <time>2024-07-08T11:39:00Z</time>
      </trkpt>
      <trkpt lat="44.57108" lon="6.30361">
        <ele>1574</ele>
        <time>2024-07-08T11:39:08Z</time>
      </trkpt>
      <trkpt lat="44.57111" lon="6.30361">
        <ele>1574</ele>
        <time>2024-07-08T11:39:12Z</time>
      </trkpt>
      <trkpt lat="44.57115" lon="6.30356">
        <ele>1575</ele>
        <time>2024-07-08T11:39:18Z</time>
      </trkpt>
      <trkpt lat="44.57118" lon="6.30353">
        <ele>1576</ele>
        <time>2024-07-08T11:39:24Z</time>
      </trkpt>
      <trkpt lat="44.57122" lon="6.30356">
        <ele>1579</ele>
        <time>2024-07-08T11:39:30Z</time>
      </trkpt>
      <trkpt lat="44.57122" lon="6.3036">
        <ele>1580</ele>
        <time>2024-07-08T11:39:36Z</time>
      </trkpt>
      <trkpt lat="44.57122" lon="6.30364">
        <ele>1580</ele>
        <time>2024-07-08T11:39:42Z</time>
      </trkpt>
      <trkpt lat="44.57125" lon="6.30367">
        <ele>1580</ele>
        <time>2024-07-08T11:39:48Z</time>
      </trkpt>
      <trkpt lat="44.5713" lon="6.3037">
        <ele>1581</ele>
        <time>2024-07-08T11:39:54Z</time>
      </trkpt>
      <trkpt lat="44.57134" lon="6.30374">
        <ele>1582</ele>
        <time>2024-07-08T11:40:00Z</time>
      </trkpt>
      <trkpt lat="44.57131" lon="6.3038">
        <ele>1583</ele>
        <time>2024-07-08T11:40:06Z</time>
      </trkpt>
      <trkpt lat="44.5713" lon="6.30389">
        <ele>1586</ele>
        <time>2024-07-08T11:40:12Z</time>
      </trkpt>
      <trkpt lat="44.57132" lon="6.30394">
        <ele>1586</ele>
        <time>2024-07-08T11:40:18Z</time>
      </trkpt>
      <trkpt lat="44.57134" lon="6.30397">
        <ele>1587</ele>
        <time>2024-07-08T11:40:22Z</time>
      </trkpt>
      <trkpt lat="44.57133" lon="6.304">
        <ele>1588</ele>
        <time>2024-07-08T11:40:36Z</time>
      </trkpt>
      <trkpt lat="44.57142" lon="6.30395">
        <ele>1589</ele>
        <time>2024-07-08T11:40:40Z</time>
      </trkpt>
      <trkpt lat="44.57137" lon="6.30393">
        <ele>1590</ele>
        <time>2024-07-08T11:40:43Z</time>
      </trkpt>
      <trkpt lat="44.57131" lon="6.30393">
        <ele>1590</ele>
        <time>2024-07-08T11:40:46Z</time>
      </trkpt>
      <trkpt lat="44.57128" lon="6.30395">
        <ele>1591</ele>
        <time>2024-07-08T11:40:49Z</time>
      </trkpt>
      <trkpt lat="44.57126" lon="6.30396">
        <ele>1591</ele>
        <time>2024-07-08T11:40:52Z</time>
      </trkpt>
      <trkpt lat="44.57123" lon="6.30397">
        <ele>1592</ele>
        <time>2024-07-08T11:40:56Z</time>
      </trkpt>
      <trkpt lat="44.5712" lon="6.304">
        <ele>1592</ele>
        <time>2024-07-08T11:40:59Z</time>
      </trkpt>
      <trkpt lat="44.57117" lon="6.30401">
        <ele>1592</ele>
        <time>2024-07-08T11:41:02Z</time>
      </trkpt>
      <trkpt lat="44.57115" lon="6.30408">
        <ele>1591</ele>
        <time>2024-07-08T11:41:05Z</time>
      </trkpt>
      <trkpt lat="44.57112" lon="6.30411">
        <ele>1591</ele>
        <time>2024-07-08T11:41:08Z</time>
      </trkpt>
      <trkpt lat="44.57117" lon="6.3041">
        <ele>1590</ele>
        <time>2024-07-08T11:41:16Z</time>
      </trkpt>
      <trkpt lat="44.57115" lon="6.30419">
        <ele>1591</ele>
        <time>2024-07-08T11:41:25Z</time>
      </trkpt>
      <trkpt lat="44.57114" lon="6.30422">
        <ele>1591</ele>
        <time>2024-07-08T11:41:28Z</time>
      </trkpt>
      <trkpt lat="44.57111" lon="6.30425">
        <ele>1593</ele>
        <time>2024-07-08T11:41:31Z</time>
      </trkpt>
      <trkpt lat="44.57109" lon="6.30427">
        <ele>1593</ele>
        <time>2024-07-08T11:41:34Z</time>
      </trkpt>
      <trkpt lat="44.5711" lon="6.30436">
        <ele>1591</ele>
        <time>2024-07-08T11:41:40Z</time>
      </trkpt>
      <trkpt lat="44.57108" lon="6.30444">
        <ele>1593</ele>
        <time>2024-07-08T11:41:43Z</time>
      </trkpt>
      <trkpt lat="44.57107" lon="6.30448">
        <ele>1594</ele>
        <time>2024-07-08T11:41:47Z</time>
      </trkpt>
      <trkpt lat="44.57103" lon="6.30457">
        <ele>1594</ele>
        <time>2024-07-08T11:41:52Z</time>
      </trkpt>
      <trkpt lat="44.57098" lon="6.30464">
        <ele>1591</ele>
        <time>2024-07-08T11:41:58Z</time>
      </trkpt>
      <trkpt lat="44.57094" lon="6.30472">
        <ele>1595</ele>
        <time>2024-07-08T11:42:04Z</time>
      </trkpt>
      <trkpt lat="44.57088" lon="6.30478">
        <ele>1595</ele>
        <time>2024-07-08T11:42:10Z</time>
      </trkpt>
      <trkpt lat="44.5708" lon="6.30485">
        <ele>1595</ele>
        <time>2024-07-08T11:42:16Z</time>
      </trkpt>
      <trkpt lat="44.57074" lon="6.30491">
        <ele>1597</ele>
        <time>2024-07-08T11:42:22Z</time>
      </trkpt>
      <trkpt lat="44.5707" lon="6.30495">
        <ele>1597</ele>
        <time>2024-07-08T11:42:28Z</time>
      </trkpt>
      <trkpt lat="44.57064" lon="6.30498">
        <ele>1598</ele>
        <time>2024-07-08T11:42:34Z</time>
      </trkpt>
      <trkpt lat="44.57067" lon="6.3051">
        <ele>1598</ele>
        <time>2024-07-08T11:42:40Z</time>
      </trkpt>
      <trkpt lat="44.57066" lon="6.30518">
        <ele>1600</ele>
        <time>2024-07-08T11:42:46Z</time>
      </trkpt>
      <trkpt lat="44.57065" lon="6.30524">
        <ele>1599</ele>
        <time>2024-07-08T11:42:52Z</time>
      </trkpt>
      <trkpt lat="44.57063" lon="6.30533">
        <ele>1600</ele>
        <time>2024-07-08T11:42:58Z</time>
      </trkpt>
      <trkpt lat="44.57057" lon="6.30544">
        <ele>1602</ele>
        <time>2024-07-08T11:43:04Z</time>
      </trkpt>
      <trkpt lat="44.57055" lon="6.30552">
        <ele>1601</ele>
        <time>2024-07-08T11:43:10Z</time>
      </trkpt>
      <trkpt lat="44.57051" lon="6.30561">
        <ele>1603</ele>
        <time>2024-07-08T11:43:16Z</time>
      </trkpt>
      <trkpt lat="44.57048" lon="6.30566">
        <ele>1603</ele>
        <time>2024-07-08T11:43:22Z</time>
      </trkpt>
      <trkpt lat="44.57046" lon="6.30574">
        <ele>1603</ele>
        <time>2024-07-08T11:43:28Z</time>
      </trkpt>
      <trkpt lat="44.57045" lon="6.30579">
        <ele>1605</ele>
        <time>2024-07-08T11:43:31Z</time>
      </trkpt>
      <trkpt lat="44.57049" lon="6.30588">
        <ele>1605</ele>
        <time>2024-07-08T11:43:34Z</time>
      </trkpt>
      <trkpt lat="44.57052" lon="6.3059">
        <ele>1607</ele>
        <time>2024-07-08T11:43:36Z</time>
      </trkpt>
      <trkpt lat="44.57054" lon="6.30594">
        <ele>1606</ele>
        <time>2024-07-08T11:43:40Z</time>
      </trkpt>
      <trkpt lat="44.57056" lon="6.30597">
        <ele>1606</ele>
        <time>2024-07-08T11:43:43Z</time>
      </trkpt>
      <trkpt lat="44.57059" lon="6.30597">
        <ele>1605</ele>
        <time>2024-07-08T11:43:46Z</time>
      </trkpt>
      <trkpt lat="44.57062" lon="6.30593">
        <ele>1606</ele>
        <time>2024-07-08T11:43:49Z</time>
      </trkpt>
      <trkpt lat="44.57063" lon="6.30589">
        <ele>1607</ele>
        <time>2024-07-08T11:43:51Z</time>
      </trkpt>
      <trkpt lat="44.57064" lon="6.30585">
        <ele>1606</ele>
        <time>2024-07-08T11:43:54Z</time>
      </trkpt>
      <trkpt lat="44.57067" lon="6.30581">
        <ele>1607</ele>
        <time>2024-07-08T11:43:57Z</time>
      </trkpt>
      <trkpt lat="44.5707" lon="6.3058">
        <ele>1607</ele>
        <time>2024-07-08T11:44:01Z</time>
      </trkpt>
      <trkpt lat="44.57073" lon="6.3058">
        <ele>1607</ele>
        <time>2024-07-08T11:44:03Z</time>
      </trkpt>
      <trkpt lat="44.57076" lon="6.30583">
        <ele>1606</ele>
        <time>2024-07-08T11:44:06Z</time>
      </trkpt>
      <trkpt lat="44.57079" lon="6.30586">
        <ele>1609</ele>
        <time>2024-07-08T11:44:10Z</time>
      </trkpt>
      <trkpt lat="44.5708" lon="6.3059">
        <ele>1609</ele>
        <time>2024-07-08T11:44:12Z</time>
      </trkpt>
      <trkpt lat="44.5708" lon="6.30595">
        <ele>1609</ele>
        <time>2024-07-08T11:44:15Z</time>
      </trkpt>
      <trkpt lat="44.57082" lon="6.306">
        <ele>1608</ele>
        <time>2024-07-08T11:44:19Z</time>
      </trkpt>
      <trkpt lat="44.57083" lon="6.30605">
        <ele>1608</ele>
        <time>2024-07-08T11:44:22Z</time>
      </trkpt>
      <trkpt lat="44.57085" lon="6.30608">
        <ele>1608</ele>
        <time>2024-07-08T11:44:25Z</time>
      </trkpt>
      <trkpt lat="44.57088" lon="6.30608">
        <ele>1609</ele>
        <time>2024-07-08T11:44:27Z</time>
      </trkpt>
      <trkpt lat="44.5709" lon="6.30607">
        <ele>1609</ele>
        <time>2024-07-08T11:44:30Z</time>
      </trkpt>
      <trkpt lat="44.57094" lon="6.30607">
        <ele>1610</ele>
        <time>2024-07-08T11:44:36Z</time>
      </trkpt>
      <trkpt lat="44.57088" lon="6.30608">
        <ele>1611</ele>
        <time>2024-07-08T11:44:42Z</time>
      </trkpt>
      <trkpt lat="44.5709" lon="6.30609">
        <ele>1613</ele>
        <time>2024-07-08T11:44:53Z</time>
      </trkpt>
      <trkpt lat="44.57092" lon="6.30608">
        <ele>1613</ele>
        <time>2024-07-08T11:44:59Z</time>
      </trkpt>
      <trkpt lat="44.57095" lon="6.30606">
        <ele>1614</ele>
        <time>2024-07-08T11:45:06Z</time>
      </trkpt>
      <trkpt lat="44.57101" lon="6.30603">
        <ele>1615</ele>
        <time>2024-07-08T11:45:12Z</time>
      </trkpt>
      <trkpt lat="44.57112" lon="6.30608">
        <ele>1617</ele>
        <time>2024-07-08T11:45:18Z</time>
      </trkpt>
      <trkpt lat="44.57119" lon="6.30609">
        <ele>1618</ele>
        <time>2024-07-08T11:45:24Z</time>
      </trkpt>
      <trkpt lat="44.57125" lon="6.30613">
        <ele>1620</ele>
        <time>2024-07-08T11:45:30Z</time>
      </trkpt>
      <trkpt lat="44.57128" lon="6.30617">
        <ele>1621</ele>
        <time>2024-07-08T11:45:36Z</time>
      </trkpt>
      <trkpt lat="44.57132" lon="6.30622">
        <ele>1622</ele>
        <time>2024-07-08T11:45:41Z</time>
      </trkpt>
      <trkpt lat="44.57134" lon="6.30623">
        <ele>1623</ele>
        <time>2024-07-08T11:45:44Z</time>
      </trkpt>
      <trkpt lat="44.57137" lon="6.30625">
        <ele>1623</ele>
        <time>2024-07-08T11:45:48Z</time>
      </trkpt>
      <trkpt lat="44.57141" lon="6.30621">
        <ele>1625</ele>
        <time>2024-07-08T11:45:54Z</time>
      </trkpt>
      <trkpt lat="44.57147" lon="6.30619">
        <ele>1624</ele>
        <time>2024-07-08T11:46:00Z</time>
      </trkpt>
      <trkpt lat="44.57148" lon="6.30621">
        <ele>1625</ele>
        <time>2024-07-08T11:46:06Z</time>
      </trkpt>
      <trkpt lat="44.57152" lon="6.30622">
        <ele>1626</ele>
        <time>2024-07-08T11:46:12Z</time>
      </trkpt>
      <trkpt lat="44.57157" lon="6.30622">
        <ele>1628</ele>
        <time>2024-07-08T11:46:18Z</time>
      </trkpt>
      <trkpt lat="44.57159" lon="6.3062">
        <ele>1628</ele>
        <time>2024-07-08T11:46:24Z</time>
      </trkpt>
      <trkpt lat="44.57162" lon="6.30619">
        <ele>1629</ele>
        <time>2024-07-08T11:46:30Z</time>
      </trkpt>
      <trkpt lat="44.57162" lon="6.30622">
        <ele>1629</ele>
        <time>2024-07-08T11:46:34Z</time>
      </trkpt>
      <trkpt lat="44.57164" lon="6.30623">
        <ele>1630</ele>
        <time>2024-07-08T11:46:38Z</time>
      </trkpt>
      <trkpt lat="44.57166" lon="6.30625">
        <ele>1630</ele>
        <time>2024-07-08T11:46:41Z</time>
      </trkpt>
      <trkpt lat="44.57169" lon="6.30625">
        <ele>1631</ele>
        <time>2024-07-08T11:46:44Z</time>
      </trkpt>
      <trkpt lat="44.57172" lon="6.30625">
        <ele>1631</ele>
        <time>2024-07-08T11:46:47Z</time>
      </trkpt>
      <trkpt lat="44.57175" lon="6.30627">
        <ele>1632</ele>
        <time>2024-07-08T11:46:50Z</time>
      </trkpt>
      <trkpt lat="44.57175" lon="6.3063">
        <ele>1632</ele>
        <time>2024-07-08T11:46:53Z</time>
      </trkpt>
      <trkpt lat="44.57178" lon="6.30632">
        <ele>1632</ele>
        <time>2024-07-08T11:46:55Z</time>
      </trkpt>
      <trkpt lat="44.57182" lon="6.30633">
        <ele>1633</ele>
        <time>2024-07-08T11:46:58Z</time>
      </trkpt>
      <trkpt lat="44.57185" lon="6.30634">
        <ele>1633</ele>
        <time>2024-07-08T11:47:02Z</time>
      </trkpt>
      <trkpt lat="44.57187" lon="6.30634">
        <ele>1634</ele>
        <time>2024-07-08T11:47:05Z</time>
      </trkpt>
      <trkpt lat="44.5719" lon="6.30634">
        <ele>1635</ele>
        <time>2024-07-08T11:47:08Z</time>
      </trkpt>
      <trkpt lat="44.57192" lon="6.30633">
        <ele>1635</ele>
        <time>2024-07-08T11:47:11Z</time>
      </trkpt>
      <trkpt lat="44.57195" lon="6.30633">
        <ele>1636</ele>
        <time>2024-07-08T11:47:14Z</time>
      </trkpt>
      <trkpt lat="44.57197" lon="6.30634">
        <ele>1636</ele>
        <time>2024-07-08T11:47:17Z</time>
      </trkpt>
      <trkpt lat="44.57199" lon="6.30632">
        <ele>1636</ele>
        <time>2024-07-08T11:47:19Z</time>
      </trkpt>
      <trkpt lat="44.57201" lon="6.30631">
        <ele>1638</ele>
        <time>2024-07-08T11:47:23Z</time>
      </trkpt>
      <trkpt lat="44.57203" lon="6.30634">
        <ele>1637</ele>
        <time>2024-07-08T11:47:26Z</time>
      </trkpt>
      <trkpt lat="44.57206" lon="6.30635">
        <ele>1638</ele>
        <time>2024-07-08T11:47:30Z</time>
      </trkpt>
      <trkpt lat="44.57208" lon="6.30636">
        <ele>1638</ele>
        <time>2024-07-08T11:47:33Z</time>
      </trkpt>
      <trkpt lat="44.57211" lon="6.30636">
        <ele>1639</ele>
        <time>2024-07-08T11:47:36Z</time>
      </trkpt>
      <trkpt lat="44.57214" lon="6.30638">
        <ele>1639</ele>
        <time>2024-07-08T11:47:39Z</time>
      </trkpt>
      <trkpt lat="44.57217" lon="6.30638">
        <ele>1640</ele>
        <time>2024-07-08T11:47:42Z</time>
      </trkpt>
      <trkpt lat="44.5722" lon="6.3064">
        <ele>1640</ele>
        <time>2024-07-08T11:47:47Z</time>
      </trkpt>
      <trkpt lat="44.57217" lon="6.3064">
        <ele>1641</ele>
        <time>2024-07-08T11:47:53Z</time>
      </trkpt>
      <trkpt lat="44.57237" lon="6.30643">
        <ele>1644</ele>
        <time>2024-07-08T11:48:08Z</time>
      </trkpt>
      <trkpt lat="44.57241" lon="6.30641">
        <ele>1644</ele>
        <time>2024-07-08T11:48:11Z</time>
      </trkpt>
      <trkpt lat="44.57243" lon="6.30645">
        <ele>1644</ele>
        <time>2024-07-08T11:48:14Z</time>
      </trkpt>
      <trkpt lat="44.57244" lon="6.30647">
        <ele>1644</ele>
        <time>2024-07-08T11:48:17Z</time>
      </trkpt>
      <trkpt lat="44.57247" lon="6.30649">
        <ele>1644</ele>
        <time>2024-07-08T11:48:20Z</time>
      </trkpt>
      <trkpt lat="44.57249" lon="6.30648">
        <ele>1645</ele>
        <time>2024-07-08T11:48:23Z</time>
      </trkpt>
      <trkpt lat="44.57251" lon="6.3065">
        <ele>1645</ele>
        <time>2024-07-08T11:48:27Z</time>
      </trkpt>
      <trkpt lat="44.57252" lon="6.30654">
        <ele>1645</ele>
        <time>2024-07-08T11:48:30Z</time>
      </trkpt>
      <trkpt lat="44.57253" lon="6.30657">
        <ele>1645</ele>
        <time>2024-07-08T11:48:33Z</time>
      </trkpt>
      <trkpt lat="44.57255" lon="6.3066">
        <ele>1646</ele>
        <time>2024-07-08T11:48:36Z</time>
      </trkpt>
      <trkpt lat="44.57258" lon="6.30661">
        <ele>1646</ele>
        <time>2024-07-08T11:48:39Z</time>
      </trkpt>
      <trkpt lat="44.57261" lon="6.30662">
        <ele>1647</ele>
        <time>2024-07-08T11:48:42Z</time>
      </trkpt>
      <trkpt lat="44.57264" lon="6.30673">
        <ele>1647</ele>
        <time>2024-07-08T11:48:48Z</time>
      </trkpt>
      <trkpt lat="44.57259" lon="6.30668">
        <ele>1647</ele>
        <time>2024-07-08T11:48:54Z</time>
      </trkpt>
      <trkpt lat="44.57263" lon="6.30674">
        <ele>1647</ele>
        <time>2024-07-08T11:49:00Z</time>
      </trkpt>
      <trkpt lat="44.57266" lon="6.30681">
        <ele>1648</ele>
        <time>2024-07-08T11:49:06Z</time>
      </trkpt>
      <trkpt lat="44.5727" lon="6.30684">
        <ele>1649</ele>
        <time>2024-07-08T11:49:12Z</time>
      </trkpt>
      <trkpt lat="44.57269" lon="6.30689">
        <ele>1648</ele>
        <time>2024-07-08T11:49:18Z</time>
      </trkpt>
      <trkpt lat="44.57273" lon="6.30699">
        <ele>1650</ele>
        <time>2024-07-08T11:49:24Z</time>
      </trkpt>
      <trkpt lat="44.5728" lon="6.30707">
        <ele>1649</ele>
        <time>2024-07-08T11:49:30Z</time>
      </trkpt>
      <trkpt lat="44.57286" lon="6.30716">
        <ele>1649</ele>
        <time>2024-07-08T11:49:36Z</time>
      </trkpt>
      <trkpt lat="44.5729" lon="6.30724">
        <ele>1650</ele>
        <time>2024-07-08T11:49:42Z</time>
      </trkpt>
      <trkpt lat="44.57291" lon="6.30738">
        <ele>1650</ele>
        <time>2024-07-08T11:49:48Z</time>
      </trkpt>
      <trkpt lat="44.5729" lon="6.3075">
        <ele>1650</ele>
        <time>2024-07-08T11:49:54Z</time>
      </trkpt>
      <trkpt lat="44.5729" lon="6.3076">
        <ele>1652</ele>
        <time>2024-07-08T11:50:00Z</time>
      </trkpt>
      <trkpt lat="44.57292" lon="6.30769">
        <ele>1653</ele>
        <time>2024-07-08T11:50:06Z</time>
      </trkpt>
      <trkpt lat="44.57294" lon="6.30774">
        <ele>1654</ele>
        <time>2024-07-08T11:50:12Z</time>
      </trkpt>
      <trkpt lat="44.57296" lon="6.30781">
        <ele>1655</ele>
        <time>2024-07-08T11:50:18Z</time>
      </trkpt>
      <trkpt lat="44.57297" lon="6.3079">
        <ele>1655</ele>
        <time>2024-07-08T11:50:24Z</time>
      </trkpt>
      <trkpt lat="44.57298" lon="6.30798">
        <ele>1656</ele>
        <time>2024-07-08T11:50:30Z</time>
      </trkpt>
      <trkpt lat="44.573" lon="6.30805">
        <ele>1657</ele>
        <time>2024-07-08T11:50:36Z</time>
      </trkpt>
      <trkpt lat="44.57303" lon="6.30811">
        <ele>1658</ele>
        <time>2024-07-08T11:50:42Z</time>
      </trkpt>
      <trkpt lat="44.57304" lon="6.30814">
        <ele>1668</ele>
        <time>2024-07-08T11:50:48Z</time>
      </trkpt>
      <trkpt lat="44.57307" lon="6.30824">
        <ele>1660</ele>
        <time>2024-07-08T11:50:54Z</time>
      </trkpt>
      <trkpt lat="44.57311" lon="6.30825">
        <ele>1664</ele>
        <time>2024-07-08T11:51:00Z</time>
      </trkpt>
      <trkpt lat="44.57318" lon="6.30826">
        <ele>1660</ele>
        <time>2024-07-08T11:51:06Z</time>
      </trkpt>
      <trkpt lat="44.57324" lon="6.30827">
        <ele>1664</ele>
        <time>2024-07-08T11:51:12Z</time>
      </trkpt>
      <trkpt lat="44.57329" lon="6.30825">
        <ele>1667</ele>
        <time>2024-07-08T11:51:20Z</time>
      </trkpt>
      <trkpt lat="44.57331" lon="6.30824">
        <ele>1667</ele>
        <time>2024-07-08T11:51:24Z</time>
      </trkpt>
      <trkpt lat="44.57335" lon="6.30836">
        <ele>1673</ele>
        <time>2024-07-08T11:51:30Z</time>
      </trkpt>
      <trkpt lat="44.57337" lon="6.30844">
        <ele>1674</ele>
        <time>2024-07-08T11:51:36Z</time>
      </trkpt>
      <trkpt lat="44.57339" lon="6.30851">
        <ele>1671</ele>
        <time>2024-07-08T11:51:42Z</time>
      </trkpt>
      <trkpt lat="44.5734" lon="6.30859">
        <ele>1676</ele>
        <time>2024-07-08T11:51:48Z</time>
      </trkpt>
      <trkpt lat="44.5734" lon="6.30866">
        <ele>1671</ele>
        <time>2024-07-08T11:51:57Z</time>
      </trkpt>
      <trkpt lat="44.57342" lon="6.30871">
        <ele>1672</ele>
        <time>2024-07-08T11:52:02Z</time>
      </trkpt>
      <trkpt lat="44.57343" lon="6.30873">
        <ele>1672</ele>
        <time>2024-07-08T11:52:06Z</time>
      </trkpt>
      <trkpt lat="44.57345" lon="6.30882">
        <ele>1667</ele>
        <time>2024-07-08T11:52:12Z</time>
      </trkpt>
      <trkpt lat="44.57348" lon="6.30886">
        <ele>1668</ele>
        <time>2024-07-08T11:52:18Z</time>
      </trkpt>
      <trkpt lat="44.57349" lon="6.30894">
        <ele>1666</ele>
        <time>2024-07-08T11:52:24Z</time>
      </trkpt>
      <trkpt lat="44.57349" lon="6.30901">
        <ele>1672</ele>
        <time>2024-07-08T11:52:30Z</time>
      </trkpt>
      <trkpt lat="44.57351" lon="6.30904">
        <ele>1674</ele>
        <time>2024-07-08T11:52:36Z</time>
      </trkpt>
      <trkpt lat="44.57354" lon="6.30906">
        <ele>1676</ele>
        <time>2024-07-08T11:52:42Z</time>
      </trkpt>
      <trkpt lat="44.57355" lon="6.30912">
        <ele>1693</ele>
        <time>2024-07-08T11:52:48Z</time>
      </trkpt>
      <trkpt lat="44.57356" lon="6.30919">
        <ele>1688</ele>
        <time>2024-07-08T11:52:54Z</time>
      </trkpt>
      <trkpt lat="44.57357" lon="6.30928">
        <ele>1685</ele>
        <time>2024-07-08T11:53:00Z</time>
      </trkpt>
      <trkpt lat="44.57355" lon="6.30938">
        <ele>1690</ele>
        <time>2024-07-08T11:53:06Z</time>
      </trkpt>
      <trkpt lat="44.57355" lon="6.30942">
        <ele>1689</ele>
        <time>2024-07-08T11:53:12Z</time>
      </trkpt>
      <trkpt lat="44.57359" lon="6.30943">
        <ele>1690</ele>
        <time>2024-07-08T11:53:18Z</time>
      </trkpt>
      <trkpt lat="44.57356" lon="6.30955">
        <ele>1683</ele>
        <time>2024-07-08T11:53:26Z</time>
      </trkpt>
      <trkpt lat="44.57355" lon="6.30957">
        <ele>1683</ele>
        <time>2024-07-08T11:53:30Z</time>
      </trkpt>
      <trkpt lat="44.57353" lon="6.30958">
        <ele>1685</ele>
        <time>2024-07-08T11:53:36Z</time>
      </trkpt>
      <trkpt lat="44.57351" lon="6.30965">
        <ele>1685</ele>
        <time>2024-07-08T11:53:42Z</time>
      </trkpt>
      <trkpt lat="44.57355" lon="6.30972">
        <ele>1686</ele>
        <time>2024-07-08T11:53:48Z</time>
      </trkpt>
      <trkpt lat="44.57359" lon="6.30976">
        <ele>1682</ele>
        <time>2024-07-08T11:53:54Z</time>
      </trkpt>
      <trkpt lat="44.57357" lon="6.30979">
        <ele>1683</ele>
        <time>2024-07-08T11:54:08Z</time>
      </trkpt>
      <trkpt lat="44.57355" lon="6.30981">
        <ele>1682</ele>
        <time>2024-07-08T11:54:14Z</time>
      </trkpt>
      <trkpt lat="44.57353" lon="6.30984">
        <ele>1679</ele>
        <time>2024-07-08T11:54:20Z</time>
      </trkpt>
      <trkpt lat="44.57351" lon="6.30987">
        <ele>1689</ele>
        <time>2024-07-08T11:54:26Z</time>
      </trkpt>
      <trkpt lat="44.57353" lon="6.30992">
        <ele>1692</ele>
        <time>2024-07-08T11:54:32Z</time>
      </trkpt>
      <trkpt lat="44.57357" lon="6.30992">
        <ele>1698</ele>
        <time>2024-07-08T11:54:38Z</time>
      </trkpt>
      <trkpt lat="44.57362" lon="6.30991">
        <ele>1694</ele>
        <time>2024-07-08T11:54:44Z</time>
      </trkpt>
      <trkpt lat="44.57367" lon="6.3099">
        <ele>1695</ele>
        <time>2024-07-08T11:54:50Z</time>
      </trkpt>
      <trkpt lat="44.57369" lon="6.30987">
        <ele>1685</ele>
        <time>2024-07-08T11:54:56Z</time>
      </trkpt>
      <trkpt lat="44.57371" lon="6.3099">
        <ele>1688</ele>
        <time>2024-07-08T11:55:06Z</time>
      </trkpt>
      <trkpt lat="44.57376" lon="6.30996">
        <ele>1693</ele>
        <time>2024-07-08T11:55:12Z</time>
      </trkpt>
      <trkpt lat="44.5738" lon="6.31">
        <ele>1702</ele>
        <time>2024-07-08T11:55:18Z</time>
      </trkpt>
      <trkpt lat="44.57382" lon="6.31002">
        <ele>1699</ele>
        <time>2024-07-08T11:55:24Z</time>
      </trkpt>
      <trkpt lat="44.57387" lon="6.3101">
        <ele>1703</ele>
        <time>2024-07-08T11:55:30Z</time>
      </trkpt>
      <trkpt lat="44.57391" lon="6.31018">
        <ele>1701</ele>
        <time>2024-07-08T11:55:36Z</time>
      </trkpt>
      <trkpt lat="44.5739" lon="6.3103">
        <ele>1706</ele>
        <time>2024-07-08T11:55:44Z</time>
      </trkpt>
      <trkpt lat="44.57386" lon="6.31037">
        <ele>1711</ele>
        <time>2024-07-08T11:55:50Z</time>
      </trkpt>
      <trkpt lat="44.57384" lon="6.31044">
        <ele>1712</ele>
        <time>2024-07-08T11:55:56Z</time>
      </trkpt>
      <trkpt lat="44.57384" lon="6.31048">
        <ele>1711</ele>
        <time>2024-07-08T11:56:02Z</time>
      </trkpt>
      <trkpt lat="44.57384" lon="6.31058">
        <ele>1710</ele>
        <time>2024-07-08T11:56:08Z</time>
      </trkpt>
      <trkpt lat="44.57385" lon="6.31062">
        <ele>1710</ele>
        <time>2024-07-08T11:56:12Z</time>
      </trkpt>
      <trkpt lat="44.57386" lon="6.31066">
        <ele>1713</ele>
        <time>2024-07-08T11:56:19Z</time>
      </trkpt>
      <trkpt lat="44.57389" lon="6.31063">
        <ele>1713</ele>
        <time>2024-07-08T11:56:22Z</time>
      </trkpt>
      <trkpt lat="44.5739" lon="6.31066">
        <ele>1714</ele>
        <time>2024-07-08T11:56:27Z</time>
      </trkpt>
      <trkpt lat="44.57393" lon="6.31069">
        <ele>1714</ele>
        <time>2024-07-08T11:56:31Z</time>
      </trkpt>
      <trkpt lat="44.57395" lon="6.31071">
        <ele>1715</ele>
        <time>2024-07-08T11:56:34Z</time>
      </trkpt>
      <trkpt lat="44.57397" lon="6.3107">
        <ele>1716</ele>
        <time>2024-07-08T11:56:36Z</time>
      </trkpt>
      <trkpt lat="44.57395" lon="6.31071">
        <ele>1715</ele>
        <time>2024-07-08T11:56:43Z</time>
      </trkpt>
      <trkpt lat="44.5739" lon="6.31082">
        <ele>1716</ele>
        <time>2024-07-08T11:56:49Z</time>
      </trkpt>
      <trkpt lat="44.57389" lon="6.31085">
        <ele>1717</ele>
        <time>2024-07-08T11:56:55Z</time>
      </trkpt>
      <trkpt lat="44.57385" lon="6.31098">
        <ele>1718</ele>
        <time>2024-07-08T11:57:01Z</time>
      </trkpt>
      <trkpt lat="44.57386" lon="6.31106">
        <ele>1720</ele>
        <time>2024-07-08T11:57:07Z</time>
      </trkpt>
      <trkpt lat="44.57387" lon="6.31113">
        <ele>1720</ele>
        <time>2024-07-08T11:57:13Z</time>
      </trkpt>
      <trkpt lat="44.57383" lon="6.31124">
        <ele>1719</ele>
        <time>2024-07-08T11:57:19Z</time>
      </trkpt>
      <trkpt lat="44.57377" lon="6.31135">
        <ele>1720</ele>
        <time>2024-07-08T11:57:25Z</time>
      </trkpt>
      <trkpt lat="44.57373" lon="6.31143">
        <ele>1720</ele>
        <time>2024-07-08T11:57:28Z</time>
      </trkpt>
      <trkpt lat="44.57372" lon="6.31148">
        <ele>1721</ele>
        <time>2024-07-08T11:57:31Z</time>
      </trkpt>
      <trkpt lat="44.57369" lon="6.31158">
        <ele>1720</ele>
        <time>2024-07-08T11:57:37Z</time>
      </trkpt>
      <trkpt lat="44.57367" lon="6.31165">
        <ele>1721</ele>
        <time>2024-07-08T11:57:43Z</time>
      </trkpt>
      <trkpt lat="44.57366" lon="6.31175">
        <ele>1721</ele>
        <time>2024-07-08T11:57:49Z</time>
      </trkpt>
      <trkpt lat="44.57365" lon="6.31181">
        <ele>1721</ele>
        <time>2024-07-08T11:57:55Z</time>
      </trkpt>
      <trkpt lat="44.57365" lon="6.31191">
        <ele>1717</ele>
        <time>2024-07-08T11:58:01Z</time>
      </trkpt>
      <trkpt lat="44.57362" lon="6.31208">
        <ele>1721</ele>
        <time>2024-07-08T11:58:07Z</time>
      </trkpt>
      <trkpt lat="44.57361" lon="6.31217">
        <ele>1721</ele>
        <time>2024-07-08T11:58:13Z</time>
      </trkpt>
      <trkpt lat="44.5736" lon="6.31228">
        <ele>1721</ele>
        <time>2024-07-08T11:58:19Z</time>
      </trkpt>
      <trkpt lat="44.57358" lon="6.31241">
        <ele>1721</ele>
        <time>2024-07-08T11:58:25Z</time>
      </trkpt>
      <trkpt lat="44.5736" lon="6.3125">
        <ele>1723</ele>
        <time>2024-07-08T11:58:31Z</time>
      </trkpt>
      <trkpt lat="44.57359" lon="6.31257">
        <ele>1722</ele>
        <time>2024-07-08T11:58:34Z</time>
      </trkpt>
      <trkpt lat="44.57357" lon="6.31261">
        <ele>1722</ele>
        <time>2024-07-08T11:58:37Z</time>
      </trkpt>
      <trkpt lat="44.5736" lon="6.31265">
        <ele>1727</ele>
        <time>2024-07-08T11:58:41Z</time>
      </trkpt>
      <trkpt lat="44.57359" lon="6.3127">
        <ele>1727</ele>
        <time>2024-07-08T11:58:44Z</time>
      </trkpt>
      <trkpt lat="44.57362" lon="6.31273">
        <ele>1723</ele>
        <time>2024-07-08T11:58:47Z</time>
      </trkpt>
      <trkpt lat="44.57361" lon="6.31277">
        <ele>1723</ele>
        <time>2024-07-08T11:58:50Z</time>
      </trkpt>
      <trkpt lat="44.57362" lon="6.31281">
        <ele>1723</ele>
        <time>2024-07-08T11:58:53Z</time>
      </trkpt>
      <trkpt lat="44.57363" lon="6.31285">
        <ele>1723</ele>
        <time>2024-07-08T11:58:56Z</time>
      </trkpt>
      <trkpt lat="44.57363" lon="6.31288">
        <ele>1725</ele>
        <time>2024-07-08T11:58:58Z</time>
      </trkpt>
      <trkpt lat="44.57363" lon="6.31293">
        <ele>1725</ele>
        <time>2024-07-08T11:59:02Z</time>
      </trkpt>
      <trkpt lat="44.57363" lon="6.31298">
        <ele>1722</ele>
        <time>2024-07-08T11:59:07Z</time>
      </trkpt>
      <trkpt lat="44.5736" lon="6.31301">
        <ele>1730</ele>
        <time>2024-07-08T11:59:13Z</time>
      </trkpt>
      <trkpt lat="44.57359" lon="6.31302">
        <ele>1731</ele>
        <time>2024-07-08T11:59:19Z</time>
      </trkpt>
      <trkpt lat="44.57355" lon="6.31312">
        <ele>1730</ele>
        <time>2024-07-08T11:59:25Z</time>
      </trkpt>
      <trkpt lat="44.57353" lon="6.31318">
        <ele>1732</ele>
        <time>2024-07-08T11:59:31Z</time>
      </trkpt>
      <trkpt lat="44.57352" lon="6.31322">
        <ele>1731</ele>
        <time>2024-07-08T11:59:37Z</time>
      </trkpt>
      <trkpt lat="44.57347" lon="6.31329">
        <ele>1730</ele>
        <time>2024-07-08T11:59:40Z</time>
      </trkpt>
      <trkpt lat="44.57346" lon="6.31334">
        <ele>1731</ele>
        <time>2024-07-08T11:59:43Z</time>
      </trkpt>
      <trkpt lat="44.57346" lon="6.31337">
        <ele>1731</ele>
        <time>2024-07-08T11:59:49Z</time>
      </trkpt>
      <trkpt lat="44.57346" lon="6.31343">
        <ele>1732</ele>
        <time>2024-07-08T11:59:52Z</time>
      </trkpt>
      <trkpt lat="44.57344" lon="6.31348">
        <ele>1732</ele>
        <time>2024-07-08T11:59:55Z</time>
      </trkpt>
      <trkpt lat="44.57343" lon="6.31354">
        <ele>1732</ele>
        <time>2024-07-08T11:59:58Z</time>
      </trkpt>
      <trkpt lat="44.57344" lon="6.31358">
        <ele>1732</ele>
        <time>2024-07-08T12:00:01Z</time>
      </trkpt>
      <trkpt lat="44.57342" lon="6.31364">
        <ele>1731</ele>
        <time>2024-07-08T12:00:04Z</time>
      </trkpt>
      <trkpt lat="44.57342" lon="6.31369">
        <ele>1733</ele>
        <time>2024-07-08T12:00:08Z</time>
      </trkpt>
      <trkpt lat="44.57344" lon="6.31377">
        <ele>1734</ele>
        <time>2024-07-08T12:00:14Z</time>
      </trkpt>
      <trkpt lat="44.57343" lon="6.31366">
        <ele>1735</ele>
        <time>2024-07-08T12:00:21Z</time>
      </trkpt>
      <trkpt lat="44.5734" lon="6.31363">
        <ele>1734</ele>
        <time>2024-07-08T12:00:24Z</time>
      </trkpt>
      <trkpt lat="44.57337" lon="6.31365">
        <ele>1735</ele>
        <time>2024-07-08T12:00:27Z</time>
      </trkpt>
      <trkpt lat="44.57341" lon="6.31386">
        <ele>1734</ele>
        <time>2024-07-08T12:00:32Z</time>
      </trkpt>
      <trkpt lat="44.57348" lon="6.31394">
        <ele>1733</ele>
        <time>2024-07-08T12:00:40Z</time>
      </trkpt>
      <trkpt lat="44.57349" lon="6.31397">
        <ele>1733</ele>
        <time>2024-07-08T12:00:44Z</time>
      </trkpt>
      <trkpt lat="44.57353" lon="6.31414">
        <ele>1735</ele>
        <time>2024-07-08T12:00:51Z</time>
      </trkpt>
      <trkpt lat="44.57355" lon="6.31426">
        <ele>1735</ele>
        <time>2024-07-08T12:00:57Z</time>
      </trkpt>
      <trkpt lat="44.57359" lon="6.31438">
        <ele>1735</ele>
        <time>2024-07-08T12:01:03Z</time>
      </trkpt>
      <trkpt lat="44.57365" lon="6.31445">
        <ele>1737</ele>
        <time>2024-07-08T12:01:06Z</time>
      </trkpt>
      <trkpt lat="44.57365" lon="6.31451">
        <ele>1737</ele>
        <time>2024-07-08T12:01:09Z</time>
      </trkpt>
      <trkpt lat="44.57367" lon="6.31457">
        <ele>1737</ele>
        <time>2024-07-08T12:01:12Z</time>
      </trkpt>
      <trkpt lat="44.57365" lon="6.31461">
        <ele>1736</ele>
        <time>2024-07-08T12:01:15Z</time>
      </trkpt>
      <trkpt lat="44.57368" lon="6.31463">
        <ele>1737</ele>
        <time>2024-07-08T12:01:18Z</time>
      </trkpt>
      <trkpt lat="44.57371" lon="6.31461">
        <ele>1737</ele>
        <time>2024-07-08T12:01:21Z</time>
      </trkpt>
      <trkpt lat="44.57372" lon="6.31461">
        <ele>1737</ele>
        <time>2024-07-08T12:01:24Z</time>
      </trkpt>
      <trkpt lat="44.57376" lon="6.3146">
        <ele>1737</ele>
        <time>2024-07-08T12:01:28Z</time>
      </trkpt>
      <trkpt lat="44.57372" lon="6.31463">
        <ele>1739</ele>
        <time>2024-07-08T12:01:34Z</time>
      </trkpt>
      <trkpt lat="44.57373" lon="6.31466">
        <ele>1743</ele>
        <time>2024-07-08T12:01:49Z</time>
      </trkpt>
      <trkpt lat="44.57379" lon="6.31473">
        <ele>1744</ele>
        <time>2024-07-08T12:01:54Z</time>
      </trkpt>
      <trkpt lat="44.57384" lon="6.31485">
        <ele>1745</ele>
        <time>2024-07-08T12:02:00Z</time>
      </trkpt>
      <trkpt lat="44.57385" lon="6.31488">
        <ele>1745</ele>
        <time>2024-07-08T12:02:04Z</time>
      </trkpt>
      <trkpt lat="44.5739" lon="6.31496">
        <ele>1746</ele>
        <time>2024-07-08T12:02:11Z</time>
      </trkpt>
      <trkpt lat="44.57394" lon="6.31502">
        <ele>1747</ele>
        <time>2024-07-08T12:02:16Z</time>
      </trkpt>
      <trkpt lat="44.57395" lon="6.3151">
        <ele>1748</ele>
        <time>2024-07-08T12:02:22Z</time>
      </trkpt>
      <trkpt lat="44.57396" lon="6.31516">
        <ele>1749</ele>
        <time>2024-07-08T12:02:28Z</time>
      </trkpt>
      <trkpt lat="44.57396" lon="6.31524">
        <ele>1750</ele>
        <time>2024-07-08T12:02:34Z</time>
      </trkpt>
      <trkpt lat="44.57398" lon="6.31532">
        <ele>1751</ele>
        <time>2024-07-08T12:02:40Z</time>
      </trkpt>
      <trkpt lat="44.57401" lon="6.31539">
        <ele>1753</ele>
        <time>2024-07-08T12:02:47Z</time>
      </trkpt>
      <trkpt lat="44.57406" lon="6.31545">
        <ele>1753</ele>
        <time>2024-07-08T12:02:52Z</time>
      </trkpt>
      <trkpt lat="44.57409" lon="6.3155">
        <ele>1754</ele>
        <time>2024-07-08T12:02:58Z</time>
      </trkpt>
      <trkpt lat="44.57409" lon="6.31556">
        <ele>1754</ele>
        <time>2024-07-08T12:03:04Z</time>
      </trkpt>
      <trkpt lat="44.57411" lon="6.31561">
        <ele>1756</ele>
        <time>2024-07-08T12:03:10Z</time>
      </trkpt>
      <trkpt lat="44.57411" lon="6.31567">
        <ele>1757</ele>
        <time>2024-07-08T12:03:16Z</time>
      </trkpt>
      <trkpt lat="44.57412" lon="6.31569">
        <ele>1758</ele>
        <time>2024-07-08T12:03:22Z</time>
      </trkpt>
      <trkpt lat="44.57416" lon="6.31576">
        <ele>1766</ele>
        <time>2024-07-08T12:03:30Z</time>
      </trkpt>
      <trkpt lat="44.57417" lon="6.31581">
        <ele>1764</ele>
        <time>2024-07-08T12:03:36Z</time>
      </trkpt>
      <trkpt lat="44.57419" lon="6.31587">
        <ele>1763</ele>
        <time>2024-07-08T12:03:42Z</time>
      </trkpt>
      <trkpt lat="44.57422" lon="6.31593">
        <ele>1761</ele>
        <time>2024-07-08T12:03:48Z</time>
      </trkpt>
      <trkpt lat="44.57422" lon="6.31598">
        <ele>1755</ele>
        <time>2024-07-08T12:03:54Z</time>
      </trkpt>
      <trkpt lat="44.57423" lon="6.31601">
        <ele>1755</ele>
        <time>2024-07-08T12:03:58Z</time>
      </trkpt>
      <trkpt lat="44.57421" lon="6.31607">
        <ele>1759</ele>
        <time>2024-07-08T12:04:04Z</time>
      </trkpt>
      <trkpt lat="44.57425" lon="6.31613">
        <ele>1759</ele>
        <time>2024-07-08T12:04:10Z</time>
      </trkpt>
      <trkpt lat="44.57432" lon="6.31614">
        <ele>1754</ele>
        <time>2024-07-08T12:04:16Z</time>
      </trkpt>
      <trkpt lat="44.57439" lon="6.31611">
        <ele>1752</ele>
        <time>2024-07-08T12:04:22Z</time>
      </trkpt>
      <trkpt lat="44.57443" lon="6.31607">
        <ele>1754</ele>
        <time>2024-07-08T12:04:28Z</time>
      </trkpt>
      <trkpt lat="44.57447" lon="6.31602">
        <ele>1753</ele>
        <time>2024-07-08T12:04:34Z</time>
      </trkpt>
      <trkpt lat="44.57454" lon="6.31601">
        <ele>1756</ele>
        <time>2024-07-08T12:04:40Z</time>
      </trkpt>
      <trkpt lat="44.57458" lon="6.31602">
        <ele>1753</ele>
        <time>2024-07-08T12:04:46Z</time>
      </trkpt>
      <trkpt lat="44.57463" lon="6.31608">
        <ele>1753</ele>
        <time>2024-07-08T12:04:52Z</time>
      </trkpt>
      <trkpt lat="44.57463" lon="6.31616">
        <ele>1747</ele>
        <time>2024-07-08T12:04:58Z</time>
      </trkpt>
      <trkpt lat="44.57464" lon="6.31623">
        <ele>1752</ele>
        <time>2024-07-08T12:05:01Z</time>
      </trkpt>
      <trkpt lat="44.57464" lon="6.31628">
        <ele>1752</ele>
        <time>2024-07-08T12:05:05Z</time>
      </trkpt>
      <trkpt lat="44.57466" lon="6.31635">
        <ele>1754</ele>
        <time>2024-07-08T12:05:09Z</time>
      </trkpt>
      <trkpt lat="44.57464" lon="6.31647">
        <ele>1753</ele>
        <time>2024-07-08T12:05:12Z</time>
      </trkpt>
      <trkpt lat="44.57464" lon="6.31653">
        <ele>1753</ele>
        <time>2024-07-08T12:05:15Z</time>
      </trkpt>
      <trkpt lat="44.57467" lon="6.31656">
        <ele>1753</ele>
        <time>2024-07-08T12:05:18Z</time>
      </trkpt>
      <trkpt lat="44.57467" lon="6.31663">
        <ele>1751</ele>
        <time>2024-07-08T12:05:21Z</time>
      </trkpt>
      <trkpt lat="44.57467" lon="6.31669">
        <ele>1749</ele>
        <time>2024-07-08T12:05:24Z</time>
      </trkpt>
      <trkpt lat="44.57466" lon="6.31672">
        <ele>1751</ele>
        <time>2024-07-08T12:05:27Z</time>
      </trkpt>
      <trkpt lat="44.57464" lon="6.31676">
        <ele>1751</ele>
        <time>2024-07-08T12:05:30Z</time>
      </trkpt>
      <trkpt lat="44.57464" lon="6.31679">
        <ele>1751</ele>
        <time>2024-07-08T12:05:33Z</time>
      </trkpt>
      <trkpt lat="44.57462" lon="6.31682">
        <ele>1751</ele>
        <time>2024-07-08T12:05:37Z</time>
      </trkpt>
      <trkpt lat="44.57461" lon="6.31687">
        <ele>1738</ele>
        <time>2024-07-08T12:05:40Z</time>
      </trkpt>
      <trkpt lat="44.57454" lon="6.31691">
        <ele>1751</ele>
        <time>2024-07-08T12:05:43Z</time>
      </trkpt>
      <trkpt lat="44.57452" lon="6.31695">
        <ele>1751</ele>
        <time>2024-07-08T12:05:46Z</time>
      </trkpt>
      <trkpt lat="44.5745" lon="6.31702">
        <ele>1749</ele>
        <time>2024-07-08T12:05:51Z</time>
      </trkpt>
      <trkpt lat="44.5745" lon="6.31706">
        <ele>1749</ele>
        <time>2024-07-08T12:05:59Z</time>
      </trkpt>
      <trkpt lat="44.57449" lon="6.31712">
        <ele>1748</ele>
        <time>2024-07-08T12:06:06Z</time>
      </trkpt>
      <trkpt lat="44.57448" lon="6.31717">
        <ele>1748</ele>
        <time>2024-07-08T12:06:11Z</time>
      </trkpt>
      <trkpt lat="44.57448" lon="6.31723">
        <ele>1748</ele>
        <time>2024-07-08T12:06:17Z</time>
      </trkpt>
      <trkpt lat="44.57447" lon="6.31728">
        <ele>1747</ele>
        <time>2024-07-08T12:06:24Z</time>
      </trkpt>
      <trkpt lat="44.57446" lon="6.31715">
        <ele>1747</ele>
        <time>2024-07-08T12:06:33Z</time>
      </trkpt>
      <trkpt lat="44.57445" lon="6.31717">
        <ele>1748</ele>
        <time>2024-07-08T12:06:37Z</time>
      </trkpt>
      <trkpt lat="44.57445" lon="6.31719">
        <ele>1748</ele>
        <time>2024-07-08T12:06:53Z</time>
      </trkpt>
      <trkpt lat="44.57446" lon="6.31723">
        <ele>1747</ele>
        <time>2024-07-08T12:06:56Z</time>
      </trkpt>
      <trkpt lat="44.57447" lon="6.31726">
        <ele>1749</ele>
        <time>2024-07-08T12:06:59Z</time>
      </trkpt>
      <trkpt lat="44.57447" lon="6.31732">
        <ele>1748</ele>
        <time>2024-07-08T12:07:02Z</time>
      </trkpt>
      <trkpt lat="44.57446" lon="6.31734">
        <ele>1749</ele>
        <time>2024-07-08T12:07:05Z</time>
      </trkpt>
      <trkpt lat="44.57446" lon="6.31731">
        <ele>1748</ele>
        <time>2024-07-08T12:07:15Z</time>
      </trkpt>
      <trkpt lat="44.57447" lon="6.31726">
        <ele>1747</ele>
        <time>2024-07-08T12:07:18Z</time>
      </trkpt>
      <trkpt lat="44.57446" lon="6.31722">
        <ele>1748</ele>
        <time>2024-07-08T12:07:21Z</time>
      </trkpt>
      <trkpt lat="44.57444" lon="6.31718">
        <ele>1748</ele>
        <time>2024-07-08T12:07:23Z</time>
      </trkpt>
      <trkpt lat="44.57441" lon="6.31718">
        <ele>1747</ele>
        <time>2024-07-08T12:07:26Z</time>
      </trkpt>
      <trkpt lat="44.57438" lon="6.31718">
        <ele>1748</ele>
        <time>2024-07-08T12:07:29Z</time>
      </trkpt>
      <trkpt lat="44.57436" lon="6.31719">
        <ele>1748</ele>
        <time>2024-07-08T12:07:32Z</time>
      </trkpt>
      <trkpt lat="44.57435" lon="6.31724">
        <ele>1748</ele>
        <time>2024-07-08T12:07:35Z</time>
      </trkpt>
      <trkpt lat="44.57434" lon="6.31728">
        <ele>1748</ele>
        <time>2024-07-08T12:07:38Z</time>
      </trkpt>
      <trkpt lat="44.57435" lon="6.31731">
        <ele>1748</ele>
        <time>2024-07-08T12:07:42Z</time>
      </trkpt>
      <trkpt lat="44.57435" lon="6.31733">
        <ele>1746</ele>
        <time>2024-07-08T12:07:50Z</time>
      </trkpt>
      <trkpt lat="44.57433" lon="6.3173">
        <ele>1747</ele>
        <time>2024-07-08T12:07:57Z</time>
      </trkpt>
      <trkpt lat="44.57429" lon="6.31729">
        <ele>1747</ele>
        <time>2024-07-08T12:08:04Z</time>
      </trkpt>
      <trkpt lat="44.57427" lon="6.31729">
        <ele>1747</ele>
        <time>2024-07-08T12:08:08Z</time>
      </trkpt>
      <trkpt lat="44.57428" lon="6.31754">
        <ele>1746</ele>
        <time>2024-07-08T12:08:12Z</time>
      </trkpt>
      <trkpt lat="44.57429" lon="6.31752">
        <ele>1747</ele>
        <time>2024-07-08T12:08:15Z</time>
      </trkpt>
      <trkpt lat="44.57429" lon="6.31748">
        <ele>1746</ele>
        <time>2024-07-08T12:08:18Z</time>
      </trkpt>
      <trkpt lat="44.57429" lon="6.31744">
        <ele>1746</ele>
        <time>2024-07-08T12:08:21Z</time>
      </trkpt>
      <trkpt lat="44.57429" lon="6.31742">
        <ele>1746</ele>
        <time>2024-07-08T12:09:13Z</time>
      </trkpt>
      <trkpt lat="44.57424" lon="6.31748">
        <ele>1746</ele>
        <time>2024-07-08T12:09:19Z</time>
      </trkpt>
      <trkpt lat="44.57417" lon="6.31755">
        <ele>1747</ele>
        <time>2024-07-08T12:09:25Z</time>
      </trkpt>
      <trkpt lat="44.57412" lon="6.31759">
        <ele>1745</ele>
        <time>2024-07-08T12:09:31Z</time>
      </trkpt>
      <trkpt lat="44.57408" lon="6.31762">
        <ele>1745</ele>
        <time>2024-07-08T12:09:36Z</time>
      </trkpt>
      <trkpt lat="44.57402" lon="6.31769">
        <ele>1745</ele>
        <time>2024-07-08T12:09:41Z</time>
      </trkpt>
      <trkpt lat="44.57399" lon="6.31771">
        <ele>1744</ele>
        <time>2024-07-08T12:09:47Z</time>
      </trkpt>
      <trkpt lat="44.57397" lon="6.3177">
        <ele>1743</ele>
        <time>2024-07-08T12:10:00Z</time>
      </trkpt>
      <trkpt lat="44.57396" lon="6.31768">
        <ele>1744</ele>
        <time>2024-07-08T12:10:05Z</time>
      </trkpt>
      <trkpt lat="44.57394" lon="6.31766">
        <ele>1743</ele>
        <time>2024-07-08T12:10:12Z</time>
      </trkpt>
      <trkpt lat="44.57391" lon="6.31763">
        <ele>1743</ele>
        <time>2024-07-08T12:10:15Z</time>
      </trkpt>
      <trkpt lat="44.57387" lon="6.31763">
        <ele>1741</ele>
        <time>2024-07-08T12:10:18Z</time>
      </trkpt>
      <trkpt lat="44.57382" lon="6.31767">
        <ele>1742</ele>
        <time>2024-07-08T12:10:24Z</time>
      </trkpt>
      <trkpt lat="44.57381" lon="6.31771">
        <ele>1739</ele>
        <time>2024-07-08T12:10:30Z</time>
      </trkpt>
      <trkpt lat="44.57383" lon="6.31768">
        <ele>1740</ele>
        <time>2024-07-08T12:10:36Z</time>
      </trkpt>
      <trkpt lat="44.5738" lon="6.3177">
        <ele>1740</ele>
        <time>2024-07-08T12:10:42Z</time>
      </trkpt>
      <trkpt lat="44.57385" lon="6.31764">
        <ele>1740</ele>
        <time>2024-07-08T12:10:48Z</time>
      </trkpt>
      <trkpt lat="44.57383" lon="6.31766">
        <ele>1737</ele>
        <time>2024-07-08T12:11:02Z</time>
      </trkpt>
      <trkpt lat="44.57381" lon="6.31767">
        <ele>1734</ele>
        <time>2024-07-08T12:11:14Z</time>
      </trkpt>
      <trkpt lat="44.57379" lon="6.31769">
        <ele>1734</ele>
        <time>2024-07-08T12:11:18Z</time>
      </trkpt>
      <trkpt lat="44.57369" lon="6.31783">
        <ele>1735</ele>
        <time>2024-07-08T12:11:21Z</time>
      </trkpt>
      <trkpt lat="44.57367" lon="6.31786">
        <ele>1735</ele>
        <time>2024-07-08T12:11:24Z</time>
      </trkpt>
      <trkpt lat="44.57362" lon="6.31788">
        <ele>1733</ele>
        <time>2024-07-08T12:11:30Z</time>
      </trkpt>
      <trkpt lat="44.57362" lon="6.31791">
        <ele>1731</ele>
        <time>2024-07-08T12:11:36Z</time>
      </trkpt>
      <trkpt lat="44.57364" lon="6.31795">
        <ele>1730</ele>
        <time>2024-07-08T12:11:42Z</time>
      </trkpt>
      <trkpt lat="44.57369" lon="6.31794">
        <ele>1729</ele>
        <time>2024-07-08T12:11:48Z</time>
      </trkpt>
      <trkpt lat="44.57374" lon="6.31788">
        <ele>1729</ele>
        <time>2024-07-08T12:11:54Z</time>
      </trkpt>
      <trkpt lat="44.5735" lon="6.31802">
        <ele>1728</ele>
        <time>2024-07-08T12:12:02Z</time>
      </trkpt>
      <trkpt lat="44.57346" lon="6.31803">
        <ele>1735</ele>
        <time>2024-07-08T12:12:14Z</time>
      </trkpt>
      <trkpt lat="44.57341" lon="6.31805">
        <ele>1732</ele>
        <time>2024-07-08T12:12:20Z</time>
      </trkpt>
      <trkpt lat="44.57334" lon="6.31804">
        <ele>1728</ele>
        <time>2024-07-08T12:12:26Z</time>
      </trkpt>
      <trkpt lat="44.5733" lon="6.318">
        <ele>1724</ele>
        <time>2024-07-08T12:12:32Z</time>
      </trkpt>
      <trkpt lat="44.57329" lon="6.31793">
        <ele>1722</ele>
        <time>2024-07-08T12:12:38Z</time>
      </trkpt>
      <trkpt lat="44.57328" lon="6.3179">
        <ele>1717</ele>
        <time>2024-07-08T12:12:44Z</time>
      </trkpt>
      <trkpt lat="44.57324" lon="6.31786">
        <ele>1718</ele>
        <time>2024-07-08T12:12:49Z</time>
      </trkpt>
      <trkpt lat="44.57323" lon="6.31785">
        <ele>1718</ele>
        <time>2024-07-08T12:12:54Z</time>
      </trkpt>
      <trkpt lat="44.57318" lon="6.31782">
        <ele>1721</ele>
        <time>2024-07-08T12:13:00Z</time>
      </trkpt>
      <trkpt lat="44.57314" lon="6.31791">
        <ele>1715</ele>
        <time>2024-07-08T12:13:06Z</time>
      </trkpt>
      <trkpt lat="44.57311" lon="6.31799">
        <ele>1715</ele>
        <time>2024-07-08T12:13:12Z</time>
      </trkpt>
      <trkpt lat="44.57326" lon="6.31791">
        <ele>1702</ele>
        <time>2024-07-08T12:13:18Z</time>
      </trkpt>
      <trkpt lat="44.57326" lon="6.31784">
        <ele>1702</ele>
        <time>2024-07-08T12:13:24Z</time>
      </trkpt>
      <trkpt lat="44.57325" lon="6.31779">
        <ele>1703</ele>
        <time>2024-07-08T12:13:30Z</time>
      </trkpt>
      <trkpt lat="44.57324" lon="6.31785">
        <ele>1700</ele>
        <time>2024-07-08T12:13:38Z</time>
      </trkpt>
      <trkpt lat="44.57319" lon="6.31793">
        <ele>1698</ele>
        <time>2024-07-08T12:13:44Z</time>
      </trkpt>
      <trkpt lat="44.57318" lon="6.31795">
        <ele>1698</ele>
        <time>2024-07-08T12:13:48Z</time>
      </trkpt>
      <trkpt lat="44.57312" lon="6.31797">
        <ele>1707</ele>
        <time>2024-07-08T12:13:54Z</time>
      </trkpt>
      <trkpt lat="44.57308" lon="6.31793">
        <ele>1709</ele>
        <time>2024-07-08T12:14:00Z</time>
      </trkpt>
      <trkpt lat="44.57304" lon="6.31789">
        <ele>1710</ele>
        <time>2024-07-08T12:14:08Z</time>
      </trkpt>
      <trkpt lat="44.57302" lon="6.31789">
        <ele>1708</ele>
        <time>2024-07-08T12:14:14Z</time>
      </trkpt>
      <trkpt lat="44.57305" lon="6.31789">
        <ele>1706</ele>
        <time>2024-07-08T12:14:24Z</time>
      </trkpt>
      <trkpt lat="44.57308" lon="6.31788">
        <ele>1700</ele>
        <time>2024-07-08T12:14:30Z</time>
      </trkpt>
      <trkpt lat="44.57303" lon="6.31792">
        <ele>1703</ele>
        <time>2024-07-08T12:14:33Z</time>
      </trkpt>
      <trkpt lat="44.57292" lon="6.31797">
        <ele>1707</ele>
        <time>2024-07-08T12:14:36Z</time>
      </trkpt>
      <trkpt lat="44.5729" lon="6.31797">
        <ele>1708</ele>
        <time>2024-07-08T12:14:41Z</time>
      </trkpt>
      <trkpt lat="44.57287" lon="6.31794">
        <ele>1707</ele>
        <time>2024-07-08T12:14:49Z</time>
      </trkpt>
      <trkpt lat="44.57287" lon="6.31791">
        <ele>1707</ele>
        <time>2024-07-08T12:15:03Z</time>
      </trkpt>
      <trkpt lat="44.57286" lon="6.31789">
        <ele>1706</ele>
        <time>2024-07-08T12:15:08Z</time>
      </trkpt>
      <trkpt lat="44.57281" lon="6.31787">
        <ele>1706</ele>
        <time>2024-07-08T12:15:11Z</time>
      </trkpt>
      <trkpt lat="44.57278" lon="6.31785">
        <ele>1706</ele>
        <time>2024-07-08T12:15:13Z</time>
      </trkpt>
      <trkpt lat="44.57269" lon="6.31783">
        <ele>1706</ele>
        <time>2024-07-08T12:15:18Z</time>
      </trkpt>
      <trkpt lat="44.57261" lon="6.31796">
        <ele>1703</ele>
        <time>2024-07-08T12:15:24Z</time>
      </trkpt>
      <trkpt lat="44.57246" lon="6.31798">
        <ele>1704</ele>
        <time>2024-07-08T12:15:30Z</time>
      </trkpt>
      <trkpt lat="44.57244" lon="6.31793">
        <ele>1704</ele>
        <time>2024-07-08T12:15:36Z</time>
      </trkpt>
      <trkpt lat="44.57245" lon="6.31782">
        <ele>1704</ele>
        <time>2024-07-08T12:15:44Z</time>
      </trkpt>
      <trkpt lat="44.57245" lon="6.31786">
        <ele>1703</ele>
        <time>2024-07-08T12:15:50Z</time>
      </trkpt>
      <trkpt lat="44.57243" lon="6.31784">
        <ele>1702</ele>
        <time>2024-07-08T12:15:56Z</time>
      </trkpt>
      <trkpt lat="44.57242" lon="6.31798">
        <ele>1703</ele>
        <time>2024-07-08T12:16:00Z</time>
      </trkpt>
      <trkpt lat="44.5724" lon="6.31805">
        <ele>1700</ele>
        <time>2024-07-08T12:16:07Z</time>
      </trkpt>
      <trkpt lat="44.57233" lon="6.31809">
        <ele>1700</ele>
        <time>2024-07-08T12:16:12Z</time>
      </trkpt>
      <trkpt lat="44.57229" lon="6.31809">
        <ele>1700</ele>
        <time>2024-07-08T12:16:18Z</time>
      </trkpt>
      <trkpt lat="44.57226" lon="6.31808">
        <ele>1701</ele>
        <time>2024-07-08T12:16:24Z</time>
      </trkpt>
      <trkpt lat="44.57227" lon="6.31805">
        <ele>1701</ele>
        <time>2024-07-08T12:16:30Z</time>
      </trkpt>
      <trkpt lat="44.57232" lon="6.31806">
        <ele>1700</ele>
        <time>2024-07-08T12:16:36Z</time>
      </trkpt>
      <trkpt lat="44.57233" lon="6.31811">
        <ele>1700</ele>
        <time>2024-07-08T12:16:42Z</time>
      </trkpt>
      <trkpt lat="44.57237" lon="6.31802">
        <ele>1699</ele>
        <time>2024-07-08T12:16:48Z</time>
      </trkpt>
      <trkpt lat="44.57246" lon="6.31787">
        <ele>1696</ele>
        <time>2024-07-08T12:16:56Z</time>
      </trkpt>
      <trkpt lat="44.57247" lon="6.31784">
        <ele>1685</ele>
        <time>2024-07-08T12:17:02Z</time>
      </trkpt>
      <trkpt lat="44.57251" lon="6.31783">
        <ele>1685</ele>
        <time>2024-07-08T12:17:05Z</time>
      </trkpt>
      <trkpt lat="44.57254" lon="6.31779">
        <ele>1683</ele>
        <time>2024-07-08T12:17:08Z</time>
      </trkpt>
      <trkpt lat="44.57257" lon="6.31771">
        <ele>1683</ele>
        <time>2024-07-08T12:17:14Z</time>
      </trkpt>
      <trkpt lat="44.5726" lon="6.31765">
        <ele>1681</ele>
        <time>2024-07-08T12:17:20Z</time>
      </trkpt>
      <trkpt lat="44.57261" lon="6.31762">
        <ele>1681</ele>
        <time>2024-07-08T12:17:24Z</time>
      </trkpt>
      <trkpt lat="44.57263" lon="6.31752">
        <ele>1681</ele>
        <time>2024-07-08T12:17:30Z</time>
      </trkpt>
      <trkpt lat="44.57265" lon="6.31744">
        <ele>1679</ele>
        <time>2024-07-08T12:17:36Z</time>
      </trkpt>
      <trkpt lat="44.57269" lon="6.31737">
        <ele>1680</ele>
        <time>2024-07-08T12:17:42Z</time>
      </trkpt>
      <trkpt lat="44.57271" lon="6.31725">
        <ele>1687</ele>
        <time>2024-07-08T12:17:50Z</time>
      </trkpt>
      <trkpt lat="44.57271" lon="6.31722">
        <ele>1687</ele>
        <time>2024-07-08T12:17:54Z</time>
      </trkpt>
      <trkpt lat="44.57272" lon="6.31705">
        <ele>1688</ele>
        <time>2024-07-08T12:18:00Z</time>
      </trkpt>
      <trkpt lat="44.5726" lon="6.31704">
        <ele>1684</ele>
        <time>2024-07-08T12:18:08Z</time>
      </trkpt>
      <trkpt lat="44.57264" lon="6.31705">
        <ele>1679</ele>
        <time>2024-07-08T12:18:14Z</time>
      </trkpt>
      <trkpt lat="44.57265" lon="6.31703">
        <ele>1679</ele>
        <time>2024-07-08T12:18:20Z</time>
      </trkpt>
      <trkpt lat="44.57261" lon="6.31704">
        <ele>1683</ele>
        <time>2024-07-08T12:18:32Z</time>
      </trkpt>
      <trkpt lat="44.57255" lon="6.31703">
        <ele>1679</ele>
        <time>2024-07-08T12:18:38Z</time>
      </trkpt>
      <trkpt lat="44.57257" lon="6.31711">
        <ele>1680</ele>
        <time>2024-07-08T12:18:44Z</time>
      </trkpt>
      <trkpt lat="44.57258" lon="6.31715">
        <ele>1677</ele>
        <time>2024-07-08T12:18:50Z</time>
      </trkpt>
      <trkpt lat="44.57253" lon="6.31711">
        <ele>1680</ele>
        <time>2024-07-08T12:18:57Z</time>
      </trkpt>
      <trkpt lat="44.5725" lon="6.31711">
        <ele>1680</ele>
        <time>2024-07-08T12:19:00Z</time>
      </trkpt>
      <trkpt lat="44.57243" lon="6.31711">
        <ele>1679</ele>
        <time>2024-07-08T12:19:06Z</time>
      </trkpt>
      <trkpt lat="44.57236" lon="6.31713">
        <ele>1675</ele>
        <time>2024-07-08T12:19:12Z</time>
      </trkpt>
      <trkpt lat="44.57233" lon="6.31714">
        <ele>1680</ele>
        <time>2024-07-08T12:19:18Z</time>
      </trkpt>
      <trkpt lat="44.57228" lon="6.31712">
        <ele>1683</ele>
        <time>2024-07-08T12:19:24Z</time>
      </trkpt>
      <trkpt lat="44.57225" lon="6.31712">
        <ele>1687</ele>
        <time>2024-07-08T12:19:30Z</time>
      </trkpt>
      <trkpt lat="44.57218" lon="6.31708">
        <ele>1678</ele>
        <time>2024-07-08T12:19:36Z</time>
      </trkpt>
      <trkpt lat="44.57211" lon="6.31704">
        <ele>1678</ele>
        <time>2024-07-08T12:19:42Z</time>
      </trkpt>
      <trkpt lat="44.57207" lon="6.31701">
        <ele>1673</ele>
        <time>2024-07-08T12:19:48Z</time>
      </trkpt>
      <trkpt lat="44.57202" lon="6.31697">
        <ele>1675</ele>
        <time>2024-07-08T12:19:54Z</time>
      </trkpt>
      <trkpt lat="44.57197" lon="6.31694">
        <ele>1675</ele>
        <time>2024-07-08T12:19:58Z</time>
      </trkpt>
      <trkpt lat="44.57195" lon="6.31694">
        <ele>1675</ele>
        <time>2024-07-08T12:20:01Z</time>
      </trkpt>
      <trkpt lat="44.57192" lon="6.31695">
        <ele>1672</ele>
        <time>2024-07-08T12:20:06Z</time>
      </trkpt>
      <trkpt lat="44.5718" lon="6.3169">
        <ele>1661</ele>
        <time>2024-07-08T12:20:14Z</time>
      </trkpt>
      <trkpt lat="44.57177" lon="6.31684">
        <ele>1664</ele>
        <time>2024-07-08T12:20:20Z</time>
      </trkpt>
      <trkpt lat="44.57176" lon="6.3168">
        <ele>1664</ele>
        <time>2024-07-08T12:20:25Z</time>
      </trkpt>
      <trkpt lat="44.57168" lon="6.31686">
        <ele>1666</ele>
        <time>2024-07-08T12:20:29Z</time>
      </trkpt>
      <trkpt lat="44.57166" lon="6.31687">
        <ele>1666</ele>
        <time>2024-07-08T12:20:32Z</time>
      </trkpt>
      <trkpt lat="44.57159" lon="6.31685">
        <ele>1665</ele>
        <time>2024-07-08T12:20:35Z</time>
      </trkpt>
      <trkpt lat="44.57157" lon="6.31681">
        <ele>1664</ele>
        <time>2024-07-08T12:20:37Z</time>
      </trkpt>
      <trkpt lat="44.57154" lon="6.3168">
        <ele>1664</ele>
        <time>2024-07-08T12:20:40Z</time>
      </trkpt>
      <trkpt lat="44.57151" lon="6.31679">
        <ele>1664</ele>
        <time>2024-07-08T12:20:43Z</time>
      </trkpt>
      <trkpt lat="44.57148" lon="6.31678">
        <ele>1664</ele>
        <time>2024-07-08T12:20:47Z</time>
      </trkpt>
      <trkpt lat="44.57145" lon="6.31677">
        <ele>1663</ele>
        <time>2024-07-08T12:20:50Z</time>
      </trkpt>
      <trkpt lat="44.57141" lon="6.31676">
        <ele>1664</ele>
        <time>2024-07-08T12:20:52Z</time>
      </trkpt>
      <trkpt lat="44.57138" lon="6.31673">
        <ele>1663</ele>
        <time>2024-07-08T12:20:55Z</time>
      </trkpt>
      <trkpt lat="44.57136" lon="6.31672">
        <ele>1662</ele>
        <time>2024-07-08T12:20:58Z</time>
      </trkpt>
      <trkpt lat="44.57133" lon="6.3167">
        <ele>1662</ele>
        <time>2024-07-08T12:21:02Z</time>
      </trkpt>
      <trkpt lat="44.5713" lon="6.31668">
        <ele>1662</ele>
        <time>2024-07-08T12:21:05Z</time>
      </trkpt>
      <trkpt lat="44.57127" lon="6.31666">
        <ele>1662</ele>
        <time>2024-07-08T12:21:08Z</time>
      </trkpt>
      <trkpt lat="44.57123" lon="6.31663">
        <ele>1662</ele>
        <time>2024-07-08T12:21:11Z</time>
      </trkpt>
      <trkpt lat="44.5712" lon="6.31661">
        <ele>1662</ele>
        <time>2024-07-08T12:21:14Z</time>
      </trkpt>
      <trkpt lat="44.57117" lon="6.31659">
        <ele>1661</ele>
        <time>2024-07-08T12:21:16Z</time>
      </trkpt>
      <trkpt lat="44.57113" lon="6.31656">
        <ele>1661</ele>
        <time>2024-07-08T12:21:20Z</time>
      </trkpt>
      <trkpt lat="44.5711" lon="6.31656">
        <ele>1661</ele>
        <time>2024-07-08T12:21:23Z</time>
      </trkpt>
      <trkpt lat="44.57107" lon="6.31658">
        <ele>1660</ele>
        <time>2024-07-08T12:21:26Z</time>
      </trkpt>
      <trkpt lat="44.57101" lon="6.31652">
        <ele>1660</ele>
        <time>2024-07-08T12:21:29Z</time>
      </trkpt>
      <trkpt lat="44.57096" lon="6.3165">
        <ele>1660</ele>
        <time>2024-07-08T12:21:33Z</time>
      </trkpt>
      <trkpt lat="44.57103" lon="6.31653">
        <ele>1660</ele>
        <time>2024-07-08T12:21:39Z</time>
      </trkpt>
      <trkpt lat="44.57101" lon="6.31647">
        <ele>1658</ele>
        <time>2024-07-08T12:21:47Z</time>
      </trkpt>
      <trkpt lat="44.5709" lon="6.31631">
        <ele>1656</ele>
        <time>2024-07-08T12:21:53Z</time>
      </trkpt>
      <trkpt lat="44.57086" lon="6.31625">
        <ele>1656</ele>
        <time>2024-07-08T12:21:57Z</time>
      </trkpt>
      <trkpt lat="44.57079" lon="6.31619">
        <ele>1655</ele>
        <time>2024-07-08T12:22:03Z</time>
      </trkpt>
      <trkpt lat="44.57072" lon="6.31616">
        <ele>1655</ele>
        <time>2024-07-08T12:22:09Z</time>
      </trkpt>
      <trkpt lat="44.57066" lon="6.31612">
        <ele>1655</ele>
        <time>2024-07-08T12:22:15Z</time>
      </trkpt>
      <trkpt lat="44.5706" lon="6.31608">
        <ele>1652</ele>
        <time>2024-07-08T12:22:21Z</time>
      </trkpt>
      <trkpt lat="44.57048" lon="6.31604">
        <ele>1651</ele>
        <time>2024-07-08T12:22:27Z</time>
      </trkpt>
      <trkpt lat="44.57043" lon="6.31605">
        <ele>1646</ele>
        <time>2024-07-08T12:22:33Z</time>
      </trkpt>
      <trkpt lat="44.57033" lon="6.31605">
        <ele>1650</ele>
        <time>2024-07-08T12:22:39Z</time>
      </trkpt>
      <trkpt lat="44.5703" lon="6.31587">
        <ele>1650</ele>
        <time>2024-07-08T12:22:43Z</time>
      </trkpt>
      <trkpt lat="44.57029" lon="6.31582">
        <ele>1649</ele>
        <time>2024-07-08T12:22:46Z</time>
      </trkpt>
      <trkpt lat="44.57028" lon="6.31576">
        <ele>1650</ele>
        <time>2024-07-08T12:22:49Z</time>
      </trkpt>
      <trkpt lat="44.57029" lon="6.31572">
        <ele>1650</ele>
        <time>2024-07-08T12:22:52Z</time>
      </trkpt>
      <trkpt lat="44.57029" lon="6.31566">
        <ele>1649</ele>
        <time>2024-07-08T12:22:55Z</time>
      </trkpt>
      <trkpt lat="44.57027" lon="6.31562">
        <ele>1649</ele>
        <time>2024-07-08T12:22:58Z</time>
      </trkpt>
      <trkpt lat="44.57025" lon="6.31557">
        <ele>1649</ele>
        <time>2024-07-08T12:23:01Z</time>
      </trkpt>
      <trkpt lat="44.57024" lon="6.31553">
        <ele>1648</ele>
        <time>2024-07-08T12:23:04Z</time>
      </trkpt>
      <trkpt lat="44.5702" lon="6.31552">
        <ele>1647</ele>
        <time>2024-07-08T12:23:07Z</time>
      </trkpt>
      <trkpt lat="44.57019" lon="6.3155">
        <ele>1646</ele>
        <time>2024-07-08T12:23:10Z</time>
      </trkpt>
      <trkpt lat="44.57015" lon="6.31549">
        <ele>1646</ele>
        <time>2024-07-08T12:23:14Z</time>
      </trkpt>
      <trkpt lat="44.57016" lon="6.31544">
        <ele>1645</ele>
        <time>2024-07-08T12:23:20Z</time>
      </trkpt>
      <trkpt lat="44.57004" lon="6.3154">
        <ele>1642</ele>
        <time>2024-07-08T12:23:28Z</time>
      </trkpt>
      <trkpt lat="44.57" lon="6.31536">
        <ele>1639</ele>
        <time>2024-07-08T12:23:34Z</time>
      </trkpt>
      <trkpt lat="44.56997" lon="6.31534">
        <ele>1637</ele>
        <time>2024-07-08T12:23:40Z</time>
      </trkpt>
      <trkpt lat="44.56994" lon="6.31533">
        <ele>1637</ele>
        <time>2024-07-08T12:23:44Z</time>
      </trkpt>
      <trkpt lat="44.56986" lon="6.31528">
        <ele>1636</ele>
        <time>2024-07-08T12:23:50Z</time>
      </trkpt>
      <trkpt lat="44.56978" lon="6.31522">
        <ele>1634</ele>
        <time>2024-07-08T12:23:56Z</time>
      </trkpt>
      <trkpt lat="44.5697" lon="6.31518">
        <ele>1632</ele>
        <time>2024-07-08T12:24:02Z</time>
      </trkpt>
      <trkpt lat="44.56961" lon="6.31518">
        <ele>1631</ele>
        <time>2024-07-08T12:24:08Z</time>
      </trkpt>
      <trkpt lat="44.56956" lon="6.31518">
        <ele>1631</ele>
        <time>2024-07-08T12:24:14Z</time>
      </trkpt>
      <trkpt lat="44.56952" lon="6.31518">
        <ele>1630</ele>
        <time>2024-07-08T12:24:20Z</time>
      </trkpt>
      <trkpt lat="44.56947" lon="6.3152">
        <ele>1627</ele>
        <time>2024-07-08T12:24:26Z</time>
      </trkpt>
      <trkpt lat="44.56944" lon="6.31516">
        <ele>1624</ele>
        <time>2024-07-08T12:24:32Z</time>
      </trkpt>
      <trkpt lat="44.56943" lon="6.31506">
        <ele>1624</ele>
        <time>2024-07-08T12:24:38Z</time>
      </trkpt>
      <trkpt lat="44.56938" lon="6.31499">
        <ele>1622</ele>
        <time>2024-07-08T12:24:44Z</time>
      </trkpt>
      <trkpt lat="44.5693" lon="6.31494">
        <ele>1635</ele>
        <time>2024-07-08T12:24:50Z</time>
      </trkpt>
      <trkpt lat="44.56921" lon="6.31492">
        <ele>1635</ele>
        <time>2024-07-08T12:24:57Z</time>
      </trkpt>
      <trkpt lat="44.56914" lon="6.3149">
        <ele>1623</ele>
        <time>2024-07-08T12:25:00Z</time>
      </trkpt>
      <trkpt lat="44.56912" lon="6.3149">
        <ele>1623</ele>
        <time>2024-07-08T12:25:03Z</time>
      </trkpt>
      <trkpt lat="44.5691" lon="6.31491">
        <ele>1619</ele>
        <time>2024-07-08T12:25:06Z</time>
      </trkpt>
      <trkpt lat="44.56908" lon="6.315">
        <ele>1617</ele>
        <time>2024-07-08T12:25:10Z</time>
      </trkpt>
      <trkpt lat="44.56908" lon="6.31502">
        <ele>1617</ele>
        <time>2024-07-08T12:25:15Z</time>
      </trkpt>
      <trkpt lat="44.56912" lon="6.3151">
        <ele>1610</ele>
        <time>2024-07-08T12:25:19Z</time>
      </trkpt>
      <trkpt lat="44.56921" lon="6.31507">
        <ele>1611</ele>
        <time>2024-07-08T12:25:22Z</time>
      </trkpt>
      <trkpt lat="44.56923" lon="6.31507">
        <ele>1611</ele>
        <time>2024-07-08T12:25:26Z</time>
      </trkpt>
      <trkpt lat="44.5692" lon="6.31518">
        <ele>1605</ele>
        <time>2024-07-08T12:25:34Z</time>
      </trkpt>
      <trkpt lat="44.56926" lon="6.3152">
        <ele>1605</ele>
        <time>2024-07-08T12:25:38Z</time>
      </trkpt>
      <trkpt lat="44.56928" lon="6.31527">
        <ele>1602</ele>
        <time>2024-07-08T12:25:42Z</time>
      </trkpt>
      <trkpt lat="44.56929" lon="6.31533">
        <ele>1602</ele>
        <time>2024-07-08T12:25:45Z</time>
      </trkpt>
      <trkpt lat="44.56928" lon="6.31542">
        <ele>1603</ele>
        <time>2024-07-08T12:25:50Z</time>
      </trkpt>
      <trkpt lat="44.56902" lon="6.31535">
        <ele>1608</ele>
        <time>2024-07-08T12:25:58Z</time>
      </trkpt>
      <trkpt lat="44.569" lon="6.31535">
        <ele>1608</ele>
        <time>2024-07-08T12:26:01Z</time>
      </trkpt>
      <trkpt lat="44.56888" lon="6.31527">
        <ele>1611</ele>
        <time>2024-07-08T12:26:08Z</time>
      </trkpt>
      <trkpt lat="44.56879" lon="6.3152">
        <ele>1606</ele>
        <time>2024-07-08T12:26:14Z</time>
      </trkpt>
      <trkpt lat="44.5687" lon="6.31512">
        <ele>1606</ele>
        <time>2024-07-08T12:26:21Z</time>
      </trkpt>
      <trkpt lat="44.56863" lon="6.31515">
        <ele>1594</ele>
        <time>2024-07-08T12:26:26Z</time>
      </trkpt>
      <trkpt lat="44.56863" lon="6.315">
        <ele>1591</ele>
        <time>2024-07-08T12:26:34Z</time>
      </trkpt>
      <trkpt lat="44.56863" lon="6.31496">
        <ele>1586</ele>
        <time>2024-07-08T12:26:40Z</time>
      </trkpt>
      <trkpt lat="44.56862" lon="6.31493">
        <ele>1589</ele>
        <time>2024-07-08T12:26:50Z</time>
      </trkpt>
      <trkpt lat="44.56861" lon="6.31485">
        <ele>1588</ele>
        <time>2024-07-08T12:26:54Z</time>
      </trkpt>
      <trkpt lat="44.56859" lon="6.31476">
        <ele>1592</ele>
        <time>2024-07-08T12:26:58Z</time>
      </trkpt>
      <trkpt lat="44.56859" lon="6.31473">
        <ele>1592</ele>
        <time>2024-07-08T12:27:02Z</time>
      </trkpt>
      <trkpt lat="44.56856" lon="6.31463">
        <ele>1587</ele>
        <time>2024-07-08T12:27:08Z</time>
      </trkpt>
      <trkpt lat="44.56853" lon="6.31457">
        <ele>1590</ele>
        <time>2024-07-08T12:27:14Z</time>
      </trkpt>
      <trkpt lat="44.56852" lon="6.31449">
        <ele>1594</ele>
        <time>2024-07-08T12:27:20Z</time>
      </trkpt>
      <trkpt lat="44.56853" lon="6.31441">
        <ele>1591</ele>
        <time>2024-07-08T12:27:26Z</time>
      </trkpt>
      <trkpt lat="44.56853" lon="6.31414">
        <ele>1595</ele>
        <time>2024-07-08T12:27:31Z</time>
      </trkpt>
      <trkpt lat="44.56855" lon="6.31408">
        <ele>1595</ele>
        <time>2024-07-08T12:27:34Z</time>
      </trkpt>
      <trkpt lat="44.56856" lon="6.31399">
        <ele>1595</ele>
        <time>2024-07-08T12:27:38Z</time>
      </trkpt>
      <trkpt lat="44.56856" lon="6.31395">
        <ele>1595</ele>
        <time>2024-07-08T12:27:41Z</time>
      </trkpt>
      <trkpt lat="44.56862" lon="6.31395">
        <ele>1593</ele>
        <time>2024-07-08T12:27:45Z</time>
      </trkpt>
      <trkpt lat="44.56864" lon="6.31394">
        <ele>1592</ele>
        <time>2024-07-08T12:27:48Z</time>
      </trkpt>
      <trkpt lat="44.56871" lon="6.31375">
        <ele>1591</ele>
        <time>2024-07-08T12:27:56Z</time>
      </trkpt>
      <trkpt lat="44.56873" lon="6.31367">
        <ele>1591</ele>
        <time>2024-07-08T12:28:03Z</time>
      </trkpt>
      <trkpt lat="44.56876" lon="6.3136">
        <ele>1590</ele>
        <time>2024-07-08T12:28:08Z</time>
      </trkpt>
      <trkpt lat="44.5688" lon="6.3135">
        <ele>1590</ele>
        <time>2024-07-08T12:28:14Z</time>
      </trkpt>
      <trkpt lat="44.56882" lon="6.31347">
        <ele>1590</ele>
        <time>2024-07-08T12:28:19Z</time>
      </trkpt>
      <trkpt lat="44.56883" lon="6.31333">
        <ele>1589</ele>
        <time>2024-07-08T12:28:25Z</time>
      </trkpt>
      <trkpt lat="44.56885" lon="6.31325">
        <ele>1588</ele>
        <time>2024-07-08T12:28:31Z</time>
      </trkpt>
      <trkpt lat="44.56896" lon="6.31313">
        <ele>1586</ele>
        <time>2024-07-08T12:28:38Z</time>
      </trkpt>
      <trkpt lat="44.569" lon="6.31309">
        <ele>1585</ele>
        <time>2024-07-08T12:28:44Z</time>
      </trkpt>
      <trkpt lat="44.56905" lon="6.31303">
        <ele>1584</ele>
        <time>2024-07-08T12:28:50Z</time>
      </trkpt>
      <trkpt lat="44.56909" lon="6.31296">
        <ele>1583</ele>
        <time>2024-07-08T12:28:56Z</time>
      </trkpt>
      <trkpt lat="44.56911" lon="6.31293">
        <ele>1583</ele>
        <time>2024-07-08T12:29:00Z</time>
      </trkpt>
      <trkpt lat="44.5692" lon="6.31276">
        <ele>1583</ele>
        <time>2024-07-08T12:29:07Z</time>
      </trkpt>
      <trkpt lat="44.56929" lon="6.31272">
        <ele>1582</ele>
        <time>2024-07-08T12:29:13Z</time>
      </trkpt>
      <trkpt lat="44.56936" lon="6.31266">
        <ele>1580</ele>
        <time>2024-07-08T12:29:19Z</time>
      </trkpt>
      <trkpt lat="44.56945" lon="6.31257">
        <ele>1580</ele>
        <time>2024-07-08T12:29:21Z</time>
      </trkpt>
      <trkpt lat="44.56949" lon="6.31254">
        <ele>1580</ele>
        <time>2024-07-08T12:29:25Z</time>
      </trkpt>
      <trkpt lat="44.56951" lon="6.31255">
        <ele>1578</ele>
        <time>2024-07-08T12:29:31Z</time>
      </trkpt>
      <trkpt lat="44.56956" lon="6.31251">
        <ele>1578</ele>
        <time>2024-07-08T12:29:37Z</time>
      </trkpt>
      <trkpt lat="44.5696" lon="6.31245">
        <ele>1567</ele>
        <time>2024-07-08T12:29:43Z</time>
      </trkpt>
      <trkpt lat="44.56964" lon="6.31237">
        <ele>1565</ele>
        <time>2024-07-08T12:29:49Z</time>
      </trkpt>
      <trkpt lat="44.5697" lon="6.31227">
        <ele>1577</ele>
        <time>2024-07-08T12:29:55Z</time>
      </trkpt>
      <trkpt lat="44.56977" lon="6.31221">
        <ele>1577</ele>
        <time>2024-07-08T12:30:01Z</time>
      </trkpt>
      <trkpt lat="44.56984" lon="6.31214">
        <ele>1573</ele>
        <time>2024-07-08T12:30:08Z</time>
      </trkpt>
      <trkpt lat="44.56988" lon="6.31209">
        <ele>1570</ele>
        <time>2024-07-08T12:30:14Z</time>
      </trkpt>
      <trkpt lat="44.56992" lon="6.31205">
        <ele>1570</ele>
        <time>2024-07-08T12:30:20Z</time>
      </trkpt>
      <trkpt lat="44.56995" lon="6.312">
        <ele>1565</ele>
        <time>2024-07-08T12:30:26Z</time>
      </trkpt>
      <trkpt lat="44.56995" lon="6.31188">
        <ele>1569</ele>
        <time>2024-07-08T12:30:32Z</time>
      </trkpt>
      <trkpt lat="44.56981" lon="6.31172">
        <ele>1567</ele>
        <time>2024-07-08T12:30:39Z</time>
      </trkpt>
      <trkpt lat="44.56978" lon="6.31167">
        <ele>1575</ele>
        <time>2024-07-08T12:30:44Z</time>
      </trkpt>
      <trkpt lat="44.56974" lon="6.31158">
        <ele>1576</ele>
        <time>2024-07-08T12:30:50Z</time>
      </trkpt>
      <trkpt lat="44.56969" lon="6.31152">
        <ele>1583</ele>
        <time>2024-07-08T12:30:56Z</time>
      </trkpt>
      <trkpt lat="44.56972" lon="6.31155">
        <ele>1583</ele>
        <time>2024-07-08T12:31:01Z</time>
      </trkpt>
      <trkpt lat="44.56973" lon="6.31167">
        <ele>1571</ele>
        <time>2024-07-08T12:31:08Z</time>
      </trkpt>
      <trkpt lat="44.56974" lon="6.3117">
        <ele>1573</ele>
        <time>2024-07-08T12:31:14Z</time>
      </trkpt>
      <trkpt lat="44.56972" lon="6.31168">
        <ele>1573</ele>
        <time>2024-07-08T12:31:26Z</time>
      </trkpt>
      <trkpt lat="44.56972" lon="6.31164">
        <ele>1574</ele>
        <time>2024-07-08T12:31:32Z</time>
      </trkpt>
      <trkpt lat="44.56969" lon="6.31161">
        <ele>1583</ele>
        <time>2024-07-08T12:31:44Z</time>
      </trkpt>
      <trkpt lat="44.56966" lon="6.31159">
        <ele>1569</ele>
        <time>2024-07-08T12:31:46Z</time>
      </trkpt>
      <trkpt lat="44.56961" lon="6.31165">
        <ele>1568</ele>
        <time>2024-07-08T12:31:49Z</time>
      </trkpt>
      <trkpt lat="44.56958" lon="6.31173">
        <ele>1569</ele>
        <time>2024-07-08T12:31:53Z</time>
      </trkpt>
      <trkpt lat="44.56955" lon="6.31177">
        <ele>1569</ele>
        <time>2024-07-08T12:31:56Z</time>
      </trkpt>
      <trkpt lat="44.56952" lon="6.31181">
        <ele>1569</ele>
        <time>2024-07-08T12:31:59Z</time>
      </trkpt>
      <trkpt lat="44.56954" lon="6.31187">
        <ele>1569</ele>
        <time>2024-07-08T12:32:02Z</time>
      </trkpt>
      <trkpt lat="44.56949" lon="6.31188">
        <ele>1567</ele>
        <time>2024-07-08T12:32:05Z</time>
      </trkpt>
      <trkpt lat="44.56947" lon="6.31193">
        <ele>1567</ele>
        <time>2024-07-08T12:32:08Z</time>
      </trkpt>
      <trkpt lat="44.56944" lon="6.31183">
        <ele>1565</ele>
        <time>2024-07-08T12:32:14Z</time>
      </trkpt>
      <trkpt lat="44.56936" lon="6.31187">
        <ele>1564</ele>
        <time>2024-07-08T12:32:23Z</time>
      </trkpt>
      <trkpt lat="44.56933" lon="6.31189">
        <ele>1564</ele>
        <time>2024-07-08T12:32:26Z</time>
      </trkpt>
      <trkpt lat="44.56925" lon="6.31204">
        <ele>1564</ele>
        <time>2024-07-08T12:32:32Z</time>
      </trkpt>
      <trkpt lat="44.56919" lon="6.31213">
        <ele>1562</ele>
        <time>2024-07-08T12:32:38Z</time>
      </trkpt>
      <trkpt lat="44.56911" lon="6.31221">
        <ele>1560</ele>
        <time>2024-07-08T12:32:44Z</time>
      </trkpt>
      <trkpt lat="44.56903" lon="6.31224">
        <ele>1560</ele>
        <time>2024-07-08T12:32:50Z</time>
      </trkpt>
      <trkpt lat="44.56895" lon="6.31226">
        <ele>1559</ele>
        <time>2024-07-08T12:32:56Z</time>
      </trkpt>
      <trkpt lat="44.56888" lon="6.31224">
        <ele>1559</ele>
        <time>2024-07-08T12:33:02Z</time>
      </trkpt>
      <trkpt lat="44.56882" lon="6.31222">
        <ele>1557</ele>
        <time>2024-07-08T12:33:08Z</time>
      </trkpt>
      <trkpt lat="44.56874" lon="6.31223">
        <ele>1557</ele>
        <time>2024-07-08T12:33:14Z</time>
      </trkpt>
      <trkpt lat="44.56867" lon="6.31227">
        <ele>1556</ele>
        <time>2024-07-08T12:33:20Z</time>
      </trkpt>
      <trkpt lat="44.56858" lon="6.31232">
        <ele>1554</ele>
        <time>2024-07-08T12:33:26Z</time>
      </trkpt>
      <trkpt lat="44.5685" lon="6.31234">
        <ele>1553</ele>
        <time>2024-07-08T12:33:32Z</time>
      </trkpt>
      <trkpt lat="44.56841" lon="6.31235">
        <ele>1553</ele>
        <time>2024-07-08T12:33:38Z</time>
      </trkpt>
      <trkpt lat="44.56836" lon="6.3124">
        <ele>1552</ele>
        <time>2024-07-08T12:33:44Z</time>
      </trkpt>
      <trkpt lat="44.56831" lon="6.31244">
        <ele>1547</ele>
        <time>2024-07-08T12:33:51Z</time>
      </trkpt>
      <trkpt lat="44.56821" lon="6.3125">
        <ele>1549</ele>
        <time>2024-07-08T12:33:56Z</time>
      </trkpt>
      <trkpt lat="44.56813" lon="6.3125">
        <ele>1549</ele>
        <time>2024-07-08T12:34:02Z</time>
      </trkpt>
      <trkpt lat="44.56809" lon="6.3125">
        <ele>1535</ele>
        <time>2024-07-08T12:34:06Z</time>
      </trkpt>
      <trkpt lat="44.56801" lon="6.31247">
        <ele>1539</ele>
        <time>2024-07-08T12:34:10Z</time>
      </trkpt>
      <trkpt lat="44.56795" lon="6.31246">
        <ele>1533</ele>
        <time>2024-07-08T12:34:16Z</time>
      </trkpt>
      <trkpt lat="44.5679" lon="6.31247">
        <ele>1534</ele>
        <time>2024-07-08T12:34:22Z</time>
      </trkpt>
      <trkpt lat="44.56783" lon="6.31246">
        <ele>1536</ele>
        <time>2024-07-08T12:34:28Z</time>
      </trkpt>
      <trkpt lat="44.56781" lon="6.31246">
        <ele>1536</ele>
        <time>2024-07-08T12:34:32Z</time>
      </trkpt>
      <trkpt lat="44.56772" lon="6.31243">
        <ele>1528</ele>
        <time>2024-07-08T12:34:38Z</time>
      </trkpt>
      <trkpt lat="44.56763" lon="6.31244">
        <ele>1533</ele>
        <time>2024-07-08T12:34:44Z</time>
      </trkpt>
      <trkpt lat="44.56757" lon="6.31242">
        <ele>1537</ele>
        <time>2024-07-08T12:34:50Z</time>
      </trkpt>
      <trkpt lat="44.56754" lon="6.31241">
        <ele>1540</ele>
        <time>2024-07-08T12:34:56Z</time>
      </trkpt>
      <trkpt lat="44.56745" lon="6.31241">
        <ele>1538</ele>
        <time>2024-07-08T12:35:02Z</time>
      </trkpt>
      <trkpt lat="44.56737" lon="6.31246">
        <ele>1534</ele>
        <time>2024-07-08T12:35:08Z</time>
      </trkpt>
      <trkpt lat="44.56729" lon="6.31255">
        <ele>1538</ele>
        <time>2024-07-08T12:35:16Z</time>
      </trkpt>
      <trkpt lat="44.56725" lon="6.31261">
        <ele>1536</ele>
        <time>2024-07-08T12:35:22Z</time>
      </trkpt>
      <trkpt lat="44.56724" lon="6.31264">
        <ele>1536</ele>
        <time>2024-07-08T12:35:26Z</time>
      </trkpt>
      <trkpt lat="44.56721" lon="6.31273">
        <ele>1532</ele>
        <time>2024-07-08T12:35:32Z</time>
      </trkpt>
      <trkpt lat="44.56717" lon="6.31279">
        <ele>1527</ele>
        <time>2024-07-08T12:35:38Z</time>
      </trkpt>
      <trkpt lat="44.56713" lon="6.31288">
        <ele>1537</ele>
        <time>2024-07-08T12:35:44Z</time>
      </trkpt>
      <trkpt lat="44.56708" lon="6.31295">
        <ele>1536</ele>
        <time>2024-07-08T12:35:50Z</time>
      </trkpt>
      <trkpt lat="44.56703" lon="6.31301">
        <ele>1533</ele>
        <time>2024-07-08T12:35:56Z</time>
      </trkpt>
      <trkpt lat="44.56694" lon="6.31314">
        <ele>1532</ele>
        <time>2024-07-08T12:36:04Z</time>
      </trkpt>
      <trkpt lat="44.56692" lon="6.31316">
        <ele>1532</ele>
        <time>2024-07-08T12:36:08Z</time>
      </trkpt>
      <trkpt lat="44.56691" lon="6.31311">
        <ele>1542</ele>
        <time>2024-07-08T12:36:14Z</time>
      </trkpt>
      <trkpt lat="44.56687" lon="6.31307">
        <ele>1545</ele>
        <time>2024-07-08T12:36:20Z</time>
      </trkpt>
      <trkpt lat="44.56684" lon="6.31299">
        <ele>1534</ele>
        <time>2024-07-08T12:36:26Z</time>
      </trkpt>
      <trkpt lat="44.56694" lon="6.31291">
        <ele>1537</ele>
        <time>2024-07-08T12:36:35Z</time>
      </trkpt>
      <trkpt lat="44.56695" lon="6.31288">
        <ele>1537</ele>
        <time>2024-07-08T12:36:38Z</time>
      </trkpt>
      <trkpt lat="44.56699" lon="6.31287">
        <ele>1528</ele>
        <time>2024-07-08T12:36:41Z</time>
      </trkpt>
      <trkpt lat="44.567" lon="6.31284">
        <ele>1528</ele>
        <time>2024-07-08T12:36:44Z</time>
      </trkpt>
      <trkpt lat="44.567" lon="6.31277">
        <ele>1526</ele>
        <time>2024-07-08T12:36:50Z</time>
      </trkpt>
      <trkpt lat="44.56701" lon="6.31266">
        <ele>1526</ele>
        <time>2024-07-08T12:36:56Z</time>
      </trkpt>
      <trkpt lat="44.56702" lon="6.31257">
        <ele>1525</ele>
        <time>2024-07-08T12:37:02Z</time>
      </trkpt>
      <trkpt lat="44.56701" lon="6.31253">
        <ele>1521</ele>
        <time>2024-07-08T12:37:08Z</time>
      </trkpt>
      <trkpt lat="44.56698" lon="6.31246">
        <ele>1516</ele>
        <time>2024-07-08T12:37:14Z</time>
      </trkpt>
      <trkpt lat="44.56693" lon="6.31239">
        <ele>1514</ele>
        <time>2024-07-08T12:37:20Z</time>
      </trkpt>
      <trkpt lat="44.56689" lon="6.31232">
        <ele>1515</ele>
        <time>2024-07-08T12:37:26Z</time>
      </trkpt>
      <trkpt lat="44.56684" lon="6.31223">
        <ele>1517</ele>
        <time>2024-07-08T12:37:32Z</time>
      </trkpt>
      <trkpt lat="44.56681" lon="6.31214">
        <ele>1519</ele>
        <time>2024-07-08T12:37:38Z</time>
      </trkpt>
      <trkpt lat="44.56676" lon="6.31203">
        <ele>1518</ele>
        <time>2024-07-08T12:37:44Z</time>
      </trkpt>
      <trkpt lat="44.5667" lon="6.31194">
        <ele>1520</ele>
        <time>2024-07-08T12:37:50Z</time>
      </trkpt>
      <trkpt lat="44.56663" lon="6.3119">
        <ele>1518</ele>
        <time>2024-07-08T12:37:56Z</time>
      </trkpt>
      <trkpt lat="44.56656" lon="6.31188">
        <ele>1518</ele>
        <time>2024-07-08T12:38:02Z</time>
      </trkpt>
      <trkpt lat="44.56652" lon="6.31194">
        <ele>1521</ele>
        <time>2024-07-08T12:38:08Z</time>
      </trkpt>
      <trkpt lat="44.56647" lon="6.312">
        <ele>1516</ele>
        <time>2024-07-08T12:38:14Z</time>
      </trkpt>
      <trkpt lat="44.56646" lon="6.31209">
        <ele>1514</ele>
        <time>2024-07-08T12:38:20Z</time>
      </trkpt>
      <trkpt lat="44.56643" lon="6.31219">
        <ele>1513</ele>
        <time>2024-07-08T12:38:26Z</time>
      </trkpt>
      <trkpt lat="44.56638" lon="6.31226">
        <ele>1509</ele>
        <time>2024-07-08T12:38:32Z</time>
      </trkpt>
      <trkpt lat="44.56633" lon="6.31235">
        <ele>1505</ele>
        <time>2024-07-08T12:38:38Z</time>
      </trkpt>
      <trkpt lat="44.56628" lon="6.31244">
        <ele>1500</ele>
        <time>2024-07-08T12:38:44Z</time>
      </trkpt>
      <trkpt lat="44.56621" lon="6.31251">
        <ele>1494</ele>
        <time>2024-07-08T12:38:50Z</time>
      </trkpt>
      <trkpt lat="44.56615" lon="6.31259">
        <ele>1502</ele>
        <time>2024-07-08T12:38:56Z</time>
      </trkpt>
      <trkpt lat="44.5661" lon="6.31256">
        <ele>1510</ele>
        <time>2024-07-08T12:39:00Z</time>
      </trkpt>
      <trkpt lat="44.56605" lon="6.31258">
        <ele>1510</ele>
        <time>2024-07-08T12:39:03Z</time>
      </trkpt>
      <trkpt lat="44.56597" lon="6.31262">
        <ele>1510</ele>
        <time>2024-07-08T12:39:06Z</time>
      </trkpt>
      <trkpt lat="44.56594" lon="6.31264">
        <ele>1510</ele>
        <time>2024-07-08T12:39:09Z</time>
      </trkpt>
      <trkpt lat="44.56589" lon="6.31267">
        <ele>1509</ele>
        <time>2024-07-08T12:39:11Z</time>
      </trkpt>
      <trkpt lat="44.56584" lon="6.31268">
        <ele>1508</ele>
        <time>2024-07-08T12:39:15Z</time>
      </trkpt>
      <trkpt lat="44.5658" lon="6.31269">
        <ele>1508</ele>
        <time>2024-07-08T12:39:18Z</time>
      </trkpt>
      <trkpt lat="44.56577" lon="6.31269">
        <ele>1506</ele>
        <time>2024-07-08T12:39:20Z</time>
      </trkpt>
      <trkpt lat="44.56574" lon="6.31269">
        <ele>1508</ele>
        <time>2024-07-08T12:39:23Z</time>
      </trkpt>
      <trkpt lat="44.5657" lon="6.31268">
        <ele>1507</ele>
        <time>2024-07-08T12:39:26Z</time>
      </trkpt>
      <trkpt lat="44.56567" lon="6.31269">
        <ele>1507</ele>
        <time>2024-07-08T12:39:29Z</time>
      </trkpt>
      <trkpt lat="44.56564" lon="6.31269">
        <ele>1507</ele>
        <time>2024-07-08T12:39:32Z</time>
      </trkpt>
      <trkpt lat="44.56558" lon="6.3127">
        <ele>1507</ele>
        <time>2024-07-08T12:39:37Z</time>
      </trkpt>
      <trkpt lat="44.56553" lon="6.3128">
        <ele>1503</ele>
        <time>2024-07-08T12:39:43Z</time>
      </trkpt>
      <trkpt lat="44.56545" lon="6.31288">
        <ele>1503</ele>
        <time>2024-07-08T12:39:49Z</time>
      </trkpt>
      <trkpt lat="44.56548" lon="6.31292">
        <ele>1504</ele>
        <time>2024-07-08T12:39:55Z</time>
      </trkpt>
      <trkpt lat="44.56548" lon="6.313">
        <ele>1503</ele>
        <time>2024-07-08T12:40:01Z</time>
      </trkpt>
      <trkpt lat="44.56547" lon="6.31308">
        <ele>1502</ele>
        <time>2024-07-08T12:40:07Z</time>
      </trkpt>
      <trkpt lat="44.56547" lon="6.31314">
        <ele>1500</ele>
        <time>2024-07-08T12:40:13Z</time>
      </trkpt>
      <trkpt lat="44.56553" lon="6.31326">
        <ele>1500</ele>
        <time>2024-07-08T12:40:19Z</time>
      </trkpt>
      <trkpt lat="44.56559" lon="6.31337">
        <ele>1497</ele>
        <time>2024-07-08T12:40:25Z</time>
      </trkpt>
      <trkpt lat="44.56565" lon="6.31347">
        <ele>1496</ele>
        <time>2024-07-08T12:40:31Z</time>
      </trkpt>
      <trkpt lat="44.5657" lon="6.3136">
        <ele>1496</ele>
        <time>2024-07-08T12:40:37Z</time>
      </trkpt>
      <trkpt lat="44.56568" lon="6.31365">
        <ele>1496</ele>
        <time>2024-07-08T12:40:43Z</time>
      </trkpt>
      <trkpt lat="44.56565" lon="6.31372">
        <ele>1496</ele>
        <time>2024-07-08T12:40:46Z</time>
      </trkpt>
      <trkpt lat="44.56563" lon="6.31374">
        <ele>1493</ele>
        <time>2024-07-08T12:40:49Z</time>
      </trkpt>
      <trkpt lat="44.56561" lon="6.31382">
        <ele>1493</ele>
        <time>2024-07-08T12:40:52Z</time>
      </trkpt>
      <trkpt lat="44.56559" lon="6.31387">
        <ele>1493</ele>
        <time>2024-07-08T12:40:56Z</time>
      </trkpt>
      <trkpt lat="44.56564" lon="6.31398">
        <ele>1493</ele>
        <time>2024-07-08T12:41:01Z</time>
      </trkpt>
      <trkpt lat="44.56571" lon="6.31398">
        <ele>1490</ele>
        <time>2024-07-08T12:41:07Z</time>
      </trkpt>
      <trkpt lat="44.56572" lon="6.31407">
        <ele>1490</ele>
        <time>2024-07-08T12:41:13Z</time>
      </trkpt>
      <trkpt lat="44.56572" lon="6.31416">
        <ele>1490</ele>
        <time>2024-07-08T12:41:19Z</time>
      </trkpt>
      <trkpt lat="44.56571" lon="6.31425">
        <ele>1491</ele>
        <time>2024-07-08T12:41:25Z</time>
      </trkpt>
      <trkpt lat="44.56569" lon="6.31435">
        <ele>1489</ele>
        <time>2024-07-08T12:41:31Z</time>
      </trkpt>
      <trkpt lat="44.56567" lon="6.31444">
        <ele>1470</ele>
        <time>2024-07-08T12:41:37Z</time>
      </trkpt>
      <trkpt lat="44.56565" lon="6.31455">
        <ele>1470</ele>
        <time>2024-07-08T12:41:43Z</time>
      </trkpt>
      <trkpt lat="44.56563" lon="6.31466">
        <ele>1464</ele>
        <time>2024-07-08T12:41:49Z</time>
      </trkpt>
      <trkpt lat="44.56558" lon="6.31478">
        <ele>1469</ele>
        <time>2024-07-08T12:41:55Z</time>
      </trkpt>
      <trkpt lat="44.56549" lon="6.31501">
        <ele>1487</ele>
        <time>2024-07-08T12:42:01Z</time>
      </trkpt>
      <trkpt lat="44.56545" lon="6.31496">
        <ele>1487</ele>
        <time>2024-07-08T12:42:04Z</time>
      </trkpt>
      <trkpt lat="44.56542" lon="6.31494">
        <ele>1485</ele>
        <time>2024-07-08T12:42:07Z</time>
      </trkpt>
      <trkpt lat="44.56535" lon="6.31492">
        <ele>1484</ele>
        <time>2024-07-08T12:42:09Z</time>
      </trkpt>
      <trkpt lat="44.5653" lon="6.31493">
        <ele>1484</ele>
        <time>2024-07-08T12:42:16Z</time>
      </trkpt>
      <trkpt lat="44.56526" lon="6.31495">
        <ele>1484</ele>
        <time>2024-07-08T12:42:19Z</time>
      </trkpt>
      <trkpt lat="44.56522" lon="6.31496">
        <ele>1484</ele>
        <time>2024-07-08T12:42:22Z</time>
      </trkpt>
      <trkpt lat="44.56519" lon="6.31499">
        <ele>1484</ele>
        <time>2024-07-08T12:42:25Z</time>
      </trkpt>
      <trkpt lat="44.56517" lon="6.31502">
        <ele>1484</ele>
        <time>2024-07-08T12:42:28Z</time>
      </trkpt>
      <trkpt lat="44.56509" lon="6.31509">
        <ele>1484</ele>
        <time>2024-07-08T12:42:35Z</time>
      </trkpt>
      <trkpt lat="44.56507" lon="6.31507">
        <ele>1483</ele>
        <time>2024-07-08T12:42:41Z</time>
      </trkpt>
      <trkpt lat="44.56498" lon="6.31516">
        <ele>1483</ele>
        <time>2024-07-08T12:42:47Z</time>
      </trkpt>
      <trkpt lat="44.56493" lon="6.31524">
        <ele>1483</ele>
        <time>2024-07-08T12:42:53Z</time>
      </trkpt>
      <trkpt lat="44.56484" lon="6.31531">
        <ele>1482</ele>
        <time>2024-07-08T12:42:56Z</time>
      </trkpt>
      <trkpt lat="44.56479" lon="6.31536">
        <ele>1482</ele>
        <time>2024-07-08T12:43:01Z</time>
      </trkpt>
      <trkpt lat="44.56472" lon="6.31543">
        <ele>1482</ele>
        <time>2024-07-08T12:43:05Z</time>
      </trkpt>
      <trkpt lat="44.56472" lon="6.31553">
        <ele>1483</ele>
        <time>2024-07-08T12:43:11Z</time>
      </trkpt>
      <trkpt lat="44.56468" lon="6.31565">
        <ele>1482</ele>
        <time>2024-07-08T12:43:17Z</time>
      </trkpt>
      <trkpt lat="44.56464" lon="6.31574">
        <ele>1482</ele>
        <time>2024-07-08T12:43:20Z</time>
      </trkpt>
      <trkpt lat="44.56462" lon="6.31578">
        <ele>1482</ele>
        <time>2024-07-08T12:43:23Z</time>
      </trkpt>
      <trkpt lat="44.56456" lon="6.31588">
        <ele>1482</ele>
        <time>2024-07-08T12:43:29Z</time>
      </trkpt>
      <trkpt lat="44.5644" lon="6.31605">
        <ele>1480</ele>
        <time>2024-07-08T12:43:41Z</time>
      </trkpt>
      <trkpt lat="44.56438" lon="6.31613">
        <ele>1479</ele>
        <time>2024-07-08T12:43:44Z</time>
      </trkpt>
      <trkpt lat="44.56434" lon="6.31618">
        <ele>1479</ele>
        <time>2024-07-08T12:43:47Z</time>
      </trkpt>
      <trkpt lat="44.56431" lon="6.31623">
        <ele>1479</ele>
        <time>2024-07-08T12:43:50Z</time>
      </trkpt>
      <trkpt lat="44.56428" lon="6.31626">
        <ele>1479</ele>
        <time>2024-07-08T12:43:53Z</time>
      </trkpt>
      <trkpt lat="44.56421" lon="6.31631">
        <ele>1480</ele>
        <time>2024-07-08T12:43:59Z</time>
      </trkpt>
      <trkpt lat="44.56417" lon="6.3163">
        <ele>1488</ele>
        <time>2024-07-08T12:44:02Z</time>
      </trkpt>
      <trkpt lat="44.5641" lon="6.31632">
        <ele>1488</ele>
        <time>2024-07-08T12:44:05Z</time>
      </trkpt>
      <trkpt lat="44.56405" lon="6.31631">
        <ele>1488</ele>
        <time>2024-07-08T12:44:11Z</time>
      </trkpt>
      <trkpt lat="44.56398" lon="6.31635">
        <ele>1490</ele>
        <time>2024-07-08T12:44:17Z</time>
      </trkpt>
      <trkpt lat="44.56391" lon="6.31637">
        <ele>1490</ele>
        <time>2024-07-08T12:44:23Z</time>
      </trkpt>
      <trkpt lat="44.56384" lon="6.31637">
        <ele>1475</ele>
        <time>2024-07-08T12:44:29Z</time>
      </trkpt>
      <trkpt lat="44.56379" lon="6.31635">
        <ele>1476</ele>
        <time>2024-07-08T12:44:35Z</time>
      </trkpt>
      <trkpt lat="44.56371" lon="6.31642">
        <ele>1471</ele>
        <time>2024-07-08T12:44:41Z</time>
      </trkpt>
      <trkpt lat="44.56365" lon="6.31648">
        <ele>1470</ele>
        <time>2024-07-08T12:44:44Z</time>
      </trkpt>
      <trkpt lat="44.56362" lon="6.31651">
        <ele>1470</ele>
        <time>2024-07-08T12:44:47Z</time>
      </trkpt>
      <trkpt lat="44.56353" lon="6.31656">
        <ele>1474</ele>
        <time>2024-07-08T12:44:53Z</time>
      </trkpt>
      <trkpt lat="44.56344" lon="6.31657">
        <ele>1483</ele>
        <time>2024-07-08T12:44:59Z</time>
      </trkpt>
      <trkpt lat="44.5634" lon="6.31657">
        <ele>1485</ele>
        <time>2024-07-08T12:45:05Z</time>
      </trkpt>
      <trkpt lat="44.5633" lon="6.31659">
        <ele>1487</ele>
        <time>2024-07-08T12:45:11Z</time>
      </trkpt>
      <trkpt lat="44.56322" lon="6.31655">
        <ele>1487</ele>
        <time>2024-07-08T12:45:17Z</time>
      </trkpt>
      <trkpt lat="44.56314" lon="6.31654">
        <ele>1482</ele>
        <time>2024-07-08T12:45:23Z</time>
      </trkpt>
      <trkpt lat="44.56306" lon="6.31653">
        <ele>1487</ele>
        <time>2024-07-08T12:45:29Z</time>
      </trkpt>
      <trkpt lat="44.56299" lon="6.31652">
        <ele>1479</ele>
        <time>2024-07-08T12:45:35Z</time>
      </trkpt>
      <trkpt lat="44.5629" lon="6.31649">
        <ele>1480</ele>
        <time>2024-07-08T12:45:41Z</time>
      </trkpt>
      <trkpt lat="44.56282" lon="6.31645">
        <ele>1473</ele>
        <time>2024-07-08T12:45:47Z</time>
      </trkpt>
      <trkpt lat="44.56273" lon="6.31644">
        <ele>1470</ele>
        <time>2024-07-08T12:45:53Z</time>
      </trkpt>
      <trkpt lat="44.56267" lon="6.31644">
        <ele>1475</ele>
        <time>2024-07-08T12:45:59Z</time>
      </trkpt>
      <trkpt lat="44.5626" lon="6.31646">
        <ele>1468</ele>
        <time>2024-07-08T12:46:05Z</time>
      </trkpt>
      <trkpt lat="44.56252" lon="6.3165">
        <ele>1467</ele>
        <time>2024-07-08T12:46:11Z</time>
      </trkpt>
      <trkpt lat="44.56242" lon="6.31652">
        <ele>1467</ele>
        <time>2024-07-08T12:46:17Z</time>
      </trkpt>
      <trkpt lat="44.56232" lon="6.31654">
        <ele>1466</ele>
        <time>2024-07-08T12:46:23Z</time>
      </trkpt>
      <trkpt lat="44.56227" lon="6.31655">
        <ele>1467</ele>
        <time>2024-07-08T12:46:29Z</time>
      </trkpt>
      <trkpt lat="44.5622" lon="6.31658">
        <ele>1467</ele>
        <time>2024-07-08T12:46:35Z</time>
      </trkpt>
      <trkpt lat="44.56213" lon="6.3166">
        <ele>1465</ele>
        <time>2024-07-08T12:46:41Z</time>
      </trkpt>
      <trkpt lat="44.56205" lon="6.31665">
        <ele>1463</ele>
        <time>2024-07-08T12:46:47Z</time>
      </trkpt>
      <trkpt lat="44.56197" lon="6.31669">
        <ele>1464</ele>
        <time>2024-07-08T12:46:53Z</time>
      </trkpt>
      <trkpt lat="44.56187" lon="6.3167">
        <ele>1464</ele>
        <time>2024-07-08T12:46:59Z</time>
      </trkpt>
      <trkpt lat="44.56184" lon="6.3167">
        <ele>1463</ele>
        <time>2024-07-08T12:47:04Z</time>
      </trkpt>
      <trkpt lat="44.56173" lon="6.31675">
        <ele>1454</ele>
        <time>2024-07-08T12:47:08Z</time>
      </trkpt>
      <trkpt lat="44.5617" lon="6.31677">
        <ele>1454</ele>
        <time>2024-07-08T12:47:11Z</time>
      </trkpt>
      <trkpt lat="44.56163" lon="6.31683">
        <ele>1459</ele>
        <time>2024-07-08T12:47:17Z</time>
      </trkpt>
      <trkpt lat="44.56157" lon="6.31688">
        <ele>1459</ele>
        <time>2024-07-08T12:47:23Z</time>
      </trkpt>
      <trkpt lat="44.56156" lon="6.31684">
        <ele>1451</ele>
        <time>2024-07-08T12:47:26Z</time>
      </trkpt>
      <trkpt lat="44.56154" lon="6.31683">
        <ele>1451</ele>
        <time>2024-07-08T12:47:29Z</time>
      </trkpt>
      <trkpt lat="44.56152" lon="6.31682">
        <ele>1451</ele>
        <time>2024-07-08T12:47:32Z</time>
      </trkpt>
      <trkpt lat="44.56145" lon="6.31687">
        <ele>1450</ele>
        <time>2024-07-08T12:47:39Z</time>
      </trkpt>
      <trkpt lat="44.56147" lon="6.31685">
        <ele>1449</ele>
        <time>2024-07-08T12:47:42Z</time>
      </trkpt>
      <trkpt lat="44.56136" lon="6.31694">
        <ele>1448</ele>
        <time>2024-07-08T12:47:45Z</time>
      </trkpt>
      <trkpt lat="44.56131" lon="6.31697">
        <ele>1447</ele>
        <time>2024-07-08T12:47:49Z</time>
      </trkpt>
      <trkpt lat="44.56127" lon="6.317">
        <ele>1448</ele>
        <time>2024-07-08T12:47:52Z</time>
      </trkpt>
      <trkpt lat="44.56124" lon="6.31703">
        <ele>1447</ele>
        <time>2024-07-08T12:47:54Z</time>
      </trkpt>
      <trkpt lat="44.56123" lon="6.31707">
        <ele>1445</ele>
        <time>2024-07-08T12:47:58Z</time>
      </trkpt>
      <trkpt lat="44.56123" lon="6.3171">
        <ele>1445</ele>
        <time>2024-07-08T12:48:00Z</time>
      </trkpt>
      <trkpt lat="44.56119" lon="6.31717">
        <ele>1443</ele>
        <time>2024-07-08T12:48:04Z</time>
      </trkpt>
      <trkpt lat="44.56116" lon="6.31723">
        <ele>1443</ele>
        <time>2024-07-08T12:48:08Z</time>
      </trkpt>
      <trkpt lat="44.56118" lon="6.31738">
        <ele>1442</ele>
        <time>2024-07-08T12:48:14Z</time>
      </trkpt>
      <trkpt lat="44.5612" lon="6.31749">
        <ele>1442</ele>
        <time>2024-07-08T12:48:17Z</time>
      </trkpt>
      <trkpt lat="44.5612" lon="6.31754">
        <ele>1442</ele>
        <time>2024-07-08T12:48:20Z</time>
      </trkpt>
      <trkpt lat="44.56123" lon="6.31765">
        <ele>1443</ele>
        <time>2024-07-08T12:48:26Z</time>
      </trkpt>
      <trkpt lat="44.56125" lon="6.31773">
        <ele>1440</ele>
        <time>2024-07-08T12:48:33Z</time>
      </trkpt>
      <trkpt lat="44.56127" lon="6.31779">
        <ele>1439</ele>
        <time>2024-07-08T12:48:39Z</time>
      </trkpt>
      <trkpt lat="44.56128" lon="6.31789">
        <ele>1438</ele>
        <time>2024-07-08T12:48:45Z</time>
      </trkpt>
      <trkpt lat="44.56129" lon="6.31792">
        <ele>1438</ele>
        <time>2024-07-08T12:48:50Z</time>
      </trkpt>
      <trkpt lat="44.56132" lon="6.31805">
        <ele>1439</ele>
        <time>2024-07-08T12:48:56Z</time>
      </trkpt>
      <trkpt lat="44.56138" lon="6.31814">
        <ele>1440</ele>
        <time>2024-07-08T12:49:02Z</time>
      </trkpt>
      <trkpt lat="44.56141" lon="6.31824">
        <ele>1439</ele>
        <time>2024-07-08T12:49:08Z</time>
      </trkpt>
      <trkpt lat="44.5614" lon="6.31834">
        <ele>1439</ele>
        <time>2024-07-08T12:49:14Z</time>
      </trkpt>
      <trkpt lat="44.56152" lon="6.31842">
        <ele>1437</ele>
        <time>2024-07-08T12:49:20Z</time>
      </trkpt>
      <trkpt lat="44.56152" lon="6.31848">
        <ele>1435</ele>
        <time>2024-07-08T12:49:26Z</time>
      </trkpt>
      <trkpt lat="44.56158" lon="6.31855">
        <ele>1436</ele>
        <time>2024-07-08T12:49:32Z</time>
      </trkpt>
      <trkpt lat="44.56163" lon="6.31861">
        <ele>1436</ele>
        <time>2024-07-08T12:49:38Z</time>
      </trkpt>
      <trkpt lat="44.56164" lon="6.31869">
        <ele>1436</ele>
        <time>2024-07-08T12:49:44Z</time>
      </trkpt>
      <trkpt lat="44.56163" lon="6.31877">
        <ele>1435</ele>
        <time>2024-07-08T12:49:50Z</time>
      </trkpt>
      <trkpt lat="44.5616" lon="6.31889">
        <ele>1433</ele>
        <time>2024-07-08T12:49:56Z</time>
      </trkpt>
      <trkpt lat="44.56156" lon="6.31899">
        <ele>1424</ele>
        <time>2024-07-08T12:50:02Z</time>
      </trkpt>
      <trkpt lat="44.56147" lon="6.31929">
        <ele>1433</ele>
        <time>2024-07-08T12:50:09Z</time>
      </trkpt>
      <trkpt lat="44.56145" lon="6.31939">
        <ele>1433</ele>
        <time>2024-07-08T12:50:15Z</time>
      </trkpt>
      <trkpt lat="44.56144" lon="6.31942">
        <ele>1433</ele>
        <time>2024-07-08T12:50:20Z</time>
      </trkpt>
      <trkpt lat="44.56137" lon="6.31959">
        <ele>1419</ele>
        <time>2024-07-08T12:50:26Z</time>
      </trkpt>
      <trkpt lat="44.56126" lon="6.31971">
        <ele>1422</ele>
        <time>2024-07-08T12:50:33Z</time>
      </trkpt>
      <trkpt lat="44.56118" lon="6.3197">
        <ele>1428</ele>
        <time>2024-07-08T12:50:39Z</time>
      </trkpt>
      <trkpt lat="44.56112" lon="6.31966">
        <ele>1426</ele>
        <time>2024-07-08T12:50:45Z</time>
      </trkpt>
      <trkpt lat="44.56105" lon="6.31959">
        <ele>1426</ele>
        <time>2024-07-08T12:50:51Z</time>
      </trkpt>
      <trkpt lat="44.56104" lon="6.31958">
        <ele>1426</ele>
        <time>2024-07-08T12:50:56Z</time>
      </trkpt>
      <trkpt lat="44.56097" lon="6.31955">
        <ele>1427</ele>
        <time>2024-07-08T12:51:02Z</time>
      </trkpt>
      <trkpt lat="44.56087" lon="6.31981">
        <ele>1429</ele>
        <time>2024-07-08T12:51:08Z</time>
      </trkpt>
      <trkpt lat="44.56079" lon="6.31966">
        <ele>1430</ele>
        <time>2024-07-08T12:51:11Z</time>
      </trkpt>
      <trkpt lat="44.56075" lon="6.31965">
        <ele>1431</ele>
        <time>2024-07-08T12:51:14Z</time>
      </trkpt>
      <trkpt lat="44.56066" lon="6.31969">
        <ele>1430</ele>
        <time>2024-07-08T12:51:19Z</time>
      </trkpt>
      <trkpt lat="44.56064" lon="6.31974">
        <ele>1429</ele>
        <time>2024-07-08T12:51:22Z</time>
      </trkpt>
      <trkpt lat="44.56061" lon="6.31978">
        <ele>1431</ele>
        <time>2024-07-08T12:51:26Z</time>
      </trkpt>
      <trkpt lat="44.5606" lon="6.31982">
        <ele>1431</ele>
        <time>2024-07-08T12:51:29Z</time>
      </trkpt>
      <trkpt lat="44.5606" lon="6.31987">
        <ele>1431</ele>
        <time>2024-07-08T12:51:31Z</time>
      </trkpt>
      <trkpt lat="44.56061" lon="6.31991">
        <ele>1429</ele>
        <time>2024-07-08T12:51:34Z</time>
      </trkpt>
      <trkpt lat="44.56059" lon="6.31998">
        <ele>1429</ele>
        <time>2024-07-08T12:51:37Z</time>
      </trkpt>
      <trkpt lat="44.56059" lon="6.32004">
        <ele>1429</ele>
        <time>2024-07-08T12:51:41Z</time>
      </trkpt>
      <trkpt lat="44.56054" lon="6.32009">
        <ele>1429</ele>
        <time>2024-07-08T12:51:46Z</time>
      </trkpt>
      <trkpt lat="44.56058" lon="6.32004">
        <ele>1428</ele>
        <time>2024-07-08T12:51:52Z</time>
      </trkpt>
      <trkpt lat="44.56059" lon="6.32012">
        <ele>1430</ele>
        <time>2024-07-08T12:51:58Z</time>
      </trkpt>
      <trkpt lat="44.56059" lon="6.32024">
        <ele>1429</ele>
        <time>2024-07-08T12:52:04Z</time>
      </trkpt>
      <trkpt lat="44.56061" lon="6.32039">
        <ele>1428</ele>
        <time>2024-07-08T12:52:10Z</time>
      </trkpt>
      <trkpt lat="44.56064" lon="6.32052">
        <ele>1426</ele>
        <time>2024-07-08T12:52:16Z</time>
      </trkpt>
      <trkpt lat="44.56068" lon="6.32064">
        <ele>1424</ele>
        <time>2024-07-08T12:52:22Z</time>
      </trkpt>
      <trkpt lat="44.56067" lon="6.32078">
        <ele>1425</ele>
        <time>2024-07-08T12:52:28Z</time>
      </trkpt>
      <trkpt lat="44.56068" lon="6.32091">
        <ele>1423</ele>
        <time>2024-07-08T12:52:34Z</time>
      </trkpt>
      <trkpt lat="44.56073" lon="6.32108">
        <ele>1424</ele>
        <time>2024-07-08T12:52:40Z</time>
      </trkpt>
      <trkpt lat="44.56076" lon="6.32112">
        <ele>1422</ele>
        <time>2024-07-08T12:52:46Z</time>
      </trkpt>
      <trkpt lat="44.56078" lon="6.32124">
        <ele>1421</ele>
        <time>2024-07-08T12:52:52Z</time>
      </trkpt>
      <trkpt lat="44.5608" lon="6.32136">
        <ele>1419</ele>
        <time>2024-07-08T12:52:58Z</time>
      </trkpt>
      <trkpt lat="44.56082" lon="6.32149">
        <ele>1419</ele>
        <time>2024-07-08T12:53:04Z</time>
      </trkpt>
      <trkpt lat="44.56082" lon="6.32177">
        <ele>1418</ele>
        <time>2024-07-08T12:53:12Z</time>
      </trkpt>
      <trkpt lat="44.56082" lon="6.32186">
        <ele>1420</ele>
        <time>2024-07-08T12:53:18Z</time>
      </trkpt>
      <trkpt lat="44.56081" lon="6.32196">
        <ele>1420</ele>
        <time>2024-07-08T12:53:21Z</time>
      </trkpt>
      <trkpt lat="44.56078" lon="6.32202">
        <ele>1418</ele>
        <time>2024-07-08T12:53:24Z</time>
      </trkpt>
      <trkpt lat="44.56077" lon="6.32204">
        <ele>1418</ele>
        <time>2024-07-08T12:53:28Z</time>
      </trkpt>
      <trkpt lat="44.56069" lon="6.32219">
        <ele>1417</ele>
        <time>2024-07-08T12:53:34Z</time>
      </trkpt>
      <trkpt lat="44.56069" lon="6.32224">
        <ele>1413</ele>
        <time>2024-07-08T12:53:40Z</time>
      </trkpt>
      <trkpt lat="44.56067" lon="6.32232">
        <ele>1414</ele>
        <time>2024-07-08T12:53:46Z</time>
      </trkpt>
      <trkpt lat="44.56065" lon="6.3224">
        <ele>1412</ele>
        <time>2024-07-08T12:53:52Z</time>
      </trkpt>
      <trkpt lat="44.5606" lon="6.32252">
        <ele>1409</ele>
        <time>2024-07-08T12:53:58Z</time>
      </trkpt>
      <trkpt lat="44.56055" lon="6.3226">
        <ele>1408</ele>
        <time>2024-07-08T12:54:04Z</time>
      </trkpt>
      <trkpt lat="44.56052" lon="6.32266">
        <ele>1409</ele>
        <time>2024-07-08T12:54:10Z</time>
      </trkpt>
      <trkpt lat="44.56042" lon="6.32279">
        <ele>1405</ele>
        <time>2024-07-08T12:54:16Z</time>
      </trkpt>
      <trkpt lat="44.56034" lon="6.32287">
        <ele>1408</ele>
        <time>2024-07-08T12:54:22Z</time>
      </trkpt>
      <trkpt lat="44.56029" lon="6.32297">
        <ele>1412</ele>
        <time>2024-07-08T12:54:28Z</time>
      </trkpt>
      <trkpt lat="44.56022" lon="6.32306">
        <ele>1410</ele>
        <time>2024-07-08T12:54:31Z</time>
      </trkpt>
      <trkpt lat="44.56018" lon="6.32314">
        <ele>1410</ele>
        <time>2024-07-08T12:54:35Z</time>
      </trkpt>
      <trkpt lat="44.56017" lon="6.32321">
        <ele>1402</ele>
        <time>2024-07-08T12:54:40Z</time>
      </trkpt>
      <trkpt lat="44.5602" lon="6.32324">
        <ele>1401</ele>
        <time>2024-07-08T12:54:46Z</time>
      </trkpt>
      <trkpt lat="44.56019" lon="6.32333">
        <ele>1404</ele>
        <time>2024-07-08T12:54:52Z</time>
      </trkpt>
      <trkpt lat="44.56016" lon="6.32343">
        <ele>1407</ele>
        <time>2024-07-08T12:54:58Z</time>
      </trkpt>
      <trkpt lat="44.56013" lon="6.32356">
        <ele>1409</ele>
        <time>2024-07-08T12:55:04Z</time>
      </trkpt>
      <trkpt lat="44.56" lon="6.32377">
        <ele>1412</ele>
        <time>2024-07-08T12:55:12Z</time>
      </trkpt>
      <trkpt lat="44.55996" lon="6.32388">
        <ele>1410</ele>
        <time>2024-07-08T12:55:22Z</time>
      </trkpt>
      <trkpt lat="44.55994" lon="6.32399">
        <ele>1407</ele>
        <time>2024-07-08T12:55:28Z</time>
      </trkpt>
      <trkpt lat="44.55994" lon="6.32405">
        <ele>1405</ele>
        <time>2024-07-08T12:55:34Z</time>
      </trkpt>
      <trkpt lat="44.5599" lon="6.32422">
        <ele>1407</ele>
        <time>2024-07-08T12:55:40Z</time>
      </trkpt>
      <trkpt lat="44.55985" lon="6.32434">
        <ele>1408</ele>
        <time>2024-07-08T12:55:46Z</time>
      </trkpt>
      <trkpt lat="44.55981" lon="6.32435">
        <ele>1400</ele>
        <time>2024-07-08T12:55:52Z</time>
      </trkpt>
      <trkpt lat="44.55967" lon="6.32431">
        <ele>1400</ele>
        <time>2024-07-08T12:55:58Z</time>
      </trkpt>
      <trkpt lat="44.55961" lon="6.32423">
        <ele>1400</ele>
        <time>2024-07-08T12:56:04Z</time>
      </trkpt>
      <trkpt lat="44.5596" lon="6.32411">
        <ele>1399</ele>
        <time>2024-07-08T12:56:10Z</time>
      </trkpt>
      <trkpt lat="44.5596" lon="6.32404">
        <ele>1399</ele>
        <time>2024-07-08T12:56:18Z</time>
      </trkpt>
      <trkpt lat="44.55963" lon="6.32407">
        <ele>1398</ele>
        <time>2024-07-08T12:56:31Z</time>
      </trkpt>
      <trkpt lat="44.55963" lon="6.32402">
        <ele>1399</ele>
        <time>2024-07-08T12:56:36Z</time>
      </trkpt>
      <trkpt lat="44.55959" lon="6.32391">
        <ele>1407</ele>
        <time>2024-07-08T12:56:42Z</time>
      </trkpt>
      <trkpt lat="44.55961" lon="6.32384">
        <ele>1405</ele>
        <time>2024-07-08T12:56:48Z</time>
      </trkpt>
      <trkpt lat="44.55961" lon="6.32382">
        <ele>1405</ele>
        <time>2024-07-08T12:56:52Z</time>
      </trkpt>
      <trkpt lat="44.55964" lon="6.32374">
        <ele>1409</ele>
        <time>2024-07-08T12:56:58Z</time>
      </trkpt>
      <trkpt lat="44.55969" lon="6.32364">
        <ele>1402</ele>
        <time>2024-07-08T12:57:04Z</time>
      </trkpt>
      <trkpt lat="44.55974" lon="6.32355">
        <ele>1401</ele>
        <time>2024-07-08T12:57:10Z</time>
      </trkpt>
      <trkpt lat="44.55979" lon="6.32347">
        <ele>1400</ele>
        <time>2024-07-08T12:57:16Z</time>
      </trkpt>
      <trkpt lat="44.55984" lon="6.32337">
        <ele>1399</ele>
        <time>2024-07-08T12:57:22Z</time>
      </trkpt>
      <trkpt lat="44.55988" lon="6.32328">
        <ele>1394</ele>
        <time>2024-07-08T12:57:28Z</time>
      </trkpt>
      <trkpt lat="44.55989" lon="6.32309">
        <ele>1404</ele>
        <time>2024-07-08T12:57:31Z</time>
      </trkpt>
      <trkpt lat="44.55988" lon="6.32298">
        <ele>1402</ele>
        <time>2024-07-08T12:57:34Z</time>
      </trkpt>
      <trkpt lat="44.5599" lon="6.32293">
        <ele>1402</ele>
        <time>2024-07-08T12:57:37Z</time>
      </trkpt>
      <trkpt lat="44.5599" lon="6.32289">
        <ele>1402</ele>
        <time>2024-07-08T12:57:40Z</time>
      </trkpt>
      <trkpt lat="44.5599" lon="6.3228">
        <ele>1401</ele>
        <time>2024-07-08T12:57:43Z</time>
      </trkpt>
      <trkpt lat="44.5599" lon="6.32274">
        <ele>1401</ele>
        <time>2024-07-08T12:57:46Z</time>
      </trkpt>
      <trkpt lat="44.55992" lon="6.32268">
        <ele>1401</ele>
        <time>2024-07-08T12:57:50Z</time>
      </trkpt>
      <trkpt lat="44.55993" lon="6.32262">
        <ele>1401</ele>
        <time>2024-07-08T12:57:53Z</time>
      </trkpt>
      <trkpt lat="44.55995" lon="6.32256">
        <ele>1402</ele>
        <time>2024-07-08T12:57:56Z</time>
      </trkpt>
      <trkpt lat="44.55996" lon="6.32252">
        <ele>1401</ele>
        <time>2024-07-08T12:57:59Z</time>
      </trkpt>
      <trkpt lat="44.55997" lon="6.32248">
        <ele>1401</ele>
        <time>2024-07-08T12:58:02Z</time>
      </trkpt>
      <trkpt lat="44.55998" lon="6.32246">
        <ele>1399</ele>
        <time>2024-07-08T12:58:06Z</time>
      </trkpt>
      <trkpt lat="44.55997" lon="6.3224">
        <ele>1400</ele>
        <time>2024-07-08T12:58:09Z</time>
      </trkpt>
      <trkpt lat="44.55997" lon="6.32234">
        <ele>1399</ele>
        <time>2024-07-08T12:58:12Z</time>
      </trkpt>
      <trkpt lat="44.55998" lon="6.32228">
        <ele>1400</ele>
        <time>2024-07-08T12:58:15Z</time>
      </trkpt>
      <trkpt lat="44.55997" lon="6.32223">
        <ele>1400</ele>
        <time>2024-07-08T12:58:18Z</time>
      </trkpt>
      <trkpt lat="44.55996" lon="6.32217">
        <ele>1398</ele>
        <time>2024-07-08T12:58:21Z</time>
      </trkpt>
      <trkpt lat="44.55995" lon="6.32211">
        <ele>1400</ele>
        <time>2024-07-08T12:58:24Z</time>
      </trkpt>
      <trkpt lat="44.55995" lon="6.32206">
        <ele>1399</ele>
        <time>2024-07-08T12:58:26Z</time>
      </trkpt>
      <trkpt lat="44.55995" lon="6.322">
        <ele>1399</ele>
        <time>2024-07-08T12:58:30Z</time>
      </trkpt>
      <trkpt lat="44.55994" lon="6.32194">
        <ele>1398</ele>
        <time>2024-07-08T12:58:33Z</time>
      </trkpt>
      <trkpt lat="44.55994" lon="6.32188">
        <ele>1397</ele>
        <time>2024-07-08T12:58:36Z</time>
      </trkpt>
      <trkpt lat="44.55993" lon="6.32182">
        <ele>1397</ele>
        <time>2024-07-08T12:58:39Z</time>
      </trkpt>
      <trkpt lat="44.55993" lon="6.32177">
        <ele>1397</ele>
        <time>2024-07-08T12:58:41Z</time>
      </trkpt>
      <trkpt lat="44.55992" lon="6.32171">
        <ele>1395</ele>
        <time>2024-07-08T12:58:44Z</time>
      </trkpt>
      <trkpt lat="44.55992" lon="6.32166">
        <ele>1395</ele>
        <time>2024-07-08T12:58:47Z</time>
      </trkpt>
      <trkpt lat="44.5599" lon="6.32158">
        <ele>1398</ele>
        <time>2024-07-08T12:58:50Z</time>
      </trkpt>
      <trkpt lat="44.55988" lon="6.32151">
        <ele>1396</ele>
        <time>2024-07-08T12:58:54Z</time>
      </trkpt>
      <trkpt lat="44.55988" lon="6.32147">
        <ele>1396</ele>
        <time>2024-07-08T12:58:57Z</time>
      </trkpt>
      <trkpt lat="44.55987" lon="6.32142">
        <ele>1395</ele>
        <time>2024-07-08T12:58:59Z</time>
      </trkpt>
      <trkpt lat="44.55985" lon="6.32137">
        <ele>1395</ele>
        <time>2024-07-08T12:59:02Z</time>
      </trkpt>
      <trkpt lat="44.55985" lon="6.32131">
        <ele>1395</ele>
        <time>2024-07-08T12:59:06Z</time>
      </trkpt>
      <trkpt lat="44.55984" lon="6.32125">
        <ele>1393</ele>
        <time>2024-07-08T12:59:09Z</time>
      </trkpt>
      <trkpt lat="44.55984" lon="6.3212">
        <ele>1393</ele>
        <time>2024-07-08T12:59:12Z</time>
      </trkpt>
      <trkpt lat="44.55985" lon="6.32111">
        <ele>1390</ele>
        <time>2024-07-08T12:59:15Z</time>
      </trkpt>
      <trkpt lat="44.55986" lon="6.32106">
        <ele>1390</ele>
        <time>2024-07-08T12:59:17Z</time>
      </trkpt>
      <trkpt lat="44.55985" lon="6.32101">
        <ele>1390</ele>
        <time>2024-07-08T12:59:21Z</time>
      </trkpt>
      <trkpt lat="44.55983" lon="6.32096">
        <ele>1392</ele>
        <time>2024-07-08T12:59:24Z</time>
      </trkpt>
      <trkpt lat="44.55976" lon="6.32089">
        <ele>1392</ele>
        <time>2024-07-08T12:59:27Z</time>
      </trkpt>
      <trkpt lat="44.55975" lon="6.32086">
        <ele>1392</ele>
        <time>2024-07-08T12:59:30Z</time>
      </trkpt>
      <trkpt lat="44.55974" lon="6.3208">
        <ele>1392</ele>
        <time>2024-07-08T12:59:33Z</time>
      </trkpt>
      <trkpt lat="44.55973" lon="6.32075">
        <ele>1392</ele>
        <time>2024-07-08T12:59:35Z</time>
      </trkpt>
      <trkpt lat="44.55972" lon="6.3207">
        <ele>1391</ele>
        <time>2024-07-08T12:59:39Z</time>
      </trkpt>
      <trkpt lat="44.55971" lon="6.32065">
        <ele>1392</ele>
        <time>2024-07-08T12:59:42Z</time>
      </trkpt>
      <trkpt lat="44.5597" lon="6.32061">
        <ele>1391</ele>
        <time>2024-07-08T12:59:45Z</time>
      </trkpt>
      <trkpt lat="44.55968" lon="6.32056">
        <ele>1391</ele>
        <time>2024-07-08T12:59:48Z</time>
      </trkpt>
      <trkpt lat="44.55967" lon="6.32051">
        <ele>1391</ele>
        <time>2024-07-08T12:59:51Z</time>
      </trkpt>
      <trkpt lat="44.55965" lon="6.32045">
        <ele>1391</ele>
        <time>2024-07-08T12:59:54Z</time>
      </trkpt>
      <trkpt lat="44.55963" lon="6.32041">
        <ele>1390</ele>
        <time>2024-07-08T12:59:57Z</time>
      </trkpt>
      <trkpt lat="44.55962" lon="6.32036">
        <ele>1391</ele>
        <time>2024-07-08T13:00:00Z</time>
      </trkpt>
      <trkpt lat="44.5596" lon="6.32031">
        <ele>1390</ele>
        <time>2024-07-08T13:00:03Z</time>
      </trkpt>
      <trkpt lat="44.55958" lon="6.32026">
        <ele>1389</ele>
        <time>2024-07-08T13:00:06Z</time>
      </trkpt>
      <trkpt lat="44.55956" lon="6.32021">
        <ele>1389</ele>
        <time>2024-07-08T13:00:09Z</time>
      </trkpt>
      <trkpt lat="44.55954" lon="6.32017">
        <ele>1389</ele>
        <time>2024-07-08T13:00:12Z</time>
      </trkpt>
      <trkpt lat="44.55951" lon="6.32012">
        <ele>1389</ele>
        <time>2024-07-08T13:00:15Z</time>
      </trkpt>
      <trkpt lat="44.5595" lon="6.32007">
        <ele>1389</ele>
        <time>2024-07-08T13:00:18Z</time>
      </trkpt>
      <trkpt lat="44.55947" lon="6.32003">
        <ele>1389</ele>
        <time>2024-07-08T13:00:21Z</time>
      </trkpt>
      <trkpt lat="44.55944" lon="6.31998">
        <ele>1389</ele>
        <time>2024-07-08T13:00:24Z</time>
      </trkpt>
      <trkpt lat="44.55942" lon="6.31993">
        <ele>1390</ele>
        <time>2024-07-08T13:00:26Z</time>
      </trkpt>
      <trkpt lat="44.5594" lon="6.31989">
        <ele>1387</ele>
        <time>2024-07-08T13:00:30Z</time>
      </trkpt>
      <trkpt lat="44.55937" lon="6.31984">
        <ele>1388</ele>
        <time>2024-07-08T13:00:33Z</time>
      </trkpt>
      <trkpt lat="44.55934" lon="6.31979">
        <ele>1388</ele>
        <time>2024-07-08T13:00:36Z</time>
      </trkpt>
      <trkpt lat="44.55931" lon="6.31976">
        <ele>1389</ele>
        <time>2024-07-08T13:00:39Z</time>
      </trkpt>
      <trkpt lat="44.55928" lon="6.31971">
        <ele>1387</ele>
        <time>2024-07-08T13:00:42Z</time>
      </trkpt>
      <trkpt lat="44.55925" lon="6.31968">
        <ele>1387</ele>
        <time>2024-07-08T13:00:45Z</time>
      </trkpt>
      <trkpt lat="44.55922" lon="6.31963">
        <ele>1387</ele>
        <time>2024-07-08T13:00:48Z</time>
      </trkpt>
      <trkpt lat="44.55919" lon="6.3196">
        <ele>1387</ele>
        <time>2024-07-08T13:00:50Z</time>
      </trkpt>
      <trkpt lat="44.55915" lon="6.31957">
        <ele>1386</ele>
        <time>2024-07-08T13:00:54Z</time>
      </trkpt>
      <trkpt lat="44.55912" lon="6.31954">
        <ele>1387</ele>
        <time>2024-07-08T13:00:57Z</time>
      </trkpt>
      <trkpt lat="44.55908" lon="6.31952">
        <ele>1386</ele>
        <time>2024-07-08T13:01:00Z</time>
      </trkpt>
      <trkpt lat="44.55904" lon="6.31949">
        <ele>1385</ele>
        <time>2024-07-08T13:01:03Z</time>
      </trkpt>
      <trkpt lat="44.559" lon="6.31947">
        <ele>1386</ele>
        <time>2024-07-08T13:01:06Z</time>
      </trkpt>
      <trkpt lat="44.55897" lon="6.31944">
        <ele>1386</ele>
        <time>2024-07-08T13:01:08Z</time>
      </trkpt>
      <trkpt lat="44.55894" lon="6.31941">
        <ele>1385</ele>
        <time>2024-07-08T13:01:12Z</time>
      </trkpt>
      <trkpt lat="44.5589" lon="6.31939">
        <ele>1385</ele>
        <time>2024-07-08T13:01:15Z</time>
      </trkpt>
      <trkpt lat="44.55887" lon="6.31937">
        <ele>1383</ele>
        <time>2024-07-08T13:01:18Z</time>
      </trkpt>
      <trkpt lat="44.55883" lon="6.31934">
        <ele>1383</ele>
        <time>2024-07-08T13:01:21Z</time>
      </trkpt>
      <trkpt lat="44.5588" lon="6.31932">
        <ele>1383</ele>
        <time>2024-07-08T13:01:23Z</time>
      </trkpt>
      <trkpt lat="44.55876" lon="6.3193">
        <ele>1383</ele>
        <time>2024-07-08T13:01:26Z</time>
      </trkpt>
      <trkpt lat="44.55872" lon="6.31928">
        <ele>1383</ele>
        <time>2024-07-08T13:01:30Z</time>
      </trkpt>
      <trkpt lat="44.55868" lon="6.31927">
        <ele>1382</ele>
        <time>2024-07-08T13:01:33Z</time>
      </trkpt>
      <trkpt lat="44.55864" lon="6.31927">
        <ele>1381</ele>
        <time>2024-07-08T13:01:36Z</time>
      </trkpt>
      <trkpt lat="44.5586" lon="6.31926">
        <ele>1381</ele>
        <time>2024-07-08T13:01:38Z</time>
      </trkpt>
      <trkpt lat="44.55856" lon="6.31925">
        <ele>1381</ele>
        <time>2024-07-08T13:01:41Z</time>
      </trkpt>
      <trkpt lat="44.55852" lon="6.31925">
        <ele>1381</ele>
        <time>2024-07-08T13:01:45Z</time>
      </trkpt>
      <trkpt lat="44.55847" lon="6.31925">
        <ele>1380</ele>
        <time>2024-07-08T13:01:48Z</time>
      </trkpt>
      <trkpt lat="44.55843" lon="6.31924">
        <ele>1380</ele>
        <time>2024-07-08T13:01:51Z</time>
      </trkpt>
      <trkpt lat="44.5584" lon="6.31924">
        <ele>1379</ele>
        <time>2024-07-08T13:01:54Z</time>
      </trkpt>
      <trkpt lat="44.55835" lon="6.31924">
        <ele>1379</ele>
        <time>2024-07-08T13:01:57Z</time>
      </trkpt>
      <trkpt lat="44.55831" lon="6.31923">
        <ele>1378</ele>
        <time>2024-07-08T13:02:00Z</time>
      </trkpt>
      <trkpt lat="44.55828" lon="6.31924">
        <ele>1378</ele>
        <time>2024-07-08T13:02:02Z</time>
      </trkpt>
      <trkpt lat="44.55824" lon="6.31924">
        <ele>1378</ele>
        <time>2024-07-08T13:02:06Z</time>
      </trkpt>
      <trkpt lat="44.55819" lon="6.31925">
        <ele>1377</ele>
        <time>2024-07-08T13:02:09Z</time>
      </trkpt>
      <trkpt lat="44.55816" lon="6.31925">
        <ele>1377</ele>
        <time>2024-07-08T13:02:11Z</time>
      </trkpt>
      <trkpt lat="44.55812" lon="6.31928">
        <ele>1377</ele>
        <time>2024-07-08T13:02:15Z</time>
      </trkpt>
      <trkpt lat="44.5581" lon="6.31931">
        <ele>1376</ele>
        <time>2024-07-08T13:02:17Z</time>
      </trkpt>
      <trkpt lat="44.55808" lon="6.31935">
        <ele>1375</ele>
        <time>2024-07-08T13:02:20Z</time>
      </trkpt>
      <trkpt lat="44.55805" lon="6.31938">
        <ele>1375</ele>
        <time>2024-07-08T13:02:23Z</time>
      </trkpt>
      <trkpt lat="44.55802" lon="6.31941">
        <ele>1374</ele>
        <time>2024-07-08T13:02:26Z</time>
      </trkpt>
      <trkpt lat="44.55798" lon="6.31943">
        <ele>1373</ele>
        <time>2024-07-08T13:02:29Z</time>
      </trkpt>
      <trkpt lat="44.55794" lon="6.31945">
        <ele>1373</ele>
        <time>2024-07-08T13:02:32Z</time>
      </trkpt>
      <trkpt lat="44.5579" lon="6.31944">
        <ele>1371</ele>
        <time>2024-07-08T13:02:35Z</time>
      </trkpt>
      <trkpt lat="44.55789" lon="6.31942">
        <ele>1371</ele>
        <time>2024-07-08T13:02:41Z</time>
      </trkpt>
      <trkpt lat="44.55783" lon="6.31936">
        <ele>1371</ele>
        <time>2024-07-08T13:02:44Z</time>
      </trkpt>
      <trkpt lat="44.55781" lon="6.31933">
        <ele>1371</ele>
        <time>2024-07-08T13:02:46Z</time>
      </trkpt>
      <trkpt lat="44.5578" lon="6.31928">
        <ele>1371</ele>
        <time>2024-07-08T13:02:50Z</time>
      </trkpt>
      <trkpt lat="44.55779" lon="6.31922">
        <ele>1370</ele>
        <time>2024-07-08T13:02:53Z</time>
      </trkpt>
      <trkpt lat="44.55779" lon="6.31917">
        <ele>1370</ele>
        <time>2024-07-08T13:02:56Z</time>
      </trkpt>
      <trkpt lat="44.55779" lon="6.31911">
        <ele>1369</ele>
        <time>2024-07-08T13:02:59Z</time>
      </trkpt>
      <trkpt lat="44.5578" lon="6.31905">
        <ele>1365</ele>
        <time>2024-07-08T13:03:02Z</time>
      </trkpt>
      <trkpt lat="44.55777" lon="6.31896">
        <ele>1367</ele>
        <time>2024-07-08T13:03:07Z</time>
      </trkpt>
      <trkpt lat="44.55782" lon="6.31894">
        <ele>1366</ele>
        <time>2024-07-08T13:03:10Z</time>
      </trkpt>
      <trkpt lat="44.55785" lon="6.31892">
        <ele>1366</ele>
        <time>2024-07-08T13:03:14Z</time>
      </trkpt>
      <trkpt lat="44.55773" lon="6.3188">
        <ele>1365</ele>
        <time>2024-07-08T13:03:20Z</time>
      </trkpt>
      <trkpt lat="44.55769" lon="6.31873">
        <ele>1363</ele>
        <time>2024-07-08T13:03:24Z</time>
      </trkpt>
      <trkpt lat="44.55767" lon="6.3187">
        <ele>1362</ele>
        <time>2024-07-08T13:03:27Z</time>
      </trkpt>
      <trkpt lat="44.55768" lon="6.31859">
        <ele>1362</ele>
        <time>2024-07-08T13:03:30Z</time>
      </trkpt>
      <trkpt lat="44.55765" lon="6.3185">
        <ele>1360</ele>
        <time>2024-07-08T13:03:33Z</time>
      </trkpt>
      <trkpt lat="44.55762" lon="6.31841">
        <ele>1360</ele>
        <time>2024-07-08T13:03:38Z</time>
      </trkpt>
      <trkpt lat="44.55759" lon="6.31843">
        <ele>1359</ele>
        <time>2024-07-08T13:03:44Z</time>
      </trkpt>
      <trkpt lat="44.55753" lon="6.31843">
        <ele>1356</ele>
        <time>2024-07-08T13:03:50Z</time>
      </trkpt>
      <trkpt lat="44.55742" lon="6.31842">
        <ele>1354</ele>
        <time>2024-07-08T13:03:56Z</time>
      </trkpt>
      <trkpt lat="44.55741" lon="6.3184">
        <ele>1353</ele>
        <time>2024-07-08T13:04:02Z</time>
      </trkpt>
      <trkpt lat="44.55733" lon="6.31836">
        <ele>1351</ele>
        <time>2024-07-08T13:04:08Z</time>
      </trkpt>
      <trkpt lat="44.55731" lon="6.31834">
        <ele>1349</ele>
        <time>2024-07-08T13:04:14Z</time>
      </trkpt>
      <trkpt lat="44.5572" lon="6.3183">
        <ele>1348</ele>
        <time>2024-07-08T13:04:21Z</time>
      </trkpt>
      <trkpt lat="44.55713" lon="6.31831">
        <ele>1346</ele>
        <time>2024-07-08T13:04:27Z</time>
      </trkpt>
      <trkpt lat="44.55711" lon="6.31831">
        <ele>1346</ele>
        <time>2024-07-08T13:04:32Z</time>
      </trkpt>
      <trkpt lat="44.55701" lon="6.31832">
        <ele>1345</ele>
        <time>2024-07-08T13:04:38Z</time>
      </trkpt>
      <trkpt lat="44.55693" lon="6.31834">
        <ele>1345</ele>
        <time>2024-07-08T13:04:44Z</time>
      </trkpt>
      <trkpt lat="44.55681" lon="6.31841">
        <ele>1343</ele>
        <time>2024-07-08T13:04:50Z</time>
      </trkpt>
      <trkpt lat="44.55677" lon="6.31839">
        <ele>1342</ele>
        <time>2024-07-08T13:04:56Z</time>
      </trkpt>
      <trkpt lat="44.5567" lon="6.31835">
        <ele>1349</ele>
        <time>2024-07-08T13:05:02Z</time>
      </trkpt>
      <trkpt lat="44.55663" lon="6.31833">
        <ele>1349</ele>
        <time>2024-07-08T13:05:08Z</time>
      </trkpt>
      <trkpt lat="44.55657" lon="6.31834">
        <ele>1344</ele>
        <time>2024-07-08T13:05:14Z</time>
      </trkpt>
      <trkpt lat="44.55648" lon="6.31839">
        <ele>1342</ele>
        <time>2024-07-08T13:05:20Z</time>
      </trkpt>
      <trkpt lat="44.55641" lon="6.31846">
        <ele>1341</ele>
        <time>2024-07-08T13:05:26Z</time>
      </trkpt>
      <trkpt lat="44.55631" lon="6.31859">
        <ele>1333</ele>
        <time>2024-07-08T13:05:30Z</time>
      </trkpt>
      <trkpt lat="44.55627" lon="6.31864">
        <ele>1334</ele>
        <time>2024-07-08T13:05:33Z</time>
      </trkpt>
      <trkpt lat="44.55622" lon="6.31869">
        <ele>1332</ele>
        <time>2024-07-08T13:05:36Z</time>
      </trkpt>
      <trkpt lat="44.55619" lon="6.3187">
        <ele>1332</ele>
        <time>2024-07-08T13:05:39Z</time>
      </trkpt>
      <trkpt lat="44.55614" lon="6.31872">
        <ele>1331</ele>
        <time>2024-07-08T13:05:42Z</time>
      </trkpt>
      <trkpt lat="44.55611" lon="6.31876">
        <ele>1331</ele>
        <time>2024-07-08T13:05:45Z</time>
      </trkpt>
      <trkpt lat="44.5561" lon="6.31882">
        <ele>1331</ele>
        <time>2024-07-08T13:05:48Z</time>
      </trkpt>
      <trkpt lat="44.55609" lon="6.31889">
        <ele>1331</ele>
        <time>2024-07-08T13:05:51Z</time>
      </trkpt>
      <trkpt lat="44.55608" lon="6.31893">
        <ele>1330</ele>
        <time>2024-07-08T13:05:54Z</time>
      </trkpt>
      <trkpt lat="44.55607" lon="6.31891">
        <ele>1329</ele>
        <time>2024-07-08T13:05:58Z</time>
      </trkpt>
      <trkpt lat="44.55606" lon="6.31885">
        <ele>1329</ele>
        <time>2024-07-08T13:06:01Z</time>
      </trkpt>
      <trkpt lat="44.55605" lon="6.3188">
        <ele>1329</ele>
        <time>2024-07-08T13:06:03Z</time>
      </trkpt>
      <trkpt lat="44.55604" lon="6.31875">
        <ele>1328</ele>
        <time>2024-07-08T13:06:07Z</time>
      </trkpt>
      <trkpt lat="44.55601" lon="6.31873">
        <ele>1327</ele>
        <time>2024-07-08T13:06:10Z</time>
      </trkpt>
      <trkpt lat="44.55598" lon="6.31872">
        <ele>1327</ele>
        <time>2024-07-08T13:06:12Z</time>
      </trkpt>
      <trkpt lat="44.55596" lon="6.31872">
        <ele>1326</ele>
        <time>2024-07-08T13:06:24Z</time>
      </trkpt>
      <trkpt lat="44.55592" lon="6.31871">
        <ele>1325</ele>
        <time>2024-07-08T13:06:27Z</time>
      </trkpt>
      <trkpt lat="44.55587" lon="6.31872">
        <ele>1325</ele>
        <time>2024-07-08T13:06:31Z</time>
      </trkpt>
      <trkpt lat="44.55584" lon="6.31872">
        <ele>1325</ele>
        <time>2024-07-08T13:06:34Z</time>
      </trkpt>
      <trkpt lat="44.5558" lon="6.31872">
        <ele>1323</ele>
        <time>2024-07-08T13:06:37Z</time>
      </trkpt>
      <trkpt lat="44.55576" lon="6.31872">
        <ele>1323</ele>
        <time>2024-07-08T13:06:40Z</time>
      </trkpt>
      <trkpt lat="44.55572" lon="6.3187">
        <ele>1322</ele>
        <time>2024-07-08T13:06:43Z</time>
      </trkpt>
      <trkpt lat="44.55569" lon="6.3187">
        <ele>1323</ele>
        <time>2024-07-08T13:06:46Z</time>
      </trkpt>
      <trkpt lat="44.55565" lon="6.31871">
        <ele>1322</ele>
        <time>2024-07-08T13:06:49Z</time>
      </trkpt>
      <trkpt lat="44.55561" lon="6.31871">
        <ele>1322</ele>
        <time>2024-07-08T13:06:52Z</time>
      </trkpt>
      <trkpt lat="44.55559" lon="6.31871">
        <ele>1323</ele>
        <time>2024-07-08T13:08:35Z</time>
      </trkpt>
      <trkpt lat="44.55555" lon="6.3187">
        <ele>1322</ele>
        <time>2024-07-08T13:08:38Z</time>
      </trkpt>
      <trkpt lat="44.55553" lon="6.3187">
        <ele>1322</ele>
        <time>2024-07-08T13:08:40Z</time>
      </trkpt>
      <trkpt lat="44.55548" lon="6.31871">
        <ele>1322</ele>
        <time>2024-07-08T13:08:44Z</time>
      </trkpt>
      <trkpt lat="44.55544" lon="6.31871">
        <ele>1322</ele>
        <time>2024-07-08T13:08:47Z</time>
      </trkpt>
      <trkpt lat="44.5554" lon="6.31871">
        <ele>1322</ele>
        <time>2024-07-08T13:08:49Z</time>
      </trkpt>
      <trkpt lat="44.55536" lon="6.31871">
        <ele>1322</ele>
        <time>2024-07-08T13:08:53Z</time>
      </trkpt>
      <trkpt lat="44.55533" lon="6.31871">
        <ele>1320</ele>
        <time>2024-07-08T13:08:55Z</time>
      </trkpt>
      <trkpt lat="44.55528" lon="6.31867">
        <ele>1320</ele>
        <time>2024-07-08T13:08:58Z</time>
      </trkpt>
      <trkpt lat="44.55526" lon="6.3186">
        <ele>1321</ele>
        <time>2024-07-08T13:09:01Z</time>
      </trkpt>
      <trkpt lat="44.55524" lon="6.31852">
        <ele>1320</ele>
        <time>2024-07-08T13:09:04Z</time>
      </trkpt>
      <trkpt lat="44.55525" lon="6.31848">
        <ele>1319</ele>
        <time>2024-07-08T13:09:07Z</time>
      </trkpt>
      <trkpt lat="44.55525" lon="6.31843">
        <ele>1319</ele>
        <time>2024-07-08T13:09:10Z</time>
      </trkpt>
      <trkpt lat="44.55526" lon="6.31839">
        <ele>1319</ele>
        <time>2024-07-08T13:09:12Z</time>
      </trkpt>
      <trkpt lat="44.55524" lon="6.31838">
        <ele>1320</ele>
        <time>2024-07-08T13:09:18Z</time>
      </trkpt>
      <trkpt lat="44.55522" lon="6.31842">
        <ele>1320</ele>
        <time>2024-07-08T13:09:21Z</time>
      </trkpt>
      <trkpt lat="44.5552" lon="6.31849">
        <ele>1320</ele>
        <time>2024-07-08T13:09:23Z</time>
      </trkpt>
      <trkpt lat="44.55519" lon="6.31856">
        <ele>1320</ele>
        <time>2024-07-08T13:09:27Z</time>
      </trkpt>
      <trkpt lat="44.55517" lon="6.3186">
        <ele>1320</ele>
        <time>2024-07-08T13:09:30Z</time>
      </trkpt>
      <trkpt lat="44.55514" lon="6.31864">
        <ele>1319</ele>
        <time>2024-07-08T13:09:32Z</time>
      </trkpt>
      <trkpt lat="44.55513" lon="6.31867">
        <ele>1319</ele>
        <time>2024-07-08T13:09:35Z</time>
      </trkpt>
      <trkpt lat="44.55511" lon="6.31871">
        <ele>1319</ele>
        <time>2024-07-08T13:09:39Z</time>
      </trkpt>
      <trkpt lat="44.55508" lon="6.31877">
        <ele>1316</ele>
        <time>2024-07-08T13:09:41Z</time>
      </trkpt>
      <trkpt lat="44.55503" lon="6.31877">
        <ele>1313</ele>
        <time>2024-07-08T13:09:46Z</time>
      </trkpt>
      <trkpt lat="44.55496" lon="6.31878">
        <ele>1317</ele>
        <time>2024-07-08T13:09:50Z</time>
      </trkpt>
      <trkpt lat="44.55493" lon="6.31877">
        <ele>1317</ele>
        <time>2024-07-08T13:09:53Z</time>
      </trkpt>
      <trkpt lat="44.55487" lon="6.31876">
        <ele>1316</ele>
        <time>2024-07-08T13:09:56Z</time>
      </trkpt>
      <trkpt lat="44.55483" lon="6.31875">
        <ele>1316</ele>
        <time>2024-07-08T13:09:59Z</time>
      </trkpt>
      <trkpt lat="44.55477" lon="6.31874">
        <ele>1315</ele>
        <time>2024-07-08T13:10:03Z</time>
      </trkpt>
      <trkpt lat="44.55474" lon="6.31871">
        <ele>1308</ele>
        <time>2024-07-08T13:10:06Z</time>
      </trkpt>
      <trkpt lat="44.55471" lon="6.31867">
        <ele>1313</ele>
        <time>2024-07-08T13:10:10Z</time>
      </trkpt>
      <trkpt lat="44.55468" lon="6.31868">
        <ele>1313</ele>
        <time>2024-07-08T13:10:13Z</time>
      </trkpt>
      <trkpt lat="44.55464" lon="6.31867">
        <ele>1313</ele>
        <time>2024-07-08T13:10:16Z</time>
      </trkpt>
      <trkpt lat="44.5546" lon="6.31867">
        <ele>1310</ele>
        <time>2024-07-08T13:10:19Z</time>
      </trkpt>
      <trkpt lat="44.55457" lon="6.31868">
        <ele>1310</ele>
        <time>2024-07-08T13:10:22Z</time>
      </trkpt>
      <trkpt lat="44.55454" lon="6.31874">
        <ele>1309</ele>
        <time>2024-07-08T13:10:25Z</time>
      </trkpt>
      <trkpt lat="44.55451" lon="6.31879">
        <ele>1309</ele>
        <time>2024-07-08T13:10:28Z</time>
      </trkpt>
      <trkpt lat="44.55447" lon="6.31882">
        <ele>1307</ele>
        <time>2024-07-08T13:10:31Z</time>
      </trkpt>
      <trkpt lat="44.55441" lon="6.31878">
        <ele>1307</ele>
        <time>2024-07-08T13:10:34Z</time>
      </trkpt>
      <trkpt lat="44.55436" lon="6.31879">
        <ele>1305</ele>
        <time>2024-07-08T13:10:37Z</time>
      </trkpt>
      <trkpt lat="44.5543" lon="6.31876">
        <ele>1305</ele>
        <time>2024-07-08T13:10:40Z</time>
      </trkpt>
      <trkpt lat="44.55427" lon="6.31868">
        <ele>1304</ele>
        <time>2024-07-08T13:10:43Z</time>
      </trkpt>
      <trkpt lat="44.55423" lon="6.31867">
        <ele>1304</ele>
        <time>2024-07-08T13:10:46Z</time>
      </trkpt>
      <trkpt lat="44.5542" lon="6.31865">
        <ele>1298</ele>
        <time>2024-07-08T13:10:49Z</time>
      </trkpt>
      <trkpt lat="44.55415" lon="6.31863">
        <ele>1299</ele>
        <time>2024-07-08T13:10:52Z</time>
      </trkpt>
      <trkpt lat="44.55411" lon="6.31862">
        <ele>1300</ele>
        <time>2024-07-08T13:10:55Z</time>
      </trkpt>
      <trkpt lat="44.55408" lon="6.31859">
        <ele>1300</ele>
        <time>2024-07-08T13:10:58Z</time>
      </trkpt>
      <trkpt lat="44.55406" lon="6.31855">
        <ele>1295</ele>
        <time>2024-07-08T13:11:01Z</time>
      </trkpt>
      <trkpt lat="44.55405" lon="6.31852">
        <ele>1295</ele>
        <time>2024-07-08T13:11:04Z</time>
      </trkpt>
      <trkpt lat="44.55406" lon="6.31848">
        <ele>1298</ele>
        <time>2024-07-08T13:11:07Z</time>
      </trkpt>
      <trkpt lat="44.55408" lon="6.31843">
        <ele>1298</ele>
        <time>2024-07-08T13:11:09Z</time>
      </trkpt>
      <trkpt lat="44.55409" lon="6.31837">
        <ele>1297</ele>
        <time>2024-07-08T13:11:13Z</time>
      </trkpt>
      <trkpt lat="44.55409" lon="6.31831">
        <ele>1297</ele>
        <time>2024-07-08T13:11:16Z</time>
      </trkpt>
      <trkpt lat="44.55409" lon="6.31826">
        <ele>1295</ele>
        <time>2024-07-08T13:11:19Z</time>
      </trkpt>
      <trkpt lat="44.55409" lon="6.3182">
        <ele>1297</ele>
        <time>2024-07-08T13:11:22Z</time>
      </trkpt>
      <trkpt lat="44.5541" lon="6.31814">
        <ele>1295</ele>
        <time>2024-07-08T13:11:25Z</time>
      </trkpt>
      <trkpt lat="44.55411" lon="6.31809">
        <ele>1295</ele>
        <time>2024-07-08T13:11:28Z</time>
      </trkpt>
      <trkpt lat="44.55411" lon="6.31803">
        <ele>1294</ele>
        <time>2024-07-08T13:11:31Z</time>
      </trkpt>
      <trkpt lat="44.55411" lon="6.31797">
        <ele>1294</ele>
        <time>2024-07-08T13:11:34Z</time>
      </trkpt>
      <trkpt lat="44.55411" lon="6.31792">
        <ele>1293</ele>
        <time>2024-07-08T13:11:37Z</time>
      </trkpt>
      <trkpt lat="44.55412" lon="6.31787">
        <ele>1293</ele>
        <time>2024-07-08T13:11:39Z</time>
      </trkpt>
      <trkpt lat="44.55413" lon="6.31782">
        <ele>1292</ele>
        <time>2024-07-08T13:11:42Z</time>
      </trkpt>
      <trkpt lat="44.55414" lon="6.31777">
        <ele>1291</ele>
        <time>2024-07-08T13:11:45Z</time>
      </trkpt>
      <trkpt lat="44.55416" lon="6.31771">
        <ele>1292</ele>
        <time>2024-07-08T13:11:48Z</time>
      </trkpt>
      <trkpt lat="44.55417" lon="6.31766">
        <ele>1291</ele>
        <time>2024-07-08T13:11:51Z</time>
      </trkpt>
      <trkpt lat="44.55418" lon="6.31761">
        <ele>1290</ele>
        <time>2024-07-08T13:11:55Z</time>
      </trkpt>
      <trkpt lat="44.5542" lon="6.31756">
        <ele>1290</ele>
        <time>2024-07-08T13:11:57Z</time>
      </trkpt>
      <trkpt lat="44.55421" lon="6.31751">
        <ele>1288</ele>
        <time>2024-07-08T13:12:00Z</time>
      </trkpt>
      <trkpt lat="44.55423" lon="6.31746">
        <ele>1288</ele>
        <time>2024-07-08T13:12:03Z</time>
      </trkpt>
      <trkpt lat="44.55425" lon="6.31741">
        <ele>1288</ele>
        <time>2024-07-08T13:12:07Z</time>
      </trkpt>
      <trkpt lat="44.55426" lon="6.31735">
        <ele>1287</ele>
        <time>2024-07-08T13:12:10Z</time>
      </trkpt>
      <trkpt lat="44.55424" lon="6.31731">
        <ele>1287</ele>
        <time>2024-07-08T13:12:13Z</time>
      </trkpt>
      <trkpt lat="44.55419" lon="6.31735">
        <ele>1286</ele>
        <time>2024-07-08T13:12:16Z</time>
      </trkpt>
      <trkpt lat="44.55416" lon="6.31739">
        <ele>1285</ele>
        <time>2024-07-08T13:12:19Z</time>
      </trkpt>
      <trkpt lat="44.55414" lon="6.31744">
        <ele>1284</ele>
        <time>2024-07-08T13:12:22Z</time>
      </trkpt>
      <trkpt lat="44.5541" lon="6.31747">
        <ele>1284</ele>
        <time>2024-07-08T13:12:25Z</time>
      </trkpt>
      <trkpt lat="44.55408" lon="6.31751">
        <ele>1283</ele>
        <time>2024-07-08T13:12:28Z</time>
      </trkpt>
      <trkpt lat="44.55405" lon="6.31754">
        <ele>1283</ele>
        <time>2024-07-08T13:12:31Z</time>
      </trkpt>
      <trkpt lat="44.55402" lon="6.31757">
        <ele>1282</ele>
        <time>2024-07-08T13:12:33Z</time>
      </trkpt>
      <trkpt lat="44.55399" lon="6.31759">
        <ele>1282</ele>
        <time>2024-07-08T13:12:37Z</time>
      </trkpt>
      <trkpt lat="44.55396" lon="6.31761">
        <ele>1282</ele>
        <time>2024-07-08T13:12:39Z</time>
      </trkpt>
      <trkpt lat="44.55393" lon="6.31765">
        <ele>1281</ele>
        <time>2024-07-08T13:12:42Z</time>
      </trkpt>
      <trkpt lat="44.5539" lon="6.31768">
        <ele>1282</ele>
        <time>2024-07-08T13:12:45Z</time>
      </trkpt>
      <trkpt lat="44.55388" lon="6.31771">
        <ele>1281</ele>
        <time>2024-07-08T13:12:48Z</time>
      </trkpt>
      <trkpt lat="44.55383" lon="6.31772">
        <ele>1279</ele>
        <time>2024-07-08T13:12:51Z</time>
      </trkpt>
      <trkpt lat="44.55378" lon="6.3177">
        <ele>1278</ele>
        <time>2024-07-08T13:12:55Z</time>
      </trkpt>
      <trkpt lat="44.55376" lon="6.31766">
        <ele>1277</ele>
        <time>2024-07-08T13:12:58Z</time>
      </trkpt>
      <trkpt lat="44.55374" lon="6.31762">
        <ele>1276</ele>
        <time>2024-07-08T13:13:01Z</time>
      </trkpt>
      <trkpt lat="44.55374" lon="6.31757">
        <ele>1275</ele>
        <time>2024-07-08T13:13:04Z</time>
      </trkpt>
      <trkpt lat="44.55372" lon="6.31753">
        <ele>1275</ele>
        <time>2024-07-08T13:13:07Z</time>
      </trkpt>
      <trkpt lat="44.55369" lon="6.31749">
        <ele>1274</ele>
        <time>2024-07-08T13:13:10Z</time>
      </trkpt>
      <trkpt lat="44.55367" lon="6.31745">
        <ele>1273</ele>
        <time>2024-07-08T13:13:12Z</time>
      </trkpt>
      <trkpt lat="44.55365" lon="6.3174">
        <ele>1273</ele>
        <time>2024-07-08T13:13:16Z</time>
      </trkpt>
      <trkpt lat="44.55362" lon="6.31735">
        <ele>1272</ele>
        <time>2024-07-08T13:13:19Z</time>
      </trkpt>
      <trkpt lat="44.55361" lon="6.31732">
        <ele>1271</ele>
        <time>2024-07-08T13:13:22Z</time>
      </trkpt>
      <trkpt lat="44.55359" lon="6.31728">
        <ele>1270</ele>
        <time>2024-07-08T13:13:25Z</time>
      </trkpt>
      <trkpt lat="44.55355" lon="6.31725">
        <ele>1269</ele>
        <time>2024-07-08T13:13:28Z</time>
      </trkpt>
      <trkpt lat="44.55351" lon="6.31724">
        <ele>1268</ele>
        <time>2024-07-08T13:13:31Z</time>
      </trkpt>
      <trkpt lat="44.55347" lon="6.31725">
        <ele>1268</ele>
        <time>2024-07-08T13:13:34Z</time>
      </trkpt>
      <trkpt lat="44.55344" lon="6.31727">
        <ele>1267</ele>
        <time>2024-07-08T13:13:37Z</time>
      </trkpt>
      <trkpt lat="44.5534" lon="6.31729">
        <ele>1267</ele>
        <time>2024-07-08T13:13:40Z</time>
      </trkpt>
      <trkpt lat="44.55337" lon="6.31731">
        <ele>1267</ele>
        <time>2024-07-08T13:13:43Z</time>
      </trkpt>
      <trkpt lat="44.55334" lon="6.31731">
        <ele>1266</ele>
        <time>2024-07-08T13:13:45Z</time>
      </trkpt>
      <trkpt lat="44.5533" lon="6.31732">
        <ele>1265</ele>
        <time>2024-07-08T13:13:48Z</time>
      </trkpt>
      <trkpt lat="44.55326" lon="6.31734">
        <ele>1265</ele>
        <time>2024-07-08T13:13:51Z</time>
      </trkpt>
      <trkpt lat="44.55324" lon="6.31735">
        <ele>1265</ele>
        <time>2024-07-08T13:13:59Z</time>
      </trkpt>
      <trkpt lat="44.5532" lon="6.31737">
        <ele>1264</ele>
        <time>2024-07-08T13:14:02Z</time>
      </trkpt>
      <trkpt lat="44.55316" lon="6.31739">
        <ele>1263</ele>
        <time>2024-07-08T13:14:05Z</time>
      </trkpt>
      <trkpt lat="44.55312" lon="6.31738">
        <ele>1263</ele>
        <time>2024-07-08T13:14:08Z</time>
      </trkpt>
      <trkpt lat="44.55309" lon="6.31741">
        <ele>1263</ele>
        <time>2024-07-08T13:14:11Z</time>
      </trkpt>
      <trkpt lat="44.55306" lon="6.31744">
        <ele>1262</ele>
        <time>2024-07-08T13:14:14Z</time>
      </trkpt>
      <trkpt lat="44.55304" lon="6.31748">
        <ele>1261</ele>
        <time>2024-07-08T13:14:17Z</time>
      </trkpt>
      <trkpt lat="44.553" lon="6.31752">
        <ele>1261</ele>
        <time>2024-07-08T13:14:20Z</time>
      </trkpt>
      <trkpt lat="44.55296" lon="6.31754">
        <ele>1260</ele>
        <time>2024-07-08T13:14:23Z</time>
      </trkpt>
      <trkpt lat="44.55293" lon="6.31757">
        <ele>1259</ele>
        <time>2024-07-08T13:14:26Z</time>
      </trkpt>
      <trkpt lat="44.5529" lon="6.3176">
        <ele>1258</ele>
        <time>2024-07-08T13:14:30Z</time>
      </trkpt>
      <trkpt lat="44.55287" lon="6.31765">
        <ele>1258</ele>
        <time>2024-07-08T13:14:33Z</time>
      </trkpt>
      <trkpt lat="44.55284" lon="6.31769">
        <ele>1257</ele>
        <time>2024-07-08T13:14:36Z</time>
      </trkpt>
      <trkpt lat="44.55281" lon="6.31772">
        <ele>1256</ele>
        <time>2024-07-08T13:14:39Z</time>
      </trkpt>
      <trkpt lat="44.55278" lon="6.31777">
        <ele>1256</ele>
        <time>2024-07-08T13:14:42Z</time>
      </trkpt>
      <trkpt lat="44.55275" lon="6.31781">
        <ele>1256</ele>
        <time>2024-07-08T13:14:45Z</time>
      </trkpt>
      <trkpt lat="44.55272" lon="6.31784">
        <ele>1255</ele>
        <time>2024-07-08T13:14:48Z</time>
      </trkpt>
      <trkpt lat="44.55268" lon="6.31787">
        <ele>1255</ele>
        <time>2024-07-08T13:14:51Z</time>
      </trkpt>
      <trkpt lat="44.55266" lon="6.31791">
        <ele>1255</ele>
        <time>2024-07-08T13:14:53Z</time>
      </trkpt>
      <trkpt lat="44.55261" lon="6.31793">
        <ele>1254</ele>
        <time>2024-07-08T13:14:57Z</time>
      </trkpt>
      <trkpt lat="44.55258" lon="6.31794">
        <ele>1253</ele>
        <time>2024-07-08T13:14:59Z</time>
      </trkpt>
      <trkpt lat="44.55253" lon="6.31794">
        <ele>1253</ele>
        <time>2024-07-08T13:15:03Z</time>
      </trkpt>
      <trkpt lat="44.55249" lon="6.31791">
        <ele>1251</ele>
        <time>2024-07-08T13:15:06Z</time>
      </trkpt>
      <trkpt lat="44.55246" lon="6.31789">
        <ele>1251</ele>
        <time>2024-07-08T13:15:09Z</time>
      </trkpt>
      <trkpt lat="44.55243" lon="6.31787">
        <ele>1250</ele>
        <time>2024-07-08T13:15:11Z</time>
      </trkpt>
      <trkpt lat="44.5524" lon="6.31782">
        <ele>1249</ele>
        <time>2024-07-08T13:15:15Z</time>
      </trkpt>
      <trkpt lat="44.55237" lon="6.31778">
        <ele>1248</ele>
        <time>2024-07-08T13:15:17Z</time>
      </trkpt>
      <trkpt lat="44.55236" lon="6.31775">
        <ele>1248</ele>
        <time>2024-07-08T13:15:20Z</time>
      </trkpt>
      <trkpt lat="44.55236" lon="6.3177">
        <ele>1247</ele>
        <time>2024-07-08T13:15:23Z</time>
      </trkpt>
      <trkpt lat="44.55236" lon="6.31766">
        <ele>1247</ele>
        <time>2024-07-08T13:15:26Z</time>
      </trkpt>
      <trkpt lat="44.55236" lon="6.31761">
        <ele>1247</ele>
        <time>2024-07-08T13:15:29Z</time>
      </trkpt>
      <trkpt lat="44.55235" lon="6.31756">
        <ele>1246</ele>
        <time>2024-07-08T13:15:32Z</time>
      </trkpt>
      <trkpt lat="44.55235" lon="6.31753">
        <ele>1246</ele>
        <time>2024-07-08T13:15:34Z</time>
      </trkpt>
      <trkpt lat="44.55233" lon="6.31748">
        <ele>1245</ele>
        <time>2024-07-08T13:15:37Z</time>
      </trkpt>
      <trkpt lat="44.55232" lon="6.31742">
        <ele>1244</ele>
        <time>2024-07-08T13:15:40Z</time>
      </trkpt>
      <trkpt lat="44.55232" lon="6.31737">
        <ele>1244</ele>
        <time>2024-07-08T13:15:43Z</time>
      </trkpt>
      <trkpt lat="44.55232" lon="6.31732">
        <ele>1243</ele>
        <time>2024-07-08T13:15:46Z</time>
      </trkpt>
      <trkpt lat="44.55232" lon="6.31726">
        <ele>1243</ele>
        <time>2024-07-08T13:15:49Z</time>
      </trkpt>
      <trkpt lat="44.55233" lon="6.3172">
        <ele>1242</ele>
        <time>2024-07-08T13:15:52Z</time>
      </trkpt>
      <trkpt lat="44.55233" lon="6.31714">
        <ele>1242</ele>
        <time>2024-07-08T13:15:56Z</time>
      </trkpt>
      <trkpt lat="44.55234" lon="6.31709">
        <ele>1241</ele>
        <time>2024-07-08T13:15:59Z</time>
      </trkpt>
      <trkpt lat="44.55234" lon="6.31704">
        <ele>1241</ele>
        <time>2024-07-08T13:16:02Z</time>
      </trkpt>
      <trkpt lat="44.55235" lon="6.31699">
        <ele>1240</ele>
        <time>2024-07-08T13:16:05Z</time>
      </trkpt>
      <trkpt lat="44.55237" lon="6.31694">
        <ele>1240</ele>
        <time>2024-07-08T13:16:07Z</time>
      </trkpt>
      <trkpt lat="44.55239" lon="6.3169">
        <ele>1240</ele>
        <time>2024-07-08T13:16:10Z</time>
      </trkpt>
      <trkpt lat="44.55242" lon="6.31675">
        <ele>1239</ele>
        <time>2024-07-08T13:16:18Z</time>
      </trkpt>
      <trkpt lat="44.55247" lon="6.31667">
        <ele>1238</ele>
        <time>2024-07-08T13:16:25Z</time>
      </trkpt>
      <trkpt lat="44.5525" lon="6.31661">
        <ele>1236</ele>
        <time>2024-07-08T13:16:30Z</time>
      </trkpt>
      <trkpt lat="44.55255" lon="6.31647">
        <ele>1237</ele>
        <time>2024-07-08T13:16:36Z</time>
      </trkpt>
      <trkpt lat="44.5525" lon="6.31631">
        <ele>1234</ele>
        <time>2024-07-08T13:16:44Z</time>
      </trkpt>
      <trkpt lat="44.5525" lon="6.31623">
        <ele>1232</ele>
        <time>2024-07-08T13:16:50Z</time>
      </trkpt>
      <trkpt lat="44.55249" lon="6.31609">
        <ele>1231</ele>
        <time>2024-07-08T13:16:56Z</time>
      </trkpt>
      <trkpt lat="44.5525" lon="6.31606">
        <ele>1230</ele>
        <time>2024-07-08T13:17:02Z</time>
      </trkpt>
      <trkpt lat="44.55253" lon="6.31596">
        <ele>1230</ele>
        <time>2024-07-08T13:17:06Z</time>
      </trkpt>
      <trkpt lat="44.55256" lon="6.31586">
        <ele>1228</ele>
        <time>2024-07-08T13:17:12Z</time>
      </trkpt>
      <trkpt lat="44.55264" lon="6.31581">
        <ele>1227</ele>
        <time>2024-07-08T13:17:18Z</time>
      </trkpt>
      <trkpt lat="44.55271" lon="6.31579">
        <ele>1226</ele>
        <time>2024-07-08T13:17:24Z</time>
      </trkpt>
      <trkpt lat="44.55277" lon="6.31576">
        <ele>1225</ele>
        <time>2024-07-08T13:17:30Z</time>
      </trkpt>
      <trkpt lat="44.55283" lon="6.31571">
        <ele>1224</ele>
        <time>2024-07-08T13:17:36Z</time>
      </trkpt>
      <trkpt lat="44.5529" lon="6.31565">
        <ele>1223</ele>
        <time>2024-07-08T13:17:42Z</time>
      </trkpt>
      <trkpt lat="44.55298" lon="6.31553">
        <ele>1222</ele>
        <time>2024-07-08T13:17:48Z</time>
      </trkpt>
      <trkpt lat="44.553" lon="6.31544">
        <ele>1220</ele>
        <time>2024-07-08T13:17:54Z</time>
      </trkpt>
      <trkpt lat="44.55302" lon="6.31534">
        <ele>1219</ele>
        <time>2024-07-08T13:18:00Z</time>
      </trkpt>
      <trkpt lat="44.55306" lon="6.31522">
        <ele>1218</ele>
        <time>2024-07-08T13:18:06Z</time>
      </trkpt>
      <trkpt lat="44.5531" lon="6.31509">
        <ele>1217</ele>
        <time>2024-07-08T13:18:12Z</time>
      </trkpt>
      <trkpt lat="44.5531" lon="6.31499">
        <ele>1215</ele>
        <time>2024-07-08T13:18:15Z</time>
      </trkpt>
      <trkpt lat="44.55307" lon="6.31493">
        <ele>1215</ele>
        <time>2024-07-08T13:18:18Z</time>
      </trkpt>
      <trkpt lat="44.55308" lon="6.31487">
        <ele>1216</ele>
        <time>2024-07-08T13:18:21Z</time>
      </trkpt>
      <trkpt lat="44.55309" lon="6.31482">
        <ele>1216</ele>
        <time>2024-07-08T13:18:24Z</time>
      </trkpt>
      <trkpt lat="44.55311" lon="6.31477">
        <ele>1215</ele>
        <time>2024-07-08T13:18:27Z</time>
      </trkpt>
      <trkpt lat="44.55313" lon="6.31473">
        <ele>1215</ele>
        <time>2024-07-08T13:18:30Z</time>
      </trkpt>
      <trkpt lat="44.55315" lon="6.31468">
        <ele>1215</ele>
        <time>2024-07-08T13:18:33Z</time>
      </trkpt>
      <trkpt lat="44.55318" lon="6.31465">
        <ele>1214</ele>
        <time>2024-07-08T13:18:36Z</time>
      </trkpt>
      <trkpt lat="44.55321" lon="6.3146">
        <ele>1214</ele>
        <time>2024-07-08T13:18:39Z</time>
      </trkpt>
      <trkpt lat="44.55323" lon="6.31455">
        <ele>1214</ele>
        <time>2024-07-08T13:18:42Z</time>
      </trkpt>
      <trkpt lat="44.55323" lon="6.31452">
        <ele>1214</ele>
        <time>2024-07-08T13:19:03Z</time>
      </trkpt>
      <trkpt lat="44.55325" lon="6.31446">
        <ele>1214</ele>
        <time>2024-07-08T13:19:06Z</time>
      </trkpt>
      <trkpt lat="44.55325" lon="6.31441">
        <ele>1214</ele>
        <time>2024-07-08T13:19:09Z</time>
      </trkpt>
      <trkpt lat="44.55326" lon="6.31435">
        <ele>1214</ele>
        <time>2024-07-08T13:19:12Z</time>
      </trkpt>
      <trkpt lat="44.55327" lon="6.31429">
        <ele>1214</ele>
        <time>2024-07-08T13:19:15Z</time>
      </trkpt>
      <trkpt lat="44.55329" lon="6.31423">
        <ele>1213</ele>
        <time>2024-07-08T13:19:18Z</time>
      </trkpt>
      <trkpt lat="44.5533" lon="6.31419">
        <ele>1214</ele>
        <time>2024-07-08T13:19:21Z</time>
      </trkpt>
      <trkpt lat="44.55331" lon="6.31413">
        <ele>1214</ele>
        <time>2024-07-08T13:19:24Z</time>
      </trkpt>
      <trkpt lat="44.55331" lon="6.31407">
        <ele>1213</ele>
        <time>2024-07-08T13:19:27Z</time>
      </trkpt>
      <trkpt lat="44.55331" lon="6.31402">
        <ele>1212</ele>
        <time>2024-07-08T13:19:29Z</time>
      </trkpt>
      <trkpt lat="44.55331" lon="6.31397">
        <ele>1212</ele>
        <time>2024-07-08T13:19:32Z</time>
      </trkpt>
      <trkpt lat="44.55332" lon="6.3139">
        <ele>1211</ele>
        <time>2024-07-08T13:19:35Z</time>
      </trkpt>
      <trkpt lat="44.55332" lon="6.31384">
        <ele>1211</ele>
        <time>2024-07-08T13:19:38Z</time>
      </trkpt>
      <trkpt lat="44.55333" lon="6.31379">
        <ele>1210</ele>
        <time>2024-07-08T13:19:41Z</time>
      </trkpt>
      <trkpt lat="44.55334" lon="6.31374">
        <ele>1210</ele>
        <time>2024-07-08T13:19:44Z</time>
      </trkpt>
      <trkpt lat="44.55335" lon="6.31368">
        <ele>1210</ele>
        <time>2024-07-08T13:19:47Z</time>
      </trkpt>
      <trkpt lat="44.55334" lon="6.31362">
        <ele>1209</ele>
        <time>2024-07-08T13:19:50Z</time>
      </trkpt>
      <trkpt lat="44.55332" lon="6.31358">
        <ele>1209</ele>
        <time>2024-07-08T13:19:53Z</time>
      </trkpt>
      <trkpt lat="44.55332" lon="6.31355">
        <ele>1209</ele>
        <time>2024-07-08T13:20:29Z</time>
      </trkpt>
      <trkpt lat="44.55332" lon="6.31349">
        <ele>1208</ele>
        <time>2024-07-08T13:20:32Z</time>
      </trkpt>
      <trkpt lat="44.55333" lon="6.31344">
        <ele>1208</ele>
        <time>2024-07-08T13:20:35Z</time>
      </trkpt>
      <trkpt lat="44.55333" lon="6.31341">
        <ele>1209</ele>
        <time>2024-07-08T13:20:37Z</time>
      </trkpt>
      <trkpt lat="44.55336" lon="6.31336">
        <ele>1209</ele>
        <time>2024-07-08T13:20:40Z</time>
      </trkpt>
      <trkpt lat="44.55339" lon="6.31333">
        <ele>1209</ele>
        <time>2024-07-08T13:20:43Z</time>
      </trkpt>
      <trkpt lat="44.55342" lon="6.3133">
        <ele>1210</ele>
        <time>2024-07-08T13:20:46Z</time>
      </trkpt>
      <trkpt lat="44.55344" lon="6.31326">
        <ele>1210</ele>
        <time>2024-07-08T13:20:49Z</time>
      </trkpt>
      <trkpt lat="44.55346" lon="6.31323">
        <ele>1211</ele>
        <time>2024-07-08T13:20:52Z</time>
      </trkpt>
      <trkpt lat="44.55348" lon="6.31319">
        <ele>1211</ele>
        <time>2024-07-08T13:20:55Z</time>
      </trkpt>
      <trkpt lat="44.55351" lon="6.31316">
        <ele>1211</ele>
        <time>2024-07-08T13:20:59Z</time>
      </trkpt>
      <trkpt lat="44.55354" lon="6.31312">
        <ele>1212</ele>
        <time>2024-07-08T13:21:02Z</time>
      </trkpt>
      <trkpt lat="44.55356" lon="6.31309">
        <ele>1212</ele>
        <time>2024-07-08T13:21:05Z</time>
      </trkpt>
      <trkpt lat="44.5536" lon="6.31305">
        <ele>1212</ele>
        <time>2024-07-08T13:21:08Z</time>
      </trkpt>
      <trkpt lat="44.55363" lon="6.31301">
        <ele>1213</ele>
        <time>2024-07-08T13:21:11Z</time>
      </trkpt>
      <trkpt lat="44.55365" lon="6.31296">
        <ele>1213</ele>
        <time>2024-07-08T13:21:14Z</time>
      </trkpt>
      <trkpt lat="44.55368" lon="6.31293">
        <ele>1213</ele>
        <time>2024-07-08T13:21:16Z</time>
      </trkpt>
      <trkpt lat="44.55371" lon="6.3129">
        <ele>1213</ele>
        <time>2024-07-08T13:21:20Z</time>
      </trkpt>
      <trkpt lat="44.55374" lon="6.31287">
        <ele>1214</ele>
        <time>2024-07-08T13:21:23Z</time>
      </trkpt>
      <trkpt lat="44.55377" lon="6.31284">
        <ele>1214</ele>
        <time>2024-07-08T13:21:26Z</time>
      </trkpt>
      <trkpt lat="44.5538" lon="6.31283">
        <ele>1214</ele>
        <time>2024-07-08T13:21:29Z</time>
      </trkpt>
      <trkpt lat="44.55382" lon="6.3128">
        <ele>1215</ele>
        <time>2024-07-08T13:21:32Z</time>
      </trkpt>
      <trkpt lat="44.55386" lon="6.31277">
        <ele>1215</ele>
        <time>2024-07-08T13:21:35Z</time>
      </trkpt>
      <trkpt lat="44.55389" lon="6.31274">
        <ele>1216</ele>
        <time>2024-07-08T13:21:38Z</time>
      </trkpt>
      <trkpt lat="44.55391" lon="6.3127">
        <ele>1215</ele>
        <time>2024-07-08T13:21:41Z</time>
      </trkpt>
      <trkpt lat="44.55393" lon="6.31267">
        <ele>1216</ele>
        <time>2024-07-08T13:21:44Z</time>
      </trkpt>
      <trkpt lat="44.55396" lon="6.31263">
        <ele>1216</ele>
        <time>2024-07-08T13:21:47Z</time>
      </trkpt>
      <trkpt lat="44.55398" lon="6.31259">
        <ele>1216</ele>
        <time>2024-07-08T13:21:50Z</time>
      </trkpt>
      <trkpt lat="44.55401" lon="6.31256">
        <ele>1217</ele>
        <time>2024-07-08T13:21:53Z</time>
      </trkpt>
      <trkpt lat="44.55404" lon="6.31253">
        <ele>1217</ele>
        <time>2024-07-08T13:21:55Z</time>
      </trkpt>
      <trkpt lat="44.55406" lon="6.3125">
        <ele>1217</ele>
        <time>2024-07-08T13:21:58Z</time>
      </trkpt>
      <trkpt lat="44.55409" lon="6.31247">
        <ele>1218</ele>
        <time>2024-07-08T13:22:01Z</time>
      </trkpt>
      <trkpt lat="44.55413" lon="6.31243">
        <ele>1218</ele>
        <time>2024-07-08T13:22:04Z</time>
      </trkpt>
      <trkpt lat="44.55415" lon="6.3124">
        <ele>1218</ele>
        <time>2024-07-08T13:22:07Z</time>
      </trkpt>
      <trkpt lat="44.55418" lon="6.31235">
        <ele>1217</ele>
        <time>2024-07-08T13:22:10Z</time>
      </trkpt>
      <trkpt lat="44.5542" lon="6.31229">
        <ele>1218</ele>
        <time>2024-07-08T13:22:13Z</time>
      </trkpt>
      <trkpt lat="44.55422" lon="6.31225">
        <ele>1218</ele>
        <time>2024-07-08T13:22:16Z</time>
      </trkpt>
      <trkpt lat="44.55425" lon="6.3122">
        <ele>1219</ele>
        <time>2024-07-08T13:22:19Z</time>
      </trkpt>
      <trkpt lat="44.55427" lon="6.31216">
        <ele>1220</ele>
        <time>2024-07-08T13:22:22Z</time>
      </trkpt>
      <trkpt lat="44.55429" lon="6.31213">
        <ele>1219</ele>
        <time>2024-07-08T13:22:24Z</time>
      </trkpt>
      <trkpt lat="44.5543" lon="6.31211">
        <ele>1220</ele>
        <time>2024-07-08T13:22:32Z</time>
      </trkpt>
      <trkpt lat="44.55431" lon="6.31207">
        <ele>1220</ele>
        <time>2024-07-08T13:22:35Z</time>
      </trkpt>
      <trkpt lat="44.55433" lon="6.31202">
        <ele>1220</ele>
        <time>2024-07-08T13:22:39Z</time>
      </trkpt>
      <trkpt lat="44.55436" lon="6.31198">
        <ele>1221</ele>
        <time>2024-07-08T13:22:42Z</time>
      </trkpt>
      <trkpt lat="44.55438" lon="6.31195">
        <ele>1221</ele>
        <time>2024-07-08T13:22:45Z</time>
      </trkpt>
      <trkpt lat="44.55444" lon="6.31188">
        <ele>1221</ele>
        <time>2024-07-08T13:22:51Z</time>
      </trkpt>
      <trkpt lat="44.55441" lon="6.31193">
        <ele>1223</ele>
        <time>2024-07-08T13:22:57Z</time>
      </trkpt>
      <trkpt lat="44.55444" lon="6.31182">
        <ele>1223</ele>
        <time>2024-07-08T13:23:03Z</time>
      </trkpt>
      <trkpt lat="44.55447" lon="6.3117">
        <ele>1223</ele>
        <time>2024-07-08T13:23:09Z</time>
      </trkpt>
      <trkpt lat="44.55448" lon="6.31161">
        <ele>1224</ele>
        <time>2024-07-08T13:23:15Z</time>
      </trkpt>
      <trkpt lat="44.5545" lon="6.31151">
        <ele>1224</ele>
        <time>2024-07-08T13:23:21Z</time>
      </trkpt>
      <trkpt lat="44.55454" lon="6.31141">
        <ele>1226</ele>
        <time>2024-07-08T13:23:28Z</time>
      </trkpt>
      <trkpt lat="44.55462" lon="6.3113">
        <ele>1227</ele>
        <time>2024-07-08T13:23:39Z</time>
      </trkpt>
      <trkpt lat="44.5547" lon="6.31133">
        <ele>1228</ele>
        <time>2024-07-08T13:23:42Z</time>
      </trkpt>
      <trkpt lat="44.55473" lon="6.31132">
        <ele>1228</ele>
        <time>2024-07-08T13:23:45Z</time>
      </trkpt>
      <trkpt lat="44.55479" lon="6.31129">
        <ele>1229</ele>
        <time>2024-07-08T13:23:48Z</time>
      </trkpt>
      <trkpt lat="44.55483" lon="6.31127">
        <ele>1229</ele>
        <time>2024-07-08T13:23:51Z</time>
      </trkpt>
      <trkpt lat="44.55482" lon="6.31122">
        <ele>1230</ele>
        <time>2024-07-08T13:23:57Z</time>
      </trkpt>
      <trkpt lat="44.55488" lon="6.31116">
        <ele>1231</ele>
        <time>2024-07-08T13:24:03Z</time>
      </trkpt>
      <trkpt lat="44.55497" lon="6.31109">
        <ele>1231</ele>
        <time>2024-07-08T13:24:07Z</time>
      </trkpt>
      <trkpt lat="44.55499" lon="6.31107">
        <ele>1232</ele>
        <time>2024-07-08T13:24:10Z</time>
      </trkpt>
      <trkpt lat="44.55503" lon="6.31103">
        <ele>1232</ele>
        <time>2024-07-08T13:24:13Z</time>
      </trkpt>
      <trkpt lat="44.55506" lon="6.31099">
        <ele>1232</ele>
        <time>2024-07-08T13:24:16Z</time>
      </trkpt>
      <trkpt lat="44.5551" lon="6.3109">
        <ele>1232</ele>
        <time>2024-07-08T13:24:21Z</time>
      </trkpt>
      <trkpt lat="44.55503" lon="6.31081">
        <ele>1233</ele>
        <time>2024-07-08T13:24:25Z</time>
      </trkpt>
      <trkpt lat="44.55503" lon="6.31076">
        <ele>1233</ele>
        <time>2024-07-08T13:24:28Z</time>
      </trkpt>
      <trkpt lat="44.55505" lon="6.31077">
        <ele>1233</ele>
        <time>2024-07-08T13:24:37Z</time>
      </trkpt>
      <trkpt lat="44.55506" lon="6.31074">
        <ele>1232</ele>
        <time>2024-07-08T13:24:48Z</time>
      </trkpt>
      <trkpt lat="44.55506" lon="6.31068">
        <ele>1232</ele>
        <time>2024-07-08T13:24:51Z</time>
      </trkpt>
      <trkpt lat="44.55507" lon="6.31061">
        <ele>1233</ele>
        <time>2024-07-08T13:24:55Z</time>
      </trkpt>
      <trkpt lat="44.55507" lon="6.31055">
        <ele>1232</ele>
        <time>2024-07-08T13:24:58Z</time>
      </trkpt>
      <trkpt lat="44.55507" lon="6.3105">
        <ele>1232</ele>
        <time>2024-07-08T13:25:00Z</time>
      </trkpt>
      <trkpt lat="44.55508" lon="6.31044">
        <ele>1232</ele>
        <time>2024-07-08T13:25:03Z</time>
      </trkpt>
      <trkpt lat="44.55508" lon="6.31038">
        <ele>1232</ele>
        <time>2024-07-08T13:25:07Z</time>
      </trkpt>
      <trkpt lat="44.55505" lon="6.31024">
        <ele>1232</ele>
        <time>2024-07-08T13:25:14Z</time>
      </trkpt>
      <trkpt lat="44.55502" lon="6.31017">
        <ele>1231</ele>
        <time>2024-07-08T13:25:20Z</time>
      </trkpt>
      <trkpt lat="44.55502" lon="6.30999">
        <ele>1230</ele>
        <time>2024-07-08T13:25:26Z</time>
      </trkpt>
      <trkpt lat="44.55504" lon="6.30999">
        <ele>1229</ele>
        <time>2024-07-08T13:25:32Z</time>
      </trkpt>
      <trkpt lat="44.55505" lon="6.30987">
        <ele>1228</ele>
        <time>2024-07-08T13:25:35Z</time>
      </trkpt>
      <trkpt lat="44.55505" lon="6.30982">
        <ele>1228</ele>
        <time>2024-07-08T13:25:38Z</time>
      </trkpt>
      <trkpt lat="44.55499" lon="6.30969">
        <ele>1227</ele>
        <time>2024-07-08T13:25:44Z</time>
      </trkpt>
      <trkpt lat="44.55491" lon="6.30966">
        <ele>1224</ele>
        <time>2024-07-08T13:25:50Z</time>
      </trkpt>
      <trkpt lat="44.55481" lon="6.30957">
        <ele>1224</ele>
        <time>2024-07-08T13:25:56Z</time>
      </trkpt>
      <trkpt lat="44.55483" lon="6.30951">
        <ele>1222</ele>
        <time>2024-07-08T13:26:02Z</time>
      </trkpt>
      <trkpt lat="44.5548" lon="6.30946">
        <ele>1222</ele>
        <time>2024-07-08T13:26:08Z</time>
      </trkpt>
      <trkpt lat="44.55465" lon="6.30945">
        <ele>1221</ele>
        <time>2024-07-08T13:26:14Z</time>
      </trkpt>
      <trkpt lat="44.5546" lon="6.30945">
        <ele>1220</ele>
        <time>2024-07-08T13:26:19Z</time>
      </trkpt>
      <trkpt lat="44.55447" lon="6.30943">
        <ele>1220</ele>
        <time>2024-07-08T13:26:25Z</time>
      </trkpt>
      <trkpt lat="44.55439" lon="6.30945">
        <ele>1228</ele>
        <time>2024-07-08T13:26:33Z</time>
      </trkpt>
      <trkpt lat="44.55438" lon="6.30942">
        <ele>1228</ele>
        <time>2024-07-08T13:26:38Z</time>
      </trkpt>
      <trkpt lat="44.55436" lon="6.30923">
        <ele>1219</ele>
        <time>2024-07-08T13:26:41Z</time>
      </trkpt>
      <trkpt lat="44.55434" lon="6.30919">
        <ele>1220</ele>
        <time>2024-07-08T13:26:44Z</time>
      </trkpt>
      <trkpt lat="44.55432" lon="6.30917">
        <ele>1219</ele>
        <time>2024-07-08T13:26:46Z</time>
      </trkpt>
      <trkpt lat="44.55431" lon="6.30912">
        <ele>1220</ele>
        <time>2024-07-08T13:26:50Z</time>
      </trkpt>
      <trkpt lat="44.5543" lon="6.30907">
        <ele>1219</ele>
        <time>2024-07-08T13:26:53Z</time>
      </trkpt>
      <trkpt lat="44.5543" lon="6.30903">
        <ele>1219</ele>
        <time>2024-07-08T13:26:56Z</time>
      </trkpt>
      <trkpt lat="44.55429" lon="6.30899">
        <ele>1219</ele>
        <time>2024-07-08T13:26:58Z</time>
      </trkpt>
      <trkpt lat="44.55428" lon="6.30894">
        <ele>1219</ele>
        <time>2024-07-08T13:27:01Z</time>
      </trkpt>
      <trkpt lat="44.55428" lon="6.30889">
        <ele>1219</ele>
        <time>2024-07-08T13:27:05Z</time>
      </trkpt>
      <trkpt lat="44.55427" lon="6.30884">
        <ele>1219</ele>
        <time>2024-07-08T13:27:08Z</time>
      </trkpt>
      <trkpt lat="44.55427" lon="6.3088">
        <ele>1219</ele>
        <time>2024-07-08T13:27:10Z</time>
      </trkpt>
      <trkpt lat="44.55427" lon="6.30875">
        <ele>1219</ele>
        <time>2024-07-08T13:27:13Z</time>
      </trkpt>
      <trkpt lat="44.55428" lon="6.3087">
        <ele>1219</ele>
        <time>2024-07-08T13:27:16Z</time>
      </trkpt>
      <trkpt lat="44.55428" lon="6.30865">
        <ele>1219</ele>
        <time>2024-07-08T13:27:19Z</time>
      </trkpt>
      <trkpt lat="44.55428" lon="6.30859">
        <ele>1219</ele>
        <time>2024-07-08T13:27:22Z</time>
      </trkpt>
      <trkpt lat="44.55427" lon="6.30854">
        <ele>1218</ele>
        <time>2024-07-08T13:27:25Z</time>
      </trkpt>
      <trkpt lat="44.55425" lon="6.3085">
        <ele>1217</ele>
        <time>2024-07-08T13:27:28Z</time>
      </trkpt>
      <trkpt lat="44.55422" lon="6.30846">
        <ele>1217</ele>
        <time>2024-07-08T13:27:31Z</time>
      </trkpt>
      <trkpt lat="44.5542" lon="6.30842">
        <ele>1217</ele>
        <time>2024-07-08T13:27:34Z</time>
      </trkpt>
      <trkpt lat="44.55417" lon="6.30839">
        <ele>1217</ele>
        <time>2024-07-08T13:27:37Z</time>
      </trkpt>
      <trkpt lat="44.55415" lon="6.30834">
        <ele>1216</ele>
        <time>2024-07-08T13:27:40Z</time>
      </trkpt>
      <trkpt lat="44.55413" lon="6.30829">
        <ele>1216</ele>
        <time>2024-07-08T13:27:43Z</time>
      </trkpt>
      <trkpt lat="44.55411" lon="6.30824">
        <ele>1216</ele>
        <time>2024-07-08T13:27:46Z</time>
      </trkpt>
      <trkpt lat="44.55409" lon="6.30819">
        <ele>1213</ele>
        <time>2024-07-08T13:27:49Z</time>
      </trkpt>
      <trkpt lat="44.55402" lon="6.3081">
        <ele>1213</ele>
        <time>2024-07-08T13:27:55Z</time>
      </trkpt>
      <trkpt lat="44.55402" lon="6.30802">
        <ele>1211</ele>
        <time>2024-07-08T13:28:01Z</time>
      </trkpt>
      <trkpt lat="44.55408" lon="6.30801">
        <ele>1212</ele>
        <time>2024-07-08T13:28:07Z</time>
      </trkpt>
      <trkpt lat="44.55415" lon="6.30794">
        <ele>1211</ele>
        <time>2024-07-08T13:28:13Z</time>
      </trkpt>
      <trkpt lat="44.55418" lon="6.30789">
        <ele>1212</ele>
        <time>2024-07-08T13:28:19Z</time>
      </trkpt>
      <trkpt lat="44.5542" lon="6.30782">
        <ele>1213</ele>
        <time>2024-07-08T13:28:25Z</time>
      </trkpt>
      <trkpt lat="44.55428" lon="6.3078">
        <ele>1213</ele>
        <time>2024-07-08T13:28:31Z</time>
      </trkpt>
      <trkpt lat="44.55431" lon="6.30774">
        <ele>1214</ele>
        <time>2024-07-08T13:28:34Z</time>
      </trkpt>
      <trkpt lat="44.5543" lon="6.3077">
        <ele>1214</ele>
        <time>2024-07-08T13:28:37Z</time>
      </trkpt>
    </trkseg>
  </trk>
</gpx>